<?xml version="1.0" encoding="UTF-8" standalone="no" ?>
<gpx xmlns="http://www.topografix.com/GPX/1/1" xmlns:xsi="http://www.w3.org/2001/XMLSchema-instance" xsi:schemaLocation="http://www.topografix.com/GPX/1/1 http://www.topografix.com/GPX/1/1/gpx.xsd" version="1.1" creator="VisuGPX - https://www.visugpx.com">
  <metadata>
    <name>2019-09-21 Ceyreste</name>
    <desc><![CDATA[Boucle au départ de Ceyreste par le vallon des Conquettes et de Gendame]]></desc>
  </metadata>
  <trk>
    <name><![CDATA[2019-09-21 Ceyreste]]></name>
    <trkseg>
      <trkpt lat="43.22192" lon="5.62967">
        <ele>174.43359375</ele>
        <time>2019-09-21T07:04:44Z</time>
      </trkpt>
      <trkpt lat="43.22194" lon="5.62965">
        <ele>174.8515625</ele>
        <time>2019-09-21T07:04:53Z</time>
      </trkpt>
      <trkpt lat="43.22194" lon="5.62965">
        <ele>174.8671875</ele>
        <time>2019-09-21T07:04:54Z</time>
      </trkpt>
      <trkpt lat="43.22194" lon="5.62972">
        <ele>174.6328125</ele>
        <time>2019-09-21T07:05:03Z</time>
      </trkpt>
      <trkpt lat="43.22194" lon="5.62973">
        <ele>174.66015625</ele>
        <time>2019-09-21T07:05:04Z</time>
      </trkpt>
      <trkpt lat="43.22194" lon="5.62972">
        <ele>174.65234375</ele>
        <time>2019-09-21T07:05:05Z</time>
      </trkpt>
      <trkpt lat="43.22193" lon="5.62973">
        <ele>174.4375</ele>
        <time>2019-09-21T07:05:20Z</time>
      </trkpt>
      <trkpt lat="43.22193" lon="5.62975">
        <ele>174.3203125</ele>
        <time>2019-09-21T07:05:26Z</time>
      </trkpt>
      <trkpt lat="43.22192" lon="5.62974">
        <ele>174.21484375</ele>
        <time>2019-09-21T07:05:54Z</time>
      </trkpt>
      <trkpt lat="43.22193" lon="5.62974">
        <ele>174.38671875</ele>
        <time>2019-09-21T07:06:03Z</time>
      </trkpt>
      <trkpt lat="43.22196" lon="5.62975">
        <ele>174.7890625</ele>
        <time>2019-09-21T07:06:38Z</time>
      </trkpt>
      <trkpt lat="43.22195" lon="5.62975">
        <ele>174.65625</ele>
        <time>2019-09-21T07:06:46Z</time>
      </trkpt>
      <trkpt lat="43.22195" lon="5.62966">
        <ele>174.9921875</ele>
        <time>2019-09-21T07:07:00Z</time>
      </trkpt>
      <trkpt lat="43.22194" lon="5.62965">
        <ele>174.91796875</ele>
        <time>2019-09-21T07:07:06Z</time>
      </trkpt>
      <trkpt lat="43.22202" lon="5.62958">
        <ele>176.6953125</ele>
        <time>2019-09-21T07:07:12Z</time>
      </trkpt>
      <trkpt lat="43.22207" lon="5.62957">
        <ele>177.37109375</ele>
        <time>2019-09-21T07:07:14Z</time>
      </trkpt>
      <trkpt lat="43.22209" lon="5.62957">
        <ele>177.64453125</ele>
        <time>2019-09-21T07:07:15Z</time>
      </trkpt>
      <trkpt lat="43.22211" lon="5.62959">
        <ele>177.87109375</ele>
        <time>2019-09-21T07:07:16Z</time>
      </trkpt>
      <trkpt lat="43.22213" lon="5.62961">
        <ele>178.0234375</ele>
        <time>2019-09-21T07:07:17Z</time>
      </trkpt>
      <trkpt lat="43.22215" lon="5.62964">
        <ele>178.17578125</ele>
        <time>2019-09-21T07:07:18Z</time>
      </trkpt>
      <trkpt lat="43.22217" lon="5.62966">
        <ele>178.3984375</ele>
        <time>2019-09-21T07:07:19Z</time>
      </trkpt>
      <trkpt lat="43.22234" lon="5.62993">
        <ele>179.93359375</ele>
        <time>2019-09-21T07:07:30Z</time>
      </trkpt>
      <trkpt lat="43.22254" lon="5.63023">
        <ele>182.60546875</ele>
        <time>2019-09-21T07:07:49Z</time>
      </trkpt>
      <trkpt lat="43.22273" lon="5.63052">
        <ele>182.6171875</ele>
        <time>2019-09-21T07:08:06Z</time>
      </trkpt>
      <trkpt lat="43.2229" lon="5.63082">
        <ele>183.29296875</ele>
        <time>2019-09-21T07:08:22Z</time>
      </trkpt>
      <trkpt lat="43.22309" lon="5.63117">
        <ele>184.51171875</ele>
        <time>2019-09-21T07:08:38Z</time>
      </trkpt>
      <trkpt lat="43.2233" lon="5.63149">
        <ele>184.66015625</ele>
        <time>2019-09-21T07:08:55Z</time>
      </trkpt>
      <trkpt lat="43.22336" lon="5.63166">
        <ele>186.13671875</ele>
        <time>2019-09-21T07:09:03Z</time>
      </trkpt>
      <trkpt lat="43.22341" lon="5.6319">
        <ele>188.3515625</ele>
        <time>2019-09-21T07:09:14Z</time>
      </trkpt>
      <trkpt lat="43.22349" lon="5.63214">
        <ele>190.8359375</ele>
        <time>2019-09-21T07:09:26Z</time>
      </trkpt>
      <trkpt lat="43.2236" lon="5.63245">
        <ele>194.41796875</ele>
        <time>2019-09-21T07:09:41Z</time>
      </trkpt>
      <trkpt lat="43.22376" lon="5.63279">
        <ele>199.578125</ele>
        <time>2019-09-21T07:09:58Z</time>
      </trkpt>
      <trkpt lat="43.22377" lon="5.63279">
        <ele>199.74609375</ele>
        <time>2019-09-21T07:09:59Z</time>
      </trkpt>
      <trkpt lat="43.22399" lon="5.63286">
        <ele>201.95703125</ele>
        <time>2019-09-21T07:10:15Z</time>
      </trkpt>
      <trkpt lat="43.22417" lon="5.63295">
        <ele>202.06640625</ele>
        <time>2019-09-21T07:10:28Z</time>
      </trkpt>
      <trkpt lat="43.22419" lon="5.63296">
        <ele>202.19140625</ele>
        <time>2019-09-21T07:10:30Z</time>
      </trkpt>
      <trkpt lat="43.22436" lon="5.63315">
        <ele>204.78125</ele>
        <time>2019-09-21T07:10:47Z</time>
      </trkpt>
      <trkpt lat="43.22438" lon="5.6332">
        <ele>205.8671875</ele>
        <time>2019-09-21T07:10:51Z</time>
      </trkpt>
      <trkpt lat="43.22439" lon="5.63321">
        <ele>206.03515625</ele>
        <time>2019-09-21T07:10:52Z</time>
      </trkpt>
      <trkpt lat="43.22453" lon="5.63331">
        <ele>207.83203125</ele>
        <time>2019-09-21T07:11:07Z</time>
      </trkpt>
      <trkpt lat="43.22468" lon="5.6334">
        <ele>208.265625</ele>
        <time>2019-09-21T07:11:19Z</time>
      </trkpt>
      <trkpt lat="43.22469" lon="5.63341">
        <ele>208.296875</ele>
        <time>2019-09-21T07:11:20Z</time>
      </trkpt>
      <trkpt lat="43.2247" lon="5.63342">
        <ele>208.40625</ele>
        <time>2019-09-21T07:11:21Z</time>
      </trkpt>
      <trkpt lat="43.22488" lon="5.63358">
        <ele>209.72265625</ele>
        <time>2019-09-21T07:11:37Z</time>
      </trkpt>
      <trkpt lat="43.22494" lon="5.63362">
        <ele>209.92578125</ele>
        <time>2019-09-21T07:11:41Z</time>
      </trkpt>
      <trkpt lat="43.22511" lon="5.63374">
        <ele>210.1875</ele>
        <time>2019-09-21T07:11:55Z</time>
      </trkpt>
      <trkpt lat="43.22526" lon="5.63389">
        <ele>211.26953125</ele>
        <time>2019-09-21T07:12:09Z</time>
      </trkpt>
      <trkpt lat="43.22542" lon="5.6341">
        <ele>213.7109375</ele>
        <time>2019-09-21T07:12:25Z</time>
      </trkpt>
      <trkpt lat="43.22561" lon="5.63425">
        <ele>211.9609375</ele>
        <time>2019-09-21T07:12:40Z</time>
      </trkpt>
      <trkpt lat="43.22567" lon="5.63432">
        <ele>211.27734375</ele>
        <time>2019-09-21T07:12:45Z</time>
      </trkpt>
      <trkpt lat="43.2258" lon="5.63456">
        <ele>211.703125</ele>
        <time>2019-09-21T07:13:01Z</time>
      </trkpt>
      <trkpt lat="43.22584" lon="5.6349">
        <ele>217.19921875</ele>
        <time>2019-09-21T07:13:17Z</time>
      </trkpt>
      <trkpt lat="43.2259" lon="5.63523">
        <ele>220.21484375</ele>
        <time>2019-09-21T07:13:32Z</time>
      </trkpt>
      <trkpt lat="43.22607" lon="5.6355">
        <ele>222.5625</ele>
        <time>2019-09-21T07:13:47Z</time>
      </trkpt>
      <trkpt lat="43.22627" lon="5.63564">
        <ele>226.3671875</ele>
        <time>2019-09-21T07:14:02Z</time>
      </trkpt>
      <trkpt lat="43.22632" lon="5.63569">
        <ele>227.6171875</ele>
        <time>2019-09-21T07:14:06Z</time>
      </trkpt>
      <trkpt lat="43.22636" lon="5.63573">
        <ele>228.765625</ele>
        <time>2019-09-21T07:14:09Z</time>
      </trkpt>
      <trkpt lat="43.22637" lon="5.63574">
        <ele>229.12109375</ele>
        <time>2019-09-21T07:14:10Z</time>
      </trkpt>
      <trkpt lat="43.22647" lon="5.63587">
        <ele>232.0859375</ele>
        <time>2019-09-21T07:14:19Z</time>
      </trkpt>
      <trkpt lat="43.22652" lon="5.63596">
        <ele>233.90625</ele>
        <time>2019-09-21T07:14:26Z</time>
      </trkpt>
      <trkpt lat="43.22652" lon="5.63597">
        <ele>234.15625</ele>
        <time>2019-09-21T07:14:27Z</time>
      </trkpt>
      <trkpt lat="43.22654" lon="5.63607">
        <ele>235.4765625</ele>
        <time>2019-09-21T07:14:39Z</time>
      </trkpt>
      <trkpt lat="43.22657" lon="5.63623">
        <ele>237.25</ele>
        <time>2019-09-21T07:14:58Z</time>
      </trkpt>
      <trkpt lat="43.22664" lon="5.63651">
        <ele>241.08203125</ele>
        <time>2019-09-21T07:15:15Z</time>
      </trkpt>
      <trkpt lat="43.22667" lon="5.63664">
        <ele>242.578125</ele>
        <time>2019-09-21T07:15:24Z</time>
      </trkpt>
      <trkpt lat="43.22672" lon="5.63674">
        <ele>244.0390625</ele>
        <time>2019-09-21T07:15:31Z</time>
      </trkpt>
      <trkpt lat="43.22673" lon="5.63679">
        <ele>244.18359375</ele>
        <time>2019-09-21T07:15:34Z</time>
      </trkpt>
      <trkpt lat="43.22673" lon="5.6368">
        <ele>244.203125</ele>
        <time>2019-09-21T07:15:35Z</time>
      </trkpt>
      <trkpt lat="43.22673" lon="5.63682">
        <ele>244.2734375</ele>
        <time>2019-09-21T07:15:36Z</time>
      </trkpt>
      <trkpt lat="43.22674" lon="5.63683">
        <ele>244.390625</ele>
        <time>2019-09-21T07:15:37Z</time>
      </trkpt>
      <trkpt lat="43.22674" lon="5.63685">
        <ele>244.453125</ele>
        <time>2019-09-21T07:15:38Z</time>
      </trkpt>
      <trkpt lat="43.22674" lon="5.63686">
        <ele>244.515625</ele>
        <time>2019-09-21T07:15:39Z</time>
      </trkpt>
      <trkpt lat="43.22678" lon="5.63701">
        <ele>245.4296875</ele>
        <time>2019-09-21T07:15:49Z</time>
      </trkpt>
      <trkpt lat="43.22679" lon="5.63703">
        <ele>245.53125</ele>
        <time>2019-09-21T07:15:50Z</time>
      </trkpt>
      <trkpt lat="43.22679" lon="5.63704">
        <ele>245.6640625</ele>
        <time>2019-09-21T07:15:51Z</time>
      </trkpt>
      <trkpt lat="43.2269" lon="5.63727">
        <ele>247.79296875</ele>
        <time>2019-09-21T07:16:06Z</time>
      </trkpt>
      <trkpt lat="43.22693" lon="5.63732">
        <ele>248.46484375</ele>
        <time>2019-09-21T07:16:10Z</time>
      </trkpt>
      <trkpt lat="43.22694" lon="5.63733">
        <ele>248.640625</ele>
        <time>2019-09-21T07:16:11Z</time>
      </trkpt>
      <trkpt lat="43.22695" lon="5.63734">
        <ele>248.7734375</ele>
        <time>2019-09-21T07:16:12Z</time>
      </trkpt>
      <trkpt lat="43.22695" lon="5.63735">
        <ele>248.91796875</ele>
        <time>2019-09-21T07:16:13Z</time>
      </trkpt>
      <trkpt lat="43.22696" lon="5.63736">
        <ele>249.09765625</ele>
        <time>2019-09-21T07:16:14Z</time>
      </trkpt>
      <trkpt lat="43.22709" lon="5.63754">
        <ele>251.078125</ele>
        <time>2019-09-21T07:16:29Z</time>
      </trkpt>
      <trkpt lat="43.22721" lon="5.63771">
        <ele>252.60546875</ele>
        <time>2019-09-21T07:16:44Z</time>
      </trkpt>
      <trkpt lat="43.22723" lon="5.63773">
        <ele>252.93359375</ele>
        <time>2019-09-21T07:16:46Z</time>
      </trkpt>
      <trkpt lat="43.22724" lon="5.63773">
        <ele>253.1484375</ele>
        <time>2019-09-21T07:16:47Z</time>
      </trkpt>
      <trkpt lat="43.22725" lon="5.63774">
        <ele>253.359375</ele>
        <time>2019-09-21T07:16:48Z</time>
      </trkpt>
      <trkpt lat="43.22727" lon="5.63775">
        <ele>253.60546875</ele>
        <time>2019-09-21T07:16:49Z</time>
      </trkpt>
      <trkpt lat="43.22728" lon="5.63775">
        <ele>253.8203125</ele>
        <time>2019-09-21T07:16:50Z</time>
      </trkpt>
      <trkpt lat="43.22729" lon="5.63776">
        <ele>254.03125</ele>
        <time>2019-09-21T07:16:51Z</time>
      </trkpt>
      <trkpt lat="43.2273" lon="5.63777">
        <ele>254.1875</ele>
        <time>2019-09-21T07:16:52Z</time>
      </trkpt>
      <trkpt lat="43.2273" lon="5.63778">
        <ele>254.29296875</ele>
        <time>2019-09-21T07:16:53Z</time>
      </trkpt>
      <trkpt lat="43.22731" lon="5.63779">
        <ele>254.4296875</ele>
        <time>2019-09-21T07:16:54Z</time>
      </trkpt>
      <trkpt lat="43.22733" lon="5.63781">
        <ele>254.74609375</ele>
        <time>2019-09-21T07:16:56Z</time>
      </trkpt>
      <trkpt lat="43.22749" lon="5.63792">
        <ele>257.7421875</ele>
        <time>2019-09-21T07:17:11Z</time>
      </trkpt>
      <trkpt lat="43.22755" lon="5.63795">
        <ele>258.96875</ele>
        <time>2019-09-21T07:17:17Z</time>
      </trkpt>
      <trkpt lat="43.22769" lon="5.63806">
        <ele>260.7421875</ele>
        <time>2019-09-21T07:17:32Z</time>
      </trkpt>
      <trkpt lat="43.22783" lon="5.6382">
        <ele>262.34765625</ele>
        <time>2019-09-21T07:17:48Z</time>
      </trkpt>
      <trkpt lat="43.22798" lon="5.63837">
        <ele>265.98046875</ele>
        <time>2019-09-21T07:18:05Z</time>
      </trkpt>
      <trkpt lat="43.22805" lon="5.63846">
        <ele>268.109375</ele>
        <time>2019-09-21T07:18:14Z</time>
      </trkpt>
      <trkpt lat="43.22815" lon="5.63869">
        <ele>271.6875</ele>
        <time>2019-09-21T07:18:30Z</time>
      </trkpt>
      <trkpt lat="43.22819" lon="5.63887">
        <ele>272.625</ele>
        <time>2019-09-21T07:18:41Z</time>
      </trkpt>
      <trkpt lat="43.22819" lon="5.63889">
        <ele>272.51953125</ele>
        <time>2019-09-21T07:18:42Z</time>
      </trkpt>
      <trkpt lat="43.22819" lon="5.63891">
        <ele>272.41015625</ele>
        <time>2019-09-21T07:18:43Z</time>
      </trkpt>
      <trkpt lat="43.22819" lon="5.63892">
        <ele>272.28125</ele>
        <time>2019-09-21T07:18:44Z</time>
      </trkpt>
      <trkpt lat="43.22819" lon="5.63894">
        <ele>272.11328125</ele>
        <time>2019-09-21T07:18:45Z</time>
      </trkpt>
      <trkpt lat="43.22818" lon="5.63921">
        <ele>270.10546875</ele>
        <time>2019-09-21T07:19:00Z</time>
      </trkpt>
      <trkpt lat="43.22826" lon="5.6394">
        <ele>271.4609375</ele>
        <time>2019-09-21T07:19:14Z</time>
      </trkpt>
      <trkpt lat="43.22838" lon="5.63957">
        <ele>274.41015625</ele>
        <time>2019-09-21T07:19:28Z</time>
      </trkpt>
      <trkpt lat="43.22851" lon="5.63978">
        <ele>276.8671875</ele>
        <time>2019-09-21T07:19:46Z</time>
      </trkpt>
      <trkpt lat="43.22862" lon="5.63999">
        <ele>278.875</ele>
        <time>2019-09-21T07:20:02Z</time>
      </trkpt>
      <trkpt lat="43.22868" lon="5.64006">
        <ele>280.20703125</ele>
        <time>2019-09-21T07:20:08Z</time>
      </trkpt>
      <trkpt lat="43.22869" lon="5.64005">
        <ele>280.6015625</ele>
        <time>2019-09-21T07:20:09Z</time>
      </trkpt>
      <trkpt lat="43.2287" lon="5.64004">
        <ele>281.01171875</ele>
        <time>2019-09-21T07:20:10Z</time>
      </trkpt>
      <trkpt lat="43.22867" lon="5.63983">
        <ele>281.43359375</ele>
        <time>2019-09-21T07:20:24Z</time>
      </trkpt>
      <trkpt lat="43.22867" lon="5.63962">
        <ele>282.2109375</ele>
        <time>2019-09-21T07:20:37Z</time>
      </trkpt>
      <trkpt lat="43.22868" lon="5.63948">
        <ele>283.36328125</ele>
        <time>2019-09-21T07:20:44Z</time>
      </trkpt>
      <trkpt lat="43.22868" lon="5.63946">
        <ele>283.64453125</ele>
        <time>2019-09-21T07:20:45Z</time>
      </trkpt>
      <trkpt lat="43.22869" lon="5.63945">
        <ele>283.8828125</ele>
        <time>2019-09-21T07:20:46Z</time>
      </trkpt>
      <trkpt lat="43.22869" lon="5.63943">
        <ele>284.07421875</ele>
        <time>2019-09-21T07:20:47Z</time>
      </trkpt>
      <trkpt lat="43.22869" lon="5.63941">
        <ele>284.25</ele>
        <time>2019-09-21T07:20:48Z</time>
      </trkpt>
      <trkpt lat="43.2287" lon="5.63939">
        <ele>284.51171875</ele>
        <time>2019-09-21T07:20:49Z</time>
      </trkpt>
      <trkpt lat="43.22871" lon="5.63938">
        <ele>284.80859375</ele>
        <time>2019-09-21T07:20:50Z</time>
      </trkpt>
      <trkpt lat="43.22872" lon="5.63936">
        <ele>285.1015625</ele>
        <time>2019-09-21T07:20:51Z</time>
      </trkpt>
      <trkpt lat="43.22872" lon="5.63935">
        <ele>285.34375</ele>
        <time>2019-09-21T07:20:52Z</time>
      </trkpt>
      <trkpt lat="43.22877" lon="5.63923">
        <ele>286.58203125</ele>
        <time>2019-09-21T07:21:01Z</time>
      </trkpt>
      <trkpt lat="43.22877" lon="5.63921">
        <ele>286.60546875</ele>
        <time>2019-09-21T07:21:02Z</time>
      </trkpt>
      <trkpt lat="43.22877" lon="5.63919">
        <ele>286.671875</ele>
        <time>2019-09-21T07:21:03Z</time>
      </trkpt>
      <trkpt lat="43.22877" lon="5.63918">
        <ele>286.73828125</ele>
        <time>2019-09-21T07:21:04Z</time>
      </trkpt>
      <trkpt lat="43.2288" lon="5.63897">
        <ele>287.53125</ele>
        <time>2019-09-21T07:21:17Z</time>
      </trkpt>
      <trkpt lat="43.2288" lon="5.6389">
        <ele>287.44140625</ele>
        <time>2019-09-21T07:21:21Z</time>
      </trkpt>
      <trkpt lat="43.22882" lon="5.63879">
        <ele>287.9453125</ele>
        <time>2019-09-21T07:21:28Z</time>
      </trkpt>
      <trkpt lat="43.22884" lon="5.63879">
        <ele>288.25</ele>
        <time>2019-09-21T07:21:29Z</time>
      </trkpt>
      <trkpt lat="43.22886" lon="5.63879">
        <ele>288.5234375</ele>
        <time>2019-09-21T07:21:30Z</time>
      </trkpt>
      <trkpt lat="43.22887" lon="5.6388">
        <ele>288.7578125</ele>
        <time>2019-09-21T07:21:31Z</time>
      </trkpt>
      <trkpt lat="43.22888" lon="5.63883">
        <ele>289.01953125</ele>
        <time>2019-09-21T07:21:33Z</time>
      </trkpt>
      <trkpt lat="43.22895" lon="5.63902">
        <ele>290.171875</ele>
        <time>2019-09-21T07:21:47Z</time>
      </trkpt>
      <trkpt lat="43.22896" lon="5.63902">
        <ele>290.37109375</ele>
        <time>2019-09-21T07:21:48Z</time>
      </trkpt>
      <trkpt lat="43.22897" lon="5.63903">
        <ele>290.6171875</ele>
        <time>2019-09-21T07:21:49Z</time>
      </trkpt>
      <trkpt lat="43.229" lon="5.63904">
        <ele>291.01171875</ele>
        <time>2019-09-21T07:21:51Z</time>
      </trkpt>
      <trkpt lat="43.229" lon="5.63906">
        <ele>291.15234375</ele>
        <time>2019-09-21T07:21:52Z</time>
      </trkpt>
      <trkpt lat="43.22901" lon="5.63908">
        <ele>291.32421875</ele>
        <time>2019-09-21T07:21:54Z</time>
      </trkpt>
      <trkpt lat="43.22901" lon="5.63913">
        <ele>291.30078125</ele>
        <time>2019-09-21T07:21:57Z</time>
      </trkpt>
      <trkpt lat="43.22901" lon="5.63914">
        <ele>291.34375</ele>
        <time>2019-09-21T07:21:58Z</time>
      </trkpt>
      <trkpt lat="43.22912" lon="5.63938">
        <ele>293.23828125</ele>
        <time>2019-09-21T07:22:14Z</time>
      </trkpt>
      <trkpt lat="43.22919" lon="5.63946">
        <ele>294.40625</ele>
        <time>2019-09-21T07:22:21Z</time>
      </trkpt>
      <trkpt lat="43.2292" lon="5.63949">
        <ele>294.703125</ele>
        <time>2019-09-21T07:22:23Z</time>
      </trkpt>
      <trkpt lat="43.22924" lon="5.63954">
        <ele>295.47265625</ele>
        <time>2019-09-21T07:22:28Z</time>
      </trkpt>
      <trkpt lat="43.22925" lon="5.63955">
        <ele>295.66796875</ele>
        <time>2019-09-21T07:22:29Z</time>
      </trkpt>
      <trkpt lat="43.22926" lon="5.63956">
        <ele>295.83203125</ele>
        <time>2019-09-21T07:22:30Z</time>
      </trkpt>
      <trkpt lat="43.22927" lon="5.63957">
        <ele>295.97265625</ele>
        <time>2019-09-21T07:22:31Z</time>
      </trkpt>
      <trkpt lat="43.22928" lon="5.63958">
        <ele>296.12890625</ele>
        <time>2019-09-21T07:22:32Z</time>
      </trkpt>
      <trkpt lat="43.22929" lon="5.6396">
        <ele>296.30078125</ele>
        <time>2019-09-21T07:22:33Z</time>
      </trkpt>
      <trkpt lat="43.22944" lon="5.63977">
        <ele>298.890625</ele>
        <time>2019-09-21T07:22:50Z</time>
      </trkpt>
      <trkpt lat="43.22957" lon="5.63996">
        <ele>301.17578125</ele>
        <time>2019-09-21T07:23:05Z</time>
      </trkpt>
      <trkpt lat="43.22959" lon="5.64">
        <ele>301.359375</ele>
        <time>2019-09-21T07:23:08Z</time>
      </trkpt>
      <trkpt lat="43.22972" lon="5.6402">
        <ele>302.94921875</ele>
        <time>2019-09-21T07:23:25Z</time>
      </trkpt>
      <trkpt lat="43.22985" lon="5.64044">
        <ele>304.6953125</ele>
        <time>2019-09-21T07:23:43Z</time>
      </trkpt>
      <trkpt lat="43.22997" lon="5.64065">
        <ele>306.96484375</ele>
        <time>2019-09-21T07:23:59Z</time>
      </trkpt>
      <trkpt lat="43.22997" lon="5.64068">
        <ele>307.16796875</ele>
        <time>2019-09-21T07:24:01Z</time>
      </trkpt>
      <trkpt lat="43.22998" lon="5.6407">
        <ele>307.2890625</ele>
        <time>2019-09-21T07:24:02Z</time>
      </trkpt>
      <trkpt lat="43.22999" lon="5.64071">
        <ele>307.41015625</ele>
        <time>2019-09-21T07:24:03Z</time>
      </trkpt>
      <trkpt lat="43.23009" lon="5.64096">
        <ele>308.734375</ele>
        <time>2019-09-21T07:24:19Z</time>
      </trkpt>
      <trkpt lat="43.23014" lon="5.64104">
        <ele>309.234375</ele>
        <time>2019-09-21T07:24:25Z</time>
      </trkpt>
      <trkpt lat="43.23015" lon="5.64104">
        <ele>309.4609375</ele>
        <time>2019-09-21T07:24:26Z</time>
      </trkpt>
      <trkpt lat="43.23019" lon="5.64099">
        <ele>310.05078125</ele>
        <time>2019-09-21T07:24:30Z</time>
      </trkpt>
      <trkpt lat="43.23022" lon="5.64088">
        <ele>310.578125</ele>
        <time>2019-09-21T07:24:38Z</time>
      </trkpt>
      <trkpt lat="43.23022" lon="5.64074">
        <ele>310.85546875</ele>
        <time>2019-09-21T07:24:50Z</time>
      </trkpt>
      <trkpt lat="43.23028" lon="5.64052">
        <ele>310.25390625</ele>
        <time>2019-09-21T07:25:04Z</time>
      </trkpt>
      <trkpt lat="43.23039" lon="5.64052">
        <ele>310.50390625</ele>
        <time>2019-09-21T07:25:11Z</time>
      </trkpt>
      <trkpt lat="43.2304" lon="5.64053">
        <ele>310.62890625</ele>
        <time>2019-09-21T07:25:12Z</time>
      </trkpt>
      <trkpt lat="43.23055" lon="5.64072">
        <ele>312.70703125</ele>
        <time>2019-09-21T07:25:28Z</time>
      </trkpt>
      <trkpt lat="43.23055" lon="5.64073">
        <ele>312.8359375</ele>
        <time>2019-09-21T07:25:29Z</time>
      </trkpt>
      <trkpt lat="43.23056" lon="5.64074">
        <ele>312.91796875</ele>
        <time>2019-09-21T07:25:30Z</time>
      </trkpt>
      <trkpt lat="43.23056" lon="5.64076">
        <ele>313.0234375</ele>
        <time>2019-09-21T07:25:31Z</time>
      </trkpt>
      <trkpt lat="43.23057" lon="5.64077">
        <ele>313.1484375</ele>
        <time>2019-09-21T07:25:32Z</time>
      </trkpt>
      <trkpt lat="43.23068" lon="5.64102">
        <ele>314.1953125</ele>
        <time>2019-09-21T07:25:49Z</time>
      </trkpt>
      <trkpt lat="43.23075" lon="5.64115">
        <ele>314.4765625</ele>
        <time>2019-09-21T07:25:57Z</time>
      </trkpt>
      <trkpt lat="43.23086" lon="5.64142">
        <ele>316.5390625</ele>
        <time>2019-09-21T07:26:14Z</time>
      </trkpt>
      <trkpt lat="43.23097" lon="5.64169">
        <ele>318.7109375</ele>
        <time>2019-09-21T07:26:31Z</time>
      </trkpt>
      <trkpt lat="43.23108" lon="5.64192">
        <ele>320.48828125</ele>
        <time>2019-09-21T07:26:47Z</time>
      </trkpt>
      <trkpt lat="43.23109" lon="5.64193">
        <ele>320.578125</ele>
        <time>2019-09-21T07:26:48Z</time>
      </trkpt>
      <trkpt lat="43.23121" lon="5.64216">
        <ele>321.79296875</ele>
        <time>2019-09-21T07:27:06Z</time>
      </trkpt>
      <trkpt lat="43.23127" lon="5.64227">
        <ele>322.2734375</ele>
        <time>2019-09-21T07:27:15Z</time>
      </trkpt>
      <trkpt lat="43.23128" lon="5.64228">
        <ele>322.3203125</ele>
        <time>2019-09-21T07:27:16Z</time>
      </trkpt>
      <trkpt lat="43.23129" lon="5.64229">
        <ele>322.40625</ele>
        <time>2019-09-21T07:27:17Z</time>
      </trkpt>
      <trkpt lat="43.23138" lon="5.64246">
        <ele>324.04296875</ele>
        <time>2019-09-21T07:27:31Z</time>
      </trkpt>
      <trkpt lat="43.23139" lon="5.64248">
        <ele>324.25</ele>
        <time>2019-09-21T07:27:32Z</time>
      </trkpt>
      <trkpt lat="43.23139" lon="5.64249">
        <ele>324.4140625</ele>
        <time>2019-09-21T07:27:33Z</time>
      </trkpt>
      <trkpt lat="43.2314" lon="5.64251">
        <ele>324.61328125</ele>
        <time>2019-09-21T07:27:34Z</time>
      </trkpt>
      <trkpt lat="43.2314" lon="5.64252">
        <ele>324.796875</ele>
        <time>2019-09-21T07:27:35Z</time>
      </trkpt>
      <trkpt lat="43.23141" lon="5.64253">
        <ele>324.953125</ele>
        <time>2019-09-21T07:27:36Z</time>
      </trkpt>
      <trkpt lat="43.23149" lon="5.64285">
        <ele>328.5859375</ele>
        <time>2019-09-21T07:27:55Z</time>
      </trkpt>
      <trkpt lat="43.23155" lon="5.64314">
        <ele>330.5546875</ele>
        <time>2019-09-21T07:28:13Z</time>
      </trkpt>
      <trkpt lat="43.23165" lon="5.64342">
        <ele>331.52734375</ele>
        <time>2019-09-21T07:28:30Z</time>
      </trkpt>
      <trkpt lat="43.23177" lon="5.64364">
        <ele>331.51171875</ele>
        <time>2019-09-21T07:28:45Z</time>
      </trkpt>
      <trkpt lat="43.23189" lon="5.64392">
        <ele>331.765625</ele>
        <time>2019-09-21T07:29:02Z</time>
      </trkpt>
      <trkpt lat="43.23204" lon="5.64423">
        <ele>334.7890625</ele>
        <time>2019-09-21T07:29:19Z</time>
      </trkpt>
      <trkpt lat="43.23223" lon="5.64457">
        <ele>339.06640625</ele>
        <time>2019-09-21T07:29:39Z</time>
      </trkpt>
      <trkpt lat="43.23234" lon="5.64471">
        <ele>341.7421875</ele>
        <time>2019-09-21T07:29:50Z</time>
      </trkpt>
      <trkpt lat="43.2324" lon="5.64489">
        <ele>343.890625</ele>
        <time>2019-09-21T07:30:02Z</time>
      </trkpt>
      <trkpt lat="43.23239" lon="5.64491">
        <ele>343.9375</ele>
        <time>2019-09-21T07:30:03Z</time>
      </trkpt>
      <trkpt lat="43.23239" lon="5.64515">
        <ele>346.02734375</ele>
        <time>2019-09-21T07:30:19Z</time>
      </trkpt>
      <trkpt lat="43.23238" lon="5.64532">
        <ele>347.0703125</ele>
        <time>2019-09-21T07:30:28Z</time>
      </trkpt>
      <trkpt lat="43.23243" lon="5.64553">
        <ele>348.7734375</ele>
        <time>2019-09-21T07:30:41Z</time>
      </trkpt>
      <trkpt lat="43.23244" lon="5.64555">
        <ele>349.02734375</ele>
        <time>2019-09-21T07:30:42Z</time>
      </trkpt>
      <trkpt lat="43.23245" lon="5.64556">
        <ele>349.29296875</ele>
        <time>2019-09-21T07:30:43Z</time>
      </trkpt>
      <trkpt lat="43.23248" lon="5.64557">
        <ele>349.84375</ele>
        <time>2019-09-21T07:30:45Z</time>
      </trkpt>
      <trkpt lat="43.23249" lon="5.64558">
        <ele>350.15234375</ele>
        <time>2019-09-21T07:30:46Z</time>
      </trkpt>
      <trkpt lat="43.2325" lon="5.64558">
        <ele>350.46484375</ele>
        <time>2019-09-21T07:30:47Z</time>
      </trkpt>
      <trkpt lat="43.23252" lon="5.64558">
        <ele>350.8046875</ele>
        <time>2019-09-21T07:30:48Z</time>
      </trkpt>
      <trkpt lat="43.23253" lon="5.64558">
        <ele>351.15234375</ele>
        <time>2019-09-21T07:30:49Z</time>
      </trkpt>
      <trkpt lat="43.23255" lon="5.64558">
        <ele>351.484375</ele>
        <time>2019-09-21T07:30:50Z</time>
      </trkpt>
      <trkpt lat="43.23257" lon="5.64558">
        <ele>351.640625</ele>
        <time>2019-09-21T07:30:51Z</time>
      </trkpt>
      <trkpt lat="43.23272" lon="5.64572">
        <ele>354.37890625</ele>
        <time>2019-09-21T07:31:05Z</time>
      </trkpt>
      <trkpt lat="43.23275" lon="5.64581">
        <ele>355.19921875</ele>
        <time>2019-09-21T07:31:11Z</time>
      </trkpt>
      <trkpt lat="43.23276" lon="5.64582">
        <ele>355.41796875</ele>
        <time>2019-09-21T07:31:12Z</time>
      </trkpt>
      <trkpt lat="43.23281" lon="5.64598">
        <ele>357.4609375</ele>
        <time>2019-09-21T07:31:26Z</time>
      </trkpt>
      <trkpt lat="43.23287" lon="5.64612">
        <ele>359.015625</ele>
        <time>2019-09-21T07:31:40Z</time>
      </trkpt>
      <trkpt lat="43.23295" lon="5.64632">
        <ele>361.078125</ele>
        <time>2019-09-21T07:31:55Z</time>
      </trkpt>
      <trkpt lat="43.23304" lon="5.64654">
        <ele>363.609375</ele>
        <time>2019-09-21T07:32:11Z</time>
      </trkpt>
      <trkpt lat="43.23305" lon="5.64656">
        <ele>364.125</ele>
        <time>2019-09-21T07:32:13Z</time>
      </trkpt>
      <trkpt lat="43.23306" lon="5.64657">
        <ele>364.390625</ele>
        <time>2019-09-21T07:32:14Z</time>
      </trkpt>
      <trkpt lat="43.23307" lon="5.64659">
        <ele>364.625</ele>
        <time>2019-09-21T07:32:15Z</time>
      </trkpt>
      <trkpt lat="43.23307" lon="5.6466">
        <ele>364.87109375</ele>
        <time>2019-09-21T07:32:16Z</time>
      </trkpt>
      <trkpt lat="43.2331" lon="5.64666">
        <ele>365.75</ele>
        <time>2019-09-21T07:32:21Z</time>
      </trkpt>
      <trkpt lat="43.2331" lon="5.64667">
        <ele>366.0390625</ele>
        <time>2019-09-21T07:32:22Z</time>
      </trkpt>
      <trkpt lat="43.23311" lon="5.64668">
        <ele>366.20703125</ele>
        <time>2019-09-21T07:32:23Z</time>
      </trkpt>
      <trkpt lat="43.23312" lon="5.6467">
        <ele>366.45703125</ele>
        <time>2019-09-21T07:32:24Z</time>
      </trkpt>
      <trkpt lat="43.23312" lon="5.64671">
        <ele>366.703125</ele>
        <time>2019-09-21T07:32:25Z</time>
      </trkpt>
      <trkpt lat="43.23313" lon="5.64672">
        <ele>366.9140625</ele>
        <time>2019-09-21T07:32:26Z</time>
      </trkpt>
      <trkpt lat="43.23314" lon="5.64674">
        <ele>367.14453125</ele>
        <time>2019-09-21T07:32:27Z</time>
      </trkpt>
      <trkpt lat="43.23318" lon="5.64685">
        <ele>368.73046875</ele>
        <time>2019-09-21T07:32:34Z</time>
      </trkpt>
      <trkpt lat="43.23326" lon="5.64701">
        <ele>370.4375</ele>
        <time>2019-09-21T07:32:47Z</time>
      </trkpt>
      <trkpt lat="43.23329" lon="5.64707">
        <ele>371.20703125</ele>
        <time>2019-09-21T07:32:52Z</time>
      </trkpt>
      <trkpt lat="43.23329" lon="5.64709">
        <ele>371.4296875</ele>
        <time>2019-09-21T07:32:53Z</time>
      </trkpt>
      <trkpt lat="43.2333" lon="5.6471">
        <ele>371.6796875</ele>
        <time>2019-09-21T07:32:54Z</time>
      </trkpt>
      <trkpt lat="43.23331" lon="5.64711">
        <ele>371.92578125</ele>
        <time>2019-09-21T07:32:55Z</time>
      </trkpt>
      <trkpt lat="43.23332" lon="5.64713">
        <ele>372.15234375</ele>
        <time>2019-09-21T07:32:56Z</time>
      </trkpt>
      <trkpt lat="43.23343" lon="5.64735">
        <ele>375.0234375</ele>
        <time>2019-09-21T07:33:12Z</time>
      </trkpt>
      <trkpt lat="43.23356" lon="5.64757">
        <ele>377.8203125</ele>
        <time>2019-09-21T07:33:29Z</time>
      </trkpt>
      <trkpt lat="43.23366" lon="5.64775">
        <ele>380.4375</ele>
        <time>2019-09-21T07:33:43Z</time>
      </trkpt>
      <trkpt lat="43.23366" lon="5.64777">
        <ele>380.43359375</ele>
        <time>2019-09-21T07:33:44Z</time>
      </trkpt>
      <trkpt lat="43.23367" lon="5.64778">
        <ele>380.578125</ele>
        <time>2019-09-21T07:33:45Z</time>
      </trkpt>
      <trkpt lat="43.23374" lon="5.64801">
        <ele>381.22265625</ele>
        <time>2019-09-21T07:33:59Z</time>
      </trkpt>
      <trkpt lat="43.23376" lon="5.64808">
        <ele>381.2109375</ele>
        <time>2019-09-21T07:34:03Z</time>
      </trkpt>
      <trkpt lat="43.23376" lon="5.6481">
        <ele>381.0078125</ele>
        <time>2019-09-21T07:34:04Z</time>
      </trkpt>
      <trkpt lat="43.23376" lon="5.64811">
        <ele>380.93359375</ele>
        <time>2019-09-21T07:34:05Z</time>
      </trkpt>
      <trkpt lat="43.23381" lon="5.64829">
        <ele>380.859375</ele>
        <time>2019-09-21T07:34:16Z</time>
      </trkpt>
      <trkpt lat="43.23388" lon="5.64849">
        <ele>382.16015625</ele>
        <time>2019-09-21T07:34:30Z</time>
      </trkpt>
      <trkpt lat="43.234" lon="5.64869">
        <ele>383.640625</ele>
        <time>2019-09-21T07:34:46Z</time>
      </trkpt>
      <trkpt lat="43.23404" lon="5.64873">
        <ele>384.06640625</ele>
        <time>2019-09-21T07:34:50Z</time>
      </trkpt>
      <trkpt lat="43.23407" lon="5.64877">
        <ele>384.48046875</ele>
        <time>2019-09-21T07:34:54Z</time>
      </trkpt>
      <trkpt lat="43.23408" lon="5.64878">
        <ele>384.62890625</ele>
        <time>2019-09-21T07:34:55Z</time>
      </trkpt>
      <trkpt lat="43.23409" lon="5.64879">
        <ele>384.890625</ele>
        <time>2019-09-21T07:34:56Z</time>
      </trkpt>
      <trkpt lat="43.23425" lon="5.64891">
        <ele>388.69921875</ele>
        <time>2019-09-21T07:35:12Z</time>
      </trkpt>
      <trkpt lat="43.23438" lon="5.649">
        <ele>391.984375</ele>
        <time>2019-09-21T07:35:24Z</time>
      </trkpt>
      <trkpt lat="43.23439" lon="5.64901">
        <ele>392.23828125</ele>
        <time>2019-09-21T07:35:25Z</time>
      </trkpt>
      <trkpt lat="43.2344" lon="5.64902">
        <ele>392.546875</ele>
        <time>2019-09-21T07:35:26Z</time>
      </trkpt>
      <trkpt lat="43.23441" lon="5.64903">
        <ele>392.8046875</ele>
        <time>2019-09-21T07:35:27Z</time>
      </trkpt>
      <trkpt lat="43.23442" lon="5.64904">
        <ele>393.14453125</ele>
        <time>2019-09-21T07:35:28Z</time>
      </trkpt>
      <trkpt lat="43.23444" lon="5.64904">
        <ele>393.48828125</ele>
        <time>2019-09-21T07:35:29Z</time>
      </trkpt>
      <trkpt lat="43.23445" lon="5.64905">
        <ele>393.84765625</ele>
        <time>2019-09-21T07:35:30Z</time>
      </trkpt>
      <trkpt lat="43.23452" lon="5.64929">
        <ele>395.625</ele>
        <time>2019-09-21T07:35:46Z</time>
      </trkpt>
      <trkpt lat="43.23443" lon="5.64953">
        <ele>393.57421875</ele>
        <time>2019-09-21T07:36:00Z</time>
      </trkpt>
      <trkpt lat="43.23442" lon="5.64955">
        <ele>393.421875</ele>
        <time>2019-09-21T07:36:01Z</time>
      </trkpt>
      <trkpt lat="43.23441" lon="5.64957">
        <ele>393.31640625</ele>
        <time>2019-09-21T07:36:02Z</time>
      </trkpt>
      <trkpt lat="43.23441" lon="5.64958">
        <ele>393.30859375</ele>
        <time>2019-09-21T07:36:03Z</time>
      </trkpt>
      <trkpt lat="43.23441" lon="5.64959">
        <ele>393.328125</ele>
        <time>2019-09-21T07:36:04Z</time>
      </trkpt>
      <trkpt lat="43.23443" lon="5.64973">
        <ele>393.53515625</ele>
        <time>2019-09-21T07:36:13Z</time>
      </trkpt>
      <trkpt lat="43.23444" lon="5.64975">
        <ele>393.83984375</ele>
        <time>2019-09-21T07:36:15Z</time>
      </trkpt>
      <trkpt lat="43.23444" lon="5.64976">
        <ele>393.8984375</ele>
        <time>2019-09-21T07:36:16Z</time>
      </trkpt>
      <trkpt lat="43.23445" lon="5.64978">
        <ele>394.02734375</ele>
        <time>2019-09-21T07:36:17Z</time>
      </trkpt>
      <trkpt lat="43.23445" lon="5.64979">
        <ele>394.17578125</ele>
        <time>2019-09-21T07:36:18Z</time>
      </trkpt>
      <trkpt lat="43.23446" lon="5.64981">
        <ele>394.30859375</ele>
        <time>2019-09-21T07:36:19Z</time>
      </trkpt>
      <trkpt lat="43.23447" lon="5.64985">
        <ele>394.625</ele>
        <time>2019-09-21T07:36:22Z</time>
      </trkpt>
      <trkpt lat="43.23456" lon="5.65005">
        <ele>396.33203125</ele>
        <time>2019-09-21T07:36:37Z</time>
      </trkpt>
      <trkpt lat="43.2346" lon="5.65012">
        <ele>396.97265625</ele>
        <time>2019-09-21T07:36:43Z</time>
      </trkpt>
      <trkpt lat="43.23461" lon="5.65014">
        <ele>397.078125</ele>
        <time>2019-09-21T07:36:44Z</time>
      </trkpt>
      <trkpt lat="43.23462" lon="5.65015">
        <ele>397.24609375</ele>
        <time>2019-09-21T07:36:45Z</time>
      </trkpt>
      <trkpt lat="43.23471" lon="5.65034">
        <ele>398.1875</ele>
        <time>2019-09-21T07:37:00Z</time>
      </trkpt>
      <trkpt lat="43.23481" lon="5.65053">
        <ele>399.50390625</ele>
        <time>2019-09-21T07:37:14Z</time>
      </trkpt>
      <trkpt lat="43.23492" lon="5.6507">
        <ele>401.6015625</ele>
        <time>2019-09-21T07:37:30Z</time>
      </trkpt>
      <trkpt lat="43.23498" lon="5.65077">
        <ele>402.41796875</ele>
        <time>2019-09-21T07:37:37Z</time>
      </trkpt>
      <trkpt lat="43.23499" lon="5.65078">
        <ele>402.515625</ele>
        <time>2019-09-21T07:37:38Z</time>
      </trkpt>
      <trkpt lat="43.23499" lon="5.65079">
        <ele>402.546875</ele>
        <time>2019-09-21T07:37:39Z</time>
      </trkpt>
      <trkpt lat="43.235" lon="5.6508">
        <ele>402.52734375</ele>
        <time>2019-09-21T07:37:40Z</time>
      </trkpt>
      <trkpt lat="43.23501" lon="5.65081">
        <ele>402.640625</ele>
        <time>2019-09-21T07:37:41Z</time>
      </trkpt>
      <trkpt lat="43.23502" lon="5.65082">
        <ele>402.7265625</ele>
        <time>2019-09-21T07:37:42Z</time>
      </trkpt>
      <trkpt lat="43.23503" lon="5.65085">
        <ele>402.71484375</ele>
        <time>2019-09-21T07:37:44Z</time>
      </trkpt>
      <trkpt lat="43.23503" lon="5.65086">
        <ele>402.6328125</ele>
        <time>2019-09-21T07:37:45Z</time>
      </trkpt>
      <trkpt lat="43.23504" lon="5.65087">
        <ele>402.6640625</ele>
        <time>2019-09-21T07:37:46Z</time>
      </trkpt>
      <trkpt lat="43.23505" lon="5.65089">
        <ele>402.75</ele>
        <time>2019-09-21T07:37:47Z</time>
      </trkpt>
      <trkpt lat="43.23506" lon="5.6509">
        <ele>402.8984375</ele>
        <time>2019-09-21T07:37:48Z</time>
      </trkpt>
      <trkpt lat="43.23507" lon="5.65091">
        <ele>402.9765625</ele>
        <time>2019-09-21T07:37:49Z</time>
      </trkpt>
      <trkpt lat="43.23508" lon="5.65092">
        <ele>403.0078125</ele>
        <time>2019-09-21T07:37:50Z</time>
      </trkpt>
      <trkpt lat="43.23516" lon="5.65103">
        <ele>403.96875</ele>
        <time>2019-09-21T07:38:00Z</time>
      </trkpt>
      <trkpt lat="43.23517" lon="5.65104">
        <ele>404.25</ele>
        <time>2019-09-21T07:38:01Z</time>
      </trkpt>
      <trkpt lat="43.23518" lon="5.65105">
        <ele>404.3984375</ele>
        <time>2019-09-21T07:38:02Z</time>
      </trkpt>
      <trkpt lat="43.23519" lon="5.65106">
        <ele>404.4609375</ele>
        <time>2019-09-21T07:38:03Z</time>
      </trkpt>
      <trkpt lat="43.23519" lon="5.65107">
        <ele>404.51171875</ele>
        <time>2019-09-21T07:38:04Z</time>
      </trkpt>
      <trkpt lat="43.2352" lon="5.65108">
        <ele>404.5859375</ele>
        <time>2019-09-21T07:38:05Z</time>
      </trkpt>
      <trkpt lat="43.23523" lon="5.65112">
        <ele>405.0234375</ele>
        <time>2019-09-21T07:38:08Z</time>
      </trkpt>
      <trkpt lat="43.23524" lon="5.65114">
        <ele>405.0625</ele>
        <time>2019-09-21T07:38:09Z</time>
      </trkpt>
      <trkpt lat="43.23529" lon="5.65121">
        <ele>405.72265625</ele>
        <time>2019-09-21T07:38:16Z</time>
      </trkpt>
      <trkpt lat="43.23529" lon="5.65123">
        <ele>405.7109375</ele>
        <time>2019-09-21T07:38:17Z</time>
      </trkpt>
      <trkpt lat="43.2353" lon="5.65124">
        <ele>405.67578125</ele>
        <time>2019-09-21T07:38:18Z</time>
      </trkpt>
      <trkpt lat="43.23535" lon="5.65133">
        <ele>405.640625</ele>
        <time>2019-09-21T07:38:25Z</time>
      </trkpt>
      <trkpt lat="43.23536" lon="5.65134">
        <ele>405.7578125</ele>
        <time>2019-09-21T07:38:26Z</time>
      </trkpt>
      <trkpt lat="43.2354" lon="5.65137">
        <ele>406.078125</ele>
        <time>2019-09-21T07:38:30Z</time>
      </trkpt>
      <trkpt lat="43.23541" lon="5.65137">
        <ele>406.13671875</ele>
        <time>2019-09-21T07:38:31Z</time>
      </trkpt>
      <trkpt lat="43.23543" lon="5.65138">
        <ele>406.265625</ele>
        <time>2019-09-21T07:38:32Z</time>
      </trkpt>
      <trkpt lat="43.23556" lon="5.65141">
        <ele>408.33984375</ele>
        <time>2019-09-21T07:38:47Z</time>
      </trkpt>
      <trkpt lat="43.2356" lon="5.6514">
        <ele>409.125</ele>
        <time>2019-09-21T07:38:51Z</time>
      </trkpt>
      <trkpt lat="43.23561" lon="5.65139">
        <ele>409.40234375</ele>
        <time>2019-09-21T07:38:52Z</time>
      </trkpt>
      <trkpt lat="43.23566" lon="5.65139">
        <ele>410.6484375</ele>
        <time>2019-09-21T07:38:57Z</time>
      </trkpt>
      <trkpt lat="43.23578" lon="5.65132">
        <ele>413.7109375</ele>
        <time>2019-09-21T07:39:11Z</time>
      </trkpt>
      <trkpt lat="43.23582" lon="5.65132">
        <ele>414.5078125</ele>
        <time>2019-09-21T07:39:14Z</time>
      </trkpt>
      <trkpt lat="43.23597" lon="5.65127">
        <ele>418.35546875</ele>
        <time>2019-09-21T07:39:28Z</time>
      </trkpt>
      <trkpt lat="43.23603" lon="5.65128">
        <ele>419.77734375</ele>
        <time>2019-09-21T07:39:33Z</time>
      </trkpt>
      <trkpt lat="43.23611" lon="5.65153">
        <ele>421.625</ele>
        <time>2019-09-21T07:39:50Z</time>
      </trkpt>
      <trkpt lat="43.23612" lon="5.65164">
        <ele>422.01171875</ele>
        <time>2019-09-21T07:39:57Z</time>
      </trkpt>
      <trkpt lat="43.23613" lon="5.65166">
        <ele>422.14453125</ele>
        <time>2019-09-21T07:39:58Z</time>
      </trkpt>
      <trkpt lat="43.23615" lon="5.65188">
        <ele>422.91015625</ele>
        <time>2019-09-21T07:40:13Z</time>
      </trkpt>
      <trkpt lat="43.23616" lon="5.6519">
        <ele>422.98828125</ele>
        <time>2019-09-21T07:40:14Z</time>
      </trkpt>
      <trkpt lat="43.23616" lon="5.65192">
        <ele>422.984375</ele>
        <time>2019-09-21T07:40:15Z</time>
      </trkpt>
      <trkpt lat="43.23618" lon="5.65211">
        <ele>423.52734375</ele>
        <time>2019-09-21T07:40:28Z</time>
      </trkpt>
      <trkpt lat="43.23621" lon="5.65236">
        <ele>424.94140625</ele>
        <time>2019-09-21T07:40:44Z</time>
      </trkpt>
      <trkpt lat="43.23623" lon="5.65262">
        <ele>426.22265625</ele>
        <time>2019-09-21T07:41:01Z</time>
      </trkpt>
      <trkpt lat="43.23626" lon="5.65298">
        <ele>427.6171875</ele>
        <time>2019-09-21T07:41:20Z</time>
      </trkpt>
      <trkpt lat="43.23627" lon="5.65324">
        <ele>428.2734375</ele>
        <time>2019-09-21T07:41:35Z</time>
      </trkpt>
      <trkpt lat="43.23631" lon="5.65357">
        <ele>428.41015625</ele>
        <time>2019-09-21T07:41:52Z</time>
      </trkpt>
      <trkpt lat="43.23638" lon="5.6538">
        <ele>428.30859375</ele>
        <time>2019-09-21T07:42:03Z</time>
      </trkpt>
      <trkpt lat="43.2364" lon="5.65382">
        <ele>428.36328125</ele>
        <time>2019-09-21T07:42:04Z</time>
      </trkpt>
      <trkpt lat="43.23642" lon="5.65383">
        <ele>428.421875</ele>
        <time>2019-09-21T07:42:05Z</time>
      </trkpt>
      <trkpt lat="43.23643" lon="5.65384">
        <ele>428.4921875</ele>
        <time>2019-09-21T07:42:06Z</time>
      </trkpt>
      <trkpt lat="43.23645" lon="5.65385">
        <ele>428.49609375</ele>
        <time>2019-09-21T07:42:07Z</time>
      </trkpt>
      <trkpt lat="43.23646" lon="5.65386">
        <ele>428.5234375</ele>
        <time>2019-09-21T07:42:08Z</time>
      </trkpt>
      <trkpt lat="43.23648" lon="5.65387">
        <ele>428.578125</ele>
        <time>2019-09-21T07:42:09Z</time>
      </trkpt>
      <trkpt lat="43.23671" lon="5.65394">
        <ele>429.41796875</ele>
        <time>2019-09-21T07:42:25Z</time>
      </trkpt>
      <trkpt lat="43.23685" lon="5.65397">
        <ele>429.29296875</ele>
        <time>2019-09-21T07:42:35Z</time>
      </trkpt>
      <trkpt lat="43.23687" lon="5.65398">
        <ele>429.26953125</ele>
        <time>2019-09-21T07:42:37Z</time>
      </trkpt>
      <trkpt lat="43.23693" lon="5.65399">
        <ele>429.2265625</ele>
        <time>2019-09-21T07:42:42Z</time>
      </trkpt>
      <trkpt lat="43.23694" lon="5.65398">
        <ele>429.2578125</ele>
        <time>2019-09-21T07:42:43Z</time>
      </trkpt>
      <trkpt lat="43.23695" lon="5.65397">
        <ele>429.296875</ele>
        <time>2019-09-21T07:42:44Z</time>
      </trkpt>
      <trkpt lat="43.23696" lon="5.65396">
        <ele>429.3515625</ele>
        <time>2019-09-21T07:42:45Z</time>
      </trkpt>
      <trkpt lat="43.23697" lon="5.65394">
        <ele>429.42578125</ele>
        <time>2019-09-21T07:42:46Z</time>
      </trkpt>
      <trkpt lat="43.23697" lon="5.65392">
        <ele>429.48828125</ele>
        <time>2019-09-21T07:42:47Z</time>
      </trkpt>
      <trkpt lat="43.23697" lon="5.6539">
        <ele>429.5546875</ele>
        <time>2019-09-21T07:42:48Z</time>
      </trkpt>
      <trkpt lat="43.23701" lon="5.6536">
        <ele>431.23046875</ele>
        <time>2019-09-21T07:43:03Z</time>
      </trkpt>
      <trkpt lat="43.23703" lon="5.65348">
        <ele>431.921875</ele>
        <time>2019-09-21T07:43:09Z</time>
      </trkpt>
      <trkpt lat="43.23707" lon="5.65322">
        <ele>433.015625</ele>
        <time>2019-09-21T07:43:23Z</time>
      </trkpt>
      <trkpt lat="43.23715" lon="5.65297">
        <ele>433.91015625</ele>
        <time>2019-09-21T07:43:36Z</time>
      </trkpt>
      <trkpt lat="43.23716" lon="5.65295">
        <ele>433.96875</ele>
        <time>2019-09-21T07:43:37Z</time>
      </trkpt>
      <trkpt lat="43.23717" lon="5.65293">
        <ele>434.04296875</ele>
        <time>2019-09-21T07:43:38Z</time>
      </trkpt>
      <trkpt lat="43.23722" lon="5.65269">
        <ele>434.8984375</ele>
        <time>2019-09-21T07:43:51Z</time>
      </trkpt>
      <trkpt lat="43.23727" lon="5.65244">
        <ele>435.7890625</ele>
        <time>2019-09-21T07:44:04Z</time>
      </trkpt>
      <trkpt lat="43.2373" lon="5.65233">
        <ele>435.99609375</ele>
        <time>2019-09-21T07:44:10Z</time>
      </trkpt>
      <trkpt lat="43.2373" lon="5.65231">
        <ele>436.01171875</ele>
        <time>2019-09-21T07:44:11Z</time>
      </trkpt>
      <trkpt lat="43.23731" lon="5.6523">
        <ele>436.02734375</ele>
        <time>2019-09-21T07:44:12Z</time>
      </trkpt>
      <trkpt lat="43.23732" lon="5.65228">
        <ele>436.03515625</ele>
        <time>2019-09-21T07:44:13Z</time>
      </trkpt>
      <trkpt lat="43.23732" lon="5.65226">
        <ele>436.0703125</ele>
        <time>2019-09-21T07:44:14Z</time>
      </trkpt>
      <trkpt lat="43.23733" lon="5.65224">
        <ele>436.0859375</ele>
        <time>2019-09-21T07:44:15Z</time>
      </trkpt>
      <trkpt lat="43.23734" lon="5.65223">
        <ele>436.0859375</ele>
        <time>2019-09-21T07:44:16Z</time>
      </trkpt>
      <trkpt lat="43.23735" lon="5.65221">
        <ele>436.05859375</ele>
        <time>2019-09-21T07:44:17Z</time>
      </trkpt>
      <trkpt lat="43.23739" lon="5.65214">
        <ele>436.03515625</ele>
        <time>2019-09-21T07:44:21Z</time>
      </trkpt>
      <trkpt lat="43.2374" lon="5.65212">
        <ele>436.03515625</ele>
        <time>2019-09-21T07:44:22Z</time>
      </trkpt>
      <trkpt lat="43.23741" lon="5.6521">
        <ele>436.04296875</ele>
        <time>2019-09-21T07:44:23Z</time>
      </trkpt>
      <trkpt lat="43.23742" lon="5.65209">
        <ele>436.05859375</ele>
        <time>2019-09-21T07:44:24Z</time>
      </trkpt>
      <trkpt lat="43.23742" lon="5.65207">
        <ele>436.10546875</ele>
        <time>2019-09-21T07:44:25Z</time>
      </trkpt>
      <trkpt lat="43.23743" lon="5.65205">
        <ele>436.15234375</ele>
        <time>2019-09-21T07:44:26Z</time>
      </trkpt>
      <trkpt lat="43.23744" lon="5.65203">
        <ele>436.2109375</ele>
        <time>2019-09-21T07:44:27Z</time>
      </trkpt>
      <trkpt lat="43.23755" lon="5.65172">
        <ele>437.83203125</ele>
        <time>2019-09-21T07:44:43Z</time>
      </trkpt>
      <trkpt lat="43.23764" lon="5.6514">
        <ele>439.5625</ele>
        <time>2019-09-21T07:44:58Z</time>
      </trkpt>
      <trkpt lat="43.23772" lon="5.65108">
        <ele>440.703125</ele>
        <time>2019-09-21T07:45:13Z</time>
      </trkpt>
      <trkpt lat="43.23781" lon="5.65077">
        <ele>441.8125</ele>
        <time>2019-09-21T07:45:29Z</time>
      </trkpt>
      <trkpt lat="43.23784" lon="5.65073">
        <ele>442.046875</ele>
        <time>2019-09-21T07:45:32Z</time>
      </trkpt>
      <trkpt lat="43.23784" lon="5.6507">
        <ele>442.15625</ele>
        <time>2019-09-21T07:45:33Z</time>
      </trkpt>
      <trkpt lat="43.23785" lon="5.65068">
        <ele>442.2578125</ele>
        <time>2019-09-21T07:45:34Z</time>
      </trkpt>
      <trkpt lat="43.23785" lon="5.65065">
        <ele>442.3828125</ele>
        <time>2019-09-21T07:45:35Z</time>
      </trkpt>
      <trkpt lat="43.23786" lon="5.65064">
        <ele>442.453125</ele>
        <time>2019-09-21T07:45:36Z</time>
      </trkpt>
      <trkpt lat="43.23788" lon="5.6503">
        <ele>444.0625</ele>
        <time>2019-09-21T07:45:50Z</time>
      </trkpt>
      <trkpt lat="43.2379" lon="5.64996">
        <ele>446.34765625</ele>
        <time>2019-09-21T07:46:07Z</time>
      </trkpt>
      <trkpt lat="43.23792" lon="5.64985">
        <ele>447.43359375</ele>
        <time>2019-09-21T07:46:13Z</time>
      </trkpt>
      <trkpt lat="43.23792" lon="5.64983">
        <ele>447.640625</ele>
        <time>2019-09-21T07:46:14Z</time>
      </trkpt>
      <trkpt lat="43.23795" lon="5.64954">
        <ele>450.3671875</ele>
        <time>2019-09-21T07:46:28Z</time>
      </trkpt>
      <trkpt lat="43.23797" lon="5.6494">
        <ele>451.19921875</ele>
        <time>2019-09-21T07:46:35Z</time>
      </trkpt>
      <trkpt lat="43.23804" lon="5.64914">
        <ele>453.0625</ele>
        <time>2019-09-21T07:46:49Z</time>
      </trkpt>
      <trkpt lat="43.23807" lon="5.6491">
        <ele>453.53125</ele>
        <time>2019-09-21T07:46:52Z</time>
      </trkpt>
      <trkpt lat="43.23809" lon="5.64909">
        <ele>453.7109375</ele>
        <time>2019-09-21T07:46:53Z</time>
      </trkpt>
      <trkpt lat="43.2381" lon="5.64907">
        <ele>453.86328125</ele>
        <time>2019-09-21T07:46:54Z</time>
      </trkpt>
      <trkpt lat="43.2381" lon="5.64906">
        <ele>454.03125</ele>
        <time>2019-09-21T07:46:55Z</time>
      </trkpt>
      <trkpt lat="43.23811" lon="5.64905">
        <ele>454.10546875</ele>
        <time>2019-09-21T07:46:56Z</time>
      </trkpt>
      <trkpt lat="43.23819" lon="5.64879">
        <ele>455.98828125</ele>
        <time>2019-09-21T07:47:11Z</time>
      </trkpt>
      <trkpt lat="43.23822" lon="5.64847">
        <ele>458</ele>
        <time>2019-09-21T07:47:26Z</time>
      </trkpt>
      <trkpt lat="43.23827" lon="5.64814">
        <ele>459.37890625</ele>
        <time>2019-09-21T07:47:41Z</time>
      </trkpt>
      <trkpt lat="43.23828" lon="5.64809">
        <ele>459.640625</ele>
        <time>2019-09-21T07:47:44Z</time>
      </trkpt>
      <trkpt lat="43.23829" lon="5.64807">
        <ele>459.7265625</ele>
        <time>2019-09-21T07:47:45Z</time>
      </trkpt>
      <trkpt lat="43.2383" lon="5.64804">
        <ele>459.89453125</ele>
        <time>2019-09-21T07:47:47Z</time>
      </trkpt>
      <trkpt lat="43.2383" lon="5.64802">
        <ele>459.97265625</ele>
        <time>2019-09-21T07:47:48Z</time>
      </trkpt>
      <trkpt lat="43.2383" lon="5.648">
        <ele>460.07421875</ele>
        <time>2019-09-21T07:47:49Z</time>
      </trkpt>
      <trkpt lat="43.23831" lon="5.64798">
        <ele>460.17578125</ele>
        <time>2019-09-21T07:47:50Z</time>
      </trkpt>
      <trkpt lat="43.23831" lon="5.64796">
        <ele>460.2890625</ele>
        <time>2019-09-21T07:47:51Z</time>
      </trkpt>
      <trkpt lat="43.23832" lon="5.64794">
        <ele>460.38671875</ele>
        <time>2019-09-21T07:47:52Z</time>
      </trkpt>
      <trkpt lat="43.23832" lon="5.64792">
        <ele>460.5</ele>
        <time>2019-09-21T07:47:53Z</time>
      </trkpt>
      <trkpt lat="43.23833" lon="5.6479">
        <ele>460.6328125</ele>
        <time>2019-09-21T07:47:54Z</time>
      </trkpt>
      <trkpt lat="43.23839" lon="5.64778">
        <ele>461.796875</ele>
        <time>2019-09-21T07:48:02Z</time>
      </trkpt>
      <trkpt lat="43.23841" lon="5.64777">
        <ele>462.01953125</ele>
        <time>2019-09-21T07:48:03Z</time>
      </trkpt>
      <trkpt lat="43.23842" lon="5.64776">
        <ele>462.20703125</ele>
        <time>2019-09-21T07:48:04Z</time>
      </trkpt>
      <trkpt lat="43.23843" lon="5.64774">
        <ele>462.41015625</ele>
        <time>2019-09-21T07:48:05Z</time>
      </trkpt>
      <trkpt lat="43.23843" lon="5.64772">
        <ele>462.5703125</ele>
        <time>2019-09-21T07:48:06Z</time>
      </trkpt>
      <trkpt lat="43.23844" lon="5.64771">
        <ele>462.734375</ele>
        <time>2019-09-21T07:48:07Z</time>
      </trkpt>
      <trkpt lat="43.23845" lon="5.64769">
        <ele>462.90625</ele>
        <time>2019-09-21T07:48:08Z</time>
      </trkpt>
      <trkpt lat="43.23846" lon="5.64768">
        <ele>463.09375</ele>
        <time>2019-09-21T07:48:09Z</time>
      </trkpt>
      <trkpt lat="43.23847" lon="5.64766">
        <ele>463.28515625</ele>
        <time>2019-09-21T07:48:10Z</time>
      </trkpt>
      <trkpt lat="43.23848" lon="5.64765">
        <ele>463.4453125</ele>
        <time>2019-09-21T07:48:11Z</time>
      </trkpt>
      <trkpt lat="43.23849" lon="5.64763">
        <ele>463.60546875</ele>
        <time>2019-09-21T07:48:12Z</time>
      </trkpt>
      <trkpt lat="43.23849" lon="5.64761">
        <ele>463.75390625</ele>
        <time>2019-09-21T07:48:13Z</time>
      </trkpt>
      <trkpt lat="43.2385" lon="5.6476">
        <ele>463.91796875</ele>
        <time>2019-09-21T07:48:14Z</time>
      </trkpt>
      <trkpt lat="43.23865" lon="5.64733">
        <ele>466.85546875</ele>
        <time>2019-09-21T07:48:31Z</time>
      </trkpt>
      <trkpt lat="43.23882" lon="5.64711">
        <ele>470.02734375</ele>
        <time>2019-09-21T07:48:47Z</time>
      </trkpt>
      <trkpt lat="43.23899" lon="5.64693">
        <ele>472.40234375</ele>
        <time>2019-09-21T07:49:02Z</time>
      </trkpt>
      <trkpt lat="43.23907" lon="5.64685">
        <ele>473.5234375</ele>
        <time>2019-09-21T07:49:10Z</time>
      </trkpt>
      <trkpt lat="43.23908" lon="5.64684">
        <ele>473.67578125</ele>
        <time>2019-09-21T07:49:11Z</time>
      </trkpt>
      <trkpt lat="43.23909" lon="5.64682">
        <ele>473.77734375</ele>
        <time>2019-09-21T07:49:12Z</time>
      </trkpt>
      <trkpt lat="43.23911" lon="5.6468">
        <ele>473.828125</ele>
        <time>2019-09-21T07:49:13Z</time>
      </trkpt>
      <trkpt lat="43.23912" lon="5.64679">
        <ele>473.90234375</ele>
        <time>2019-09-21T07:49:14Z</time>
      </trkpt>
      <trkpt lat="43.23913" lon="5.64677">
        <ele>474.03515625</ele>
        <time>2019-09-21T07:49:15Z</time>
      </trkpt>
      <trkpt lat="43.23914" lon="5.64676">
        <ele>474.1484375</ele>
        <time>2019-09-21T07:49:16Z</time>
      </trkpt>
      <trkpt lat="43.2393" lon="5.64654">
        <ele>476.21875</ele>
        <time>2019-09-21T07:49:31Z</time>
      </trkpt>
      <trkpt lat="43.23948" lon="5.64634">
        <ele>479.1484375</ele>
        <time>2019-09-21T07:49:47Z</time>
      </trkpt>
      <trkpt lat="43.23964" lon="5.64616">
        <ele>480.62890625</ele>
        <time>2019-09-21T07:50:02Z</time>
      </trkpt>
      <trkpt lat="43.23979" lon="5.64594">
        <ele>482.4140625</ele>
        <time>2019-09-21T07:50:17Z</time>
      </trkpt>
      <trkpt lat="43.2399" lon="5.64584">
        <ele>484.92578125</ele>
        <time>2019-09-21T07:50:28Z</time>
      </trkpt>
      <trkpt lat="43.23991" lon="5.64582">
        <ele>485.1015625</ele>
        <time>2019-09-21T07:50:29Z</time>
      </trkpt>
      <trkpt lat="43.23992" lon="5.64581">
        <ele>485.30859375</ele>
        <time>2019-09-21T07:50:30Z</time>
      </trkpt>
      <trkpt lat="43.23993" lon="5.6458">
        <ele>485.53515625</ele>
        <time>2019-09-21T07:50:31Z</time>
      </trkpt>
      <trkpt lat="43.23994" lon="5.64579">
        <ele>485.74609375</ele>
        <time>2019-09-21T07:50:32Z</time>
      </trkpt>
      <trkpt lat="43.23999" lon="5.64571">
        <ele>486.48046875</ele>
        <time>2019-09-21T07:50:38Z</time>
      </trkpt>
      <trkpt lat="43.24" lon="5.6457">
        <ele>486.55859375</ele>
        <time>2019-09-21T07:50:39Z</time>
      </trkpt>
      <trkpt lat="43.24001" lon="5.64568">
        <ele>486.73046875</ele>
        <time>2019-09-21T07:50:40Z</time>
      </trkpt>
      <trkpt lat="43.24002" lon="5.64567">
        <ele>486.93359375</ele>
        <time>2019-09-21T07:50:41Z</time>
      </trkpt>
      <trkpt lat="43.24003" lon="5.64566">
        <ele>487.0546875</ele>
        <time>2019-09-21T07:50:42Z</time>
      </trkpt>
      <trkpt lat="43.24003" lon="5.64565">
        <ele>487.19140625</ele>
        <time>2019-09-21T07:50:43Z</time>
      </trkpt>
      <trkpt lat="43.24004" lon="5.64564">
        <ele>487.390625</ele>
        <time>2019-09-21T07:50:44Z</time>
      </trkpt>
      <trkpt lat="43.24005" lon="5.64563">
        <ele>487.63671875</ele>
        <time>2019-09-21T07:50:45Z</time>
      </trkpt>
      <trkpt lat="43.24006" lon="5.64562">
        <ele>487.8125</ele>
        <time>2019-09-21T07:50:46Z</time>
      </trkpt>
      <trkpt lat="43.24007" lon="5.6456">
        <ele>487.87109375</ele>
        <time>2019-09-21T07:50:47Z</time>
      </trkpt>
      <trkpt lat="43.24008" lon="5.64559">
        <ele>487.98046875</ele>
        <time>2019-09-21T07:50:48Z</time>
      </trkpt>
      <trkpt lat="43.24009" lon="5.64557">
        <ele>488.12890625</ele>
        <time>2019-09-21T07:50:49Z</time>
      </trkpt>
      <trkpt lat="43.24014" lon="5.64536">
        <ele>488.7890625</ele>
        <time>2019-09-21T07:51:01Z</time>
      </trkpt>
      <trkpt lat="43.24008" lon="5.64508">
        <ele>486.95703125</ele>
        <time>2019-09-21T07:51:13Z</time>
      </trkpt>
      <trkpt lat="43.23995" lon="5.64485">
        <ele>483.8359375</ele>
        <time>2019-09-21T07:51:27Z</time>
      </trkpt>
      <trkpt lat="43.23989" lon="5.64476">
        <ele>483.42578125</ele>
        <time>2019-09-21T07:51:33Z</time>
      </trkpt>
      <trkpt lat="43.23989" lon="5.64474">
        <ele>483.4921875</ele>
        <time>2019-09-21T07:51:34Z</time>
      </trkpt>
      <trkpt lat="43.23988" lon="5.64473">
        <ele>483.5</ele>
        <time>2019-09-21T07:51:35Z</time>
      </trkpt>
      <trkpt lat="43.2398" lon="5.64444">
        <ele>484.75390625</ele>
        <time>2019-09-21T07:51:50Z</time>
      </trkpt>
      <trkpt lat="43.23979" lon="5.64441">
        <ele>484.90234375</ele>
        <time>2019-09-21T07:51:52Z</time>
      </trkpt>
      <trkpt lat="43.23979" lon="5.64439">
        <ele>485.03125</ele>
        <time>2019-09-21T07:51:53Z</time>
      </trkpt>
      <trkpt lat="43.23979" lon="5.64437">
        <ele>485.13671875</ele>
        <time>2019-09-21T07:51:54Z</time>
      </trkpt>
      <trkpt lat="43.2398" lon="5.64402">
        <ele>488.24609375</ele>
        <time>2019-09-21T07:52:12Z</time>
      </trkpt>
      <trkpt lat="43.23979" lon="5.64394">
        <ele>487.828125</ele>
        <time>2019-09-21T07:52:26Z</time>
      </trkpt>
      <trkpt lat="43.23982" lon="5.64394">
        <ele>488.14453125</ele>
        <time>2019-09-21T07:52:47Z</time>
      </trkpt>
      <trkpt lat="43.23983" lon="5.64393">
        <ele>488.21484375</ele>
        <time>2019-09-21T07:53:03Z</time>
      </trkpt>
      <trkpt lat="43.2398" lon="5.6439">
        <ele>487.765625</ele>
        <time>2019-09-21T07:53:13Z</time>
      </trkpt>
      <trkpt lat="43.23979" lon="5.64389">
        <ele>487.625</ele>
        <time>2019-09-21T07:53:14Z</time>
      </trkpt>
      <trkpt lat="43.23978" lon="5.64387">
        <ele>487.49609375</ele>
        <time>2019-09-21T07:53:15Z</time>
      </trkpt>
      <trkpt lat="43.23977" lon="5.64385">
        <ele>487.34765625</ele>
        <time>2019-09-21T07:53:16Z</time>
      </trkpt>
      <trkpt lat="43.23977" lon="5.64384">
        <ele>487.24609375</ele>
        <time>2019-09-21T07:53:17Z</time>
      </trkpt>
      <trkpt lat="43.23977" lon="5.64382">
        <ele>487.16796875</ele>
        <time>2019-09-21T07:53:18Z</time>
      </trkpt>
      <trkpt lat="43.23977" lon="5.64381">
        <ele>487.08984375</ele>
        <time>2019-09-21T07:53:19Z</time>
      </trkpt>
      <trkpt lat="43.23976" lon="5.64379">
        <ele>487.01953125</ele>
        <time>2019-09-21T07:53:20Z</time>
      </trkpt>
      <trkpt lat="43.23976" lon="5.64378">
        <ele>486.984375</ele>
        <time>2019-09-21T07:53:21Z</time>
      </trkpt>
      <trkpt lat="43.23976" lon="5.64376">
        <ele>486.98046875</ele>
        <time>2019-09-21T07:53:22Z</time>
      </trkpt>
      <trkpt lat="43.23976" lon="5.64374">
        <ele>486.98046875</ele>
        <time>2019-09-21T07:53:23Z</time>
      </trkpt>
      <trkpt lat="43.23976" lon="5.64372">
        <ele>486.984375</ele>
        <time>2019-09-21T07:53:24Z</time>
      </trkpt>
      <trkpt lat="43.23976" lon="5.6437">
        <ele>486.99609375</ele>
        <time>2019-09-21T07:53:25Z</time>
      </trkpt>
      <trkpt lat="43.23978" lon="5.64331">
        <ele>485.53125</ele>
        <time>2019-09-21T07:53:41Z</time>
      </trkpt>
      <trkpt lat="43.23978" lon="5.64314">
        <ele>484.05078125</ele>
        <time>2019-09-21T07:53:45Z</time>
      </trkpt>
      <trkpt lat="43.23977" lon="5.64308">
        <ele>483.421875</ele>
        <time>2019-09-21T07:53:46Z</time>
      </trkpt>
      <trkpt lat="43.23962" lon="5.64238">
        <ele>479.04296875</ele>
        <time>2019-09-21T07:53:54Z</time>
      </trkpt>
      <trkpt lat="43.23958" lon="5.64199">
        <ele>478.2734375</ele>
        <time>2019-09-21T07:53:58Z</time>
      </trkpt>
      <trkpt lat="43.23958" lon="5.64189">
        <ele>477.9765625</ele>
        <time>2019-09-21T07:53:59Z</time>
      </trkpt>
      <trkpt lat="43.2396" lon="5.6418">
        <ele>477.63671875</ele>
        <time>2019-09-21T07:54:00Z</time>
      </trkpt>
      <trkpt lat="43.23968" lon="5.64147">
        <ele>477.3515625</ele>
        <time>2019-09-21T07:54:04Z</time>
      </trkpt>
      <trkpt lat="43.23971" lon="5.64141">
        <ele>477.58203125</ele>
        <time>2019-09-21T07:54:05Z</time>
      </trkpt>
      <trkpt lat="43.23974" lon="5.64135">
        <ele>477.76171875</ele>
        <time>2019-09-21T07:54:06Z</time>
      </trkpt>
      <trkpt lat="43.23989" lon="5.64099">
        <ele>478.86328125</ele>
        <time>2019-09-21T07:54:16Z</time>
      </trkpt>
      <trkpt lat="43.24002" lon="5.64068">
        <ele>481.8828125</ele>
        <time>2019-09-21T07:54:28Z</time>
      </trkpt>
      <trkpt lat="43.24014" lon="5.64034">
        <ele>485.296875</ele>
        <time>2019-09-21T07:54:43Z</time>
      </trkpt>
      <trkpt lat="43.24019" lon="5.64007">
        <ele>487.81640625</ele>
        <time>2019-09-21T07:54:54Z</time>
      </trkpt>
      <trkpt lat="43.2402" lon="5.64005">
        <ele>488.0078125</ele>
        <time>2019-09-21T07:54:55Z</time>
      </trkpt>
      <trkpt lat="43.2402" lon="5.64002">
        <ele>488.18359375</ele>
        <time>2019-09-21T07:54:56Z</time>
      </trkpt>
      <trkpt lat="43.24021" lon="5.64">
        <ele>488.30078125</ele>
        <time>2019-09-21T07:54:57Z</time>
      </trkpt>
      <trkpt lat="43.24022" lon="5.63998">
        <ele>488.39453125</ele>
        <time>2019-09-21T07:54:58Z</time>
      </trkpt>
      <trkpt lat="43.24023" lon="5.63996">
        <ele>488.47265625</ele>
        <time>2019-09-21T07:54:59Z</time>
      </trkpt>
      <trkpt lat="43.24023" lon="5.63994">
        <ele>488.56640625</ele>
        <time>2019-09-21T07:55:00Z</time>
      </trkpt>
      <trkpt lat="43.24024" lon="5.63992">
        <ele>488.69140625</ele>
        <time>2019-09-21T07:55:01Z</time>
      </trkpt>
      <trkpt lat="43.24025" lon="5.6397">
        <ele>490.63671875</ele>
        <time>2019-09-21T07:55:13Z</time>
      </trkpt>
      <trkpt lat="43.2403" lon="5.63943">
        <ele>492.53515625</ele>
        <time>2019-09-21T07:55:29Z</time>
      </trkpt>
      <trkpt lat="43.2403" lon="5.6394">
        <ele>492.73828125</ele>
        <time>2019-09-21T07:55:31Z</time>
      </trkpt>
      <trkpt lat="43.2403" lon="5.63938">
        <ele>492.84765625</ele>
        <time>2019-09-21T07:55:32Z</time>
      </trkpt>
      <trkpt lat="43.24033" lon="5.63908">
        <ele>495.75</ele>
        <time>2019-09-21T07:55:48Z</time>
      </trkpt>
      <trkpt lat="43.24035" lon="5.63879">
        <ele>497.90625</ele>
        <time>2019-09-21T07:56:04Z</time>
      </trkpt>
      <trkpt lat="43.2404" lon="5.63852">
        <ele>499.93359375</ele>
        <time>2019-09-21T07:56:18Z</time>
      </trkpt>
      <trkpt lat="43.24046" lon="5.63826">
        <ele>501.78515625</ele>
        <time>2019-09-21T07:56:32Z</time>
      </trkpt>
      <trkpt lat="43.24056" lon="5.63798">
        <ele>504.5625</ele>
        <time>2019-09-21T07:56:47Z</time>
      </trkpt>
      <trkpt lat="43.24068" lon="5.63771">
        <ele>506.7578125</ele>
        <time>2019-09-21T07:57:03Z</time>
      </trkpt>
      <trkpt lat="43.24083" lon="5.63746">
        <ele>508.4140625</ele>
        <time>2019-09-21T07:57:19Z</time>
      </trkpt>
      <trkpt lat="43.24102" lon="5.63732">
        <ele>509.80859375</ele>
        <time>2019-09-21T07:57:34Z</time>
      </trkpt>
      <trkpt lat="43.24108" lon="5.63729">
        <ele>510.1484375</ele>
        <time>2019-09-21T07:57:39Z</time>
      </trkpt>
      <trkpt lat="43.2411" lon="5.63728">
        <ele>510.2109375</ele>
        <time>2019-09-21T07:57:40Z</time>
      </trkpt>
      <trkpt lat="43.24131" lon="5.63713">
        <ele>510.9609375</ele>
        <time>2019-09-21T07:57:55Z</time>
      </trkpt>
      <trkpt lat="43.24151" lon="5.63694">
        <ele>511.4296875</ele>
        <time>2019-09-21T07:58:11Z</time>
      </trkpt>
      <trkpt lat="43.24171" lon="5.63671">
        <ele>512.484375</ele>
        <time>2019-09-21T07:58:26Z</time>
      </trkpt>
      <trkpt lat="43.24206" lon="5.6364">
        <ele>514.1015625</ele>
        <time>2019-09-21T07:58:45Z</time>
      </trkpt>
      <trkpt lat="43.24236" lon="5.63623">
        <ele>515.52734375</ele>
        <time>2019-09-21T07:59:01Z</time>
      </trkpt>
      <trkpt lat="43.24266" lon="5.63597">
        <ele>517.8046875</ele>
        <time>2019-09-21T07:59:15Z</time>
      </trkpt>
      <trkpt lat="43.24301" lon="5.63563">
        <ele>517.2890625</ele>
        <time>2019-09-21T07:59:33Z</time>
      </trkpt>
      <trkpt lat="43.24314" lon="5.63544">
        <ele>515.8828125</ele>
        <time>2019-09-21T07:59:38Z</time>
      </trkpt>
      <trkpt lat="43.24329" lon="5.6352">
        <ele>512.23046875</ele>
        <time>2019-09-21T07:59:42Z</time>
      </trkpt>
      <trkpt lat="43.24331" lon="5.63515">
        <ele>511.61328125</ele>
        <time>2019-09-21T07:59:43Z</time>
      </trkpt>
      <trkpt lat="43.24333" lon="5.63509">
        <ele>510.99609375</ele>
        <time>2019-09-21T07:59:44Z</time>
      </trkpt>
      <trkpt lat="43.24333" lon="5.63503">
        <ele>510.46484375</ele>
        <time>2019-09-21T07:59:45Z</time>
      </trkpt>
      <trkpt lat="43.24333" lon="5.63497">
        <ele>509.99609375</ele>
        <time>2019-09-21T07:59:46Z</time>
      </trkpt>
      <trkpt lat="43.24334" lon="5.63492">
        <ele>509.4765625</ele>
        <time>2019-09-21T07:59:47Z</time>
      </trkpt>
      <trkpt lat="43.24335" lon="5.63487">
        <ele>508.8359375</ele>
        <time>2019-09-21T07:59:48Z</time>
      </trkpt>
      <trkpt lat="43.24334" lon="5.63482">
        <ele>508.19921875</ele>
        <time>2019-09-21T07:59:49Z</time>
      </trkpt>
      <trkpt lat="43.24333" lon="5.63475">
        <ele>507.3828125</ele>
        <time>2019-09-21T07:59:50Z</time>
      </trkpt>
      <trkpt lat="43.24329" lon="5.63457">
        <ele>504.984375</ele>
        <time>2019-09-21T07:59:52Z</time>
      </trkpt>
      <trkpt lat="43.24326" lon="5.63449">
        <ele>503.83984375</ele>
        <time>2019-09-21T07:59:53Z</time>
      </trkpt>
      <trkpt lat="43.24322" lon="5.63442">
        <ele>502.96484375</ele>
        <time>2019-09-21T07:59:54Z</time>
      </trkpt>
      <trkpt lat="43.24315" lon="5.63426">
        <ele>500.9140625</ele>
        <time>2019-09-21T07:59:56Z</time>
      </trkpt>
      <trkpt lat="43.24313" lon="5.63417">
        <ele>499.5390625</ele>
        <time>2019-09-21T07:59:57Z</time>
      </trkpt>
      <trkpt lat="43.24304" lon="5.63374">
        <ele>493.12890625</ele>
        <time>2019-09-21T08:00:01Z</time>
      </trkpt>
      <trkpt lat="43.24302" lon="5.63362">
        <ele>491.5390625</ele>
        <time>2019-09-21T08:00:02Z</time>
      </trkpt>
      <trkpt lat="43.24302" lon="5.63348">
        <ele>489.84765625</ele>
        <time>2019-09-21T08:00:03Z</time>
      </trkpt>
      <trkpt lat="43.243" lon="5.6332">
        <ele>487.46484375</ele>
        <time>2019-09-21T08:00:05Z</time>
      </trkpt>
      <trkpt lat="43.24299" lon="5.63307">
        <ele>486.77734375</ele>
        <time>2019-09-21T08:00:06Z</time>
      </trkpt>
      <trkpt lat="43.24296" lon="5.63293">
        <ele>486.484375</ele>
        <time>2019-09-21T08:00:07Z</time>
      </trkpt>
      <trkpt lat="43.24292" lon="5.6328">
        <ele>486.875</ele>
        <time>2019-09-21T08:00:08Z</time>
      </trkpt>
      <trkpt lat="43.24277" lon="5.63242">
        <ele>486.70703125</ele>
        <time>2019-09-21T08:00:11Z</time>
      </trkpt>
      <trkpt lat="43.24262" lon="5.63204">
        <ele>484.9609375</ele>
        <time>2019-09-21T08:00:14Z</time>
      </trkpt>
      <trkpt lat="43.24258" lon="5.63191">
        <ele>484.3671875</ele>
        <time>2019-09-21T08:00:15Z</time>
      </trkpt>
      <trkpt lat="43.24244" lon="5.63124">
        <ele>479.2734375</ele>
        <time>2019-09-21T08:00:20Z</time>
      </trkpt>
      <trkpt lat="43.24235" lon="5.6308">
        <ele>474.12109375</ele>
        <time>2019-09-21T08:00:24Z</time>
      </trkpt>
      <trkpt lat="43.24235" lon="5.63069">
        <ele>472.875</ele>
        <time>2019-09-21T08:00:26Z</time>
      </trkpt>
      <trkpt lat="43.24235" lon="5.63024">
        <ele>468.56640625</ele>
        <time>2019-09-21T08:00:33Z</time>
      </trkpt>
      <trkpt lat="43.24244" lon="5.63001">
        <ele>465.90625</ele>
        <time>2019-09-21T08:00:38Z</time>
      </trkpt>
      <trkpt lat="43.24246" lon="5.62996">
        <ele>465.33984375</ele>
        <time>2019-09-21T08:00:39Z</time>
      </trkpt>
      <trkpt lat="43.24247" lon="5.62991">
        <ele>464.79296875</ele>
        <time>2019-09-21T08:00:40Z</time>
      </trkpt>
      <trkpt lat="43.24248" lon="5.62985">
        <ele>464.2109375</ele>
        <time>2019-09-21T08:00:41Z</time>
      </trkpt>
      <trkpt lat="43.2425" lon="5.62979">
        <ele>463.60546875</ele>
        <time>2019-09-21T08:00:42Z</time>
      </trkpt>
      <trkpt lat="43.24252" lon="5.62973">
        <ele>462.93359375</ele>
        <time>2019-09-21T08:00:43Z</time>
      </trkpt>
      <trkpt lat="43.24256" lon="5.62967">
        <ele>462.11328125</ele>
        <time>2019-09-21T08:00:44Z</time>
      </trkpt>
      <trkpt lat="43.24262" lon="5.62952">
        <ele>459.68359375</ele>
        <time>2019-09-21T08:00:46Z</time>
      </trkpt>
      <trkpt lat="43.24264" lon="5.62943">
        <ele>458.53125</ele>
        <time>2019-09-21T08:00:47Z</time>
      </trkpt>
      <trkpt lat="43.24264" lon="5.62935">
        <ele>457.65625</ele>
        <time>2019-09-21T08:00:48Z</time>
      </trkpt>
      <trkpt lat="43.24264" lon="5.62928">
        <ele>457.46484375</ele>
        <time>2019-09-21T08:00:49Z</time>
      </trkpt>
      <trkpt lat="43.24264" lon="5.62921">
        <ele>457.25</ele>
        <time>2019-09-21T08:00:50Z</time>
      </trkpt>
      <trkpt lat="43.24265" lon="5.62914">
        <ele>457.0078125</ele>
        <time>2019-09-21T08:00:51Z</time>
      </trkpt>
      <trkpt lat="43.24266" lon="5.62907">
        <ele>456.76953125</ele>
        <time>2019-09-21T08:00:52Z</time>
      </trkpt>
      <trkpt lat="43.24267" lon="5.629">
        <ele>456.6171875</ele>
        <time>2019-09-21T08:00:53Z</time>
      </trkpt>
      <trkpt lat="43.24275" lon="5.62869">
        <ele>455.89453125</ele>
        <time>2019-09-21T08:00:57Z</time>
      </trkpt>
      <trkpt lat="43.24284" lon="5.62834">
        <ele>455.91796875</ele>
        <time>2019-09-21T08:01:01Z</time>
      </trkpt>
      <trkpt lat="43.24284" lon="5.62824">
        <ele>456.3671875</ele>
        <time>2019-09-21T08:01:02Z</time>
      </trkpt>
      <trkpt lat="43.24282" lon="5.62815">
        <ele>456.8984375</ele>
        <time>2019-09-21T08:01:03Z</time>
      </trkpt>
      <trkpt lat="43.2428" lon="5.62807">
        <ele>457.08203125</ele>
        <time>2019-09-21T08:01:04Z</time>
      </trkpt>
      <trkpt lat="43.24276" lon="5.628">
        <ele>457.2109375</ele>
        <time>2019-09-21T08:01:05Z</time>
      </trkpt>
      <trkpt lat="43.24272" lon="5.62794">
        <ele>457.359375</ele>
        <time>2019-09-21T08:01:06Z</time>
      </trkpt>
      <trkpt lat="43.24268" lon="5.62789">
        <ele>457.5078125</ele>
        <time>2019-09-21T08:01:07Z</time>
      </trkpt>
      <trkpt lat="43.24263" lon="5.62784">
        <ele>457.67578125</ele>
        <time>2019-09-21T08:01:08Z</time>
      </trkpt>
      <trkpt lat="43.24249" lon="5.62763">
        <ele>457.859375</ele>
        <time>2019-09-21T08:01:11Z</time>
      </trkpt>
      <trkpt lat="43.24221" lon="5.6271">
        <ele>458.3828125</ele>
        <time>2019-09-21T08:01:17Z</time>
      </trkpt>
      <trkpt lat="43.24183" lon="5.62653">
        <ele>455.28515625</ele>
        <time>2019-09-21T08:01:23Z</time>
      </trkpt>
      <trkpt lat="43.2417" lon="5.62618">
        <ele>453.1484375</ele>
        <time>2019-09-21T08:01:26Z</time>
      </trkpt>
      <trkpt lat="43.24167" lon="5.62606">
        <ele>452.140625</ele>
        <time>2019-09-21T08:01:27Z</time>
      </trkpt>
      <trkpt lat="43.24166" lon="5.62592">
        <ele>450.828125</ele>
        <time>2019-09-21T08:01:28Z</time>
      </trkpt>
      <trkpt lat="43.24166" lon="5.62579">
        <ele>449.3828125</ele>
        <time>2019-09-21T08:01:29Z</time>
      </trkpt>
      <trkpt lat="43.24167" lon="5.62565">
        <ele>447.91796875</ele>
        <time>2019-09-21T08:01:30Z</time>
      </trkpt>
      <trkpt lat="43.24166" lon="5.62552">
        <ele>446.41796875</ele>
        <time>2019-09-21T08:01:31Z</time>
      </trkpt>
      <trkpt lat="43.24165" lon="5.62538">
        <ele>444.98828125</ele>
        <time>2019-09-21T08:01:32Z</time>
      </trkpt>
      <trkpt lat="43.24165" lon="5.62513">
        <ele>442.51171875</ele>
        <time>2019-09-21T08:01:34Z</time>
      </trkpt>
      <trkpt lat="43.24166" lon="5.62502">
        <ele>441.421875</ele>
        <time>2019-09-21T08:01:35Z</time>
      </trkpt>
      <trkpt lat="43.24168" lon="5.6249">
        <ele>440.23046875</ele>
        <time>2019-09-21T08:01:36Z</time>
      </trkpt>
      <trkpt lat="43.24172" lon="5.62462">
        <ele>437.7734375</ele>
        <time>2019-09-21T08:01:39Z</time>
      </trkpt>
      <trkpt lat="43.24171" lon="5.62457">
        <ele>437.91015625</ele>
        <time>2019-09-21T08:01:40Z</time>
      </trkpt>
      <trkpt lat="43.24169" lon="5.62453">
        <ele>438.2578125</ele>
        <time>2019-09-21T08:01:41Z</time>
      </trkpt>
      <trkpt lat="43.24166" lon="5.62451">
        <ele>438.74609375</ele>
        <time>2019-09-21T08:01:42Z</time>
      </trkpt>
      <trkpt lat="43.24162" lon="5.62451">
        <ele>439.20703125</ele>
        <time>2019-09-21T08:01:43Z</time>
      </trkpt>
      <trkpt lat="43.24158" lon="5.62451">
        <ele>439.875</ele>
        <time>2019-09-21T08:01:51Z</time>
      </trkpt>
      <trkpt lat="43.24158" lon="5.6245">
        <ele>439.92578125</ele>
        <time>2019-09-21T08:02:16Z</time>
      </trkpt>
      <trkpt lat="43.24157" lon="5.62448">
        <ele>439.98046875</ele>
        <time>2019-09-21T08:03:02Z</time>
      </trkpt>
      <trkpt lat="43.24156" lon="5.6245">
        <ele>440.1484375</ele>
        <time>2019-09-21T08:03:56Z</time>
      </trkpt>
      <trkpt lat="43.24157" lon="5.62448">
        <ele>439.95703125</ele>
        <time>2019-09-21T08:04:34Z</time>
      </trkpt>
      <trkpt lat="43.24157" lon="5.62446">
        <ele>439.9296875</ele>
        <time>2019-09-21T08:05:00Z</time>
      </trkpt>
      <trkpt lat="43.24156" lon="5.62445">
        <ele>440.125</ele>
        <time>2019-09-21T08:05:01Z</time>
      </trkpt>
      <trkpt lat="43.24154" lon="5.62444">
        <ele>440.37890625</ele>
        <time>2019-09-21T08:05:02Z</time>
      </trkpt>
      <trkpt lat="43.24152" lon="5.62443">
        <ele>440.69140625</ele>
        <time>2019-09-21T08:05:03Z</time>
      </trkpt>
      <trkpt lat="43.2415" lon="5.62442">
        <ele>441.05859375</ele>
        <time>2019-09-21T08:05:04Z</time>
      </trkpt>
      <trkpt lat="43.24147" lon="5.62441">
        <ele>441.5078125</ele>
        <time>2019-09-21T08:05:05Z</time>
      </trkpt>
      <trkpt lat="43.24114" lon="5.62451">
        <ele>440.9375</ele>
        <time>2019-09-21T08:05:13Z</time>
      </trkpt>
      <trkpt lat="43.24106" lon="5.62457">
        <ele>440.5703125</ele>
        <time>2019-09-21T08:05:15Z</time>
      </trkpt>
      <trkpt lat="43.24101" lon="5.62461">
        <ele>440.46875</ele>
        <time>2019-09-21T08:05:16Z</time>
      </trkpt>
      <trkpt lat="43.24098" lon="5.62466">
        <ele>440.47265625</ele>
        <time>2019-09-21T08:05:17Z</time>
      </trkpt>
      <trkpt lat="43.24087" lon="5.62483">
        <ele>440.6640625</ele>
        <time>2019-09-21T08:05:22Z</time>
      </trkpt>
      <trkpt lat="43.24084" lon="5.62482">
        <ele>440.43359375</ele>
        <time>2019-09-21T08:05:23Z</time>
      </trkpt>
      <trkpt lat="43.24082" lon="5.62479">
        <ele>440.1484375</ele>
        <time>2019-09-21T08:05:24Z</time>
      </trkpt>
      <trkpt lat="43.24079" lon="5.62474">
        <ele>439.83203125</ele>
        <time>2019-09-21T08:05:25Z</time>
      </trkpt>
      <trkpt lat="43.24077" lon="5.6247">
        <ele>439.52734375</ele>
        <time>2019-09-21T08:05:26Z</time>
      </trkpt>
      <trkpt lat="43.24075" lon="5.62467">
        <ele>439.1953125</ele>
        <time>2019-09-21T08:05:27Z</time>
      </trkpt>
      <trkpt lat="43.24071" lon="5.62463">
        <ele>438.8046875</ele>
        <time>2019-09-21T08:05:28Z</time>
      </trkpt>
      <trkpt lat="43.24068" lon="5.62458">
        <ele>438.26171875</ele>
        <time>2019-09-21T08:05:29Z</time>
      </trkpt>
      <trkpt lat="43.24064" lon="5.62453">
        <ele>437.66015625</ele>
        <time>2019-09-21T08:05:30Z</time>
      </trkpt>
      <trkpt lat="43.24061" lon="5.62449">
        <ele>437.11328125</ele>
        <time>2019-09-21T08:05:31Z</time>
      </trkpt>
      <trkpt lat="43.24059" lon="5.62444">
        <ele>436.57421875</ele>
        <time>2019-09-21T08:05:32Z</time>
      </trkpt>
      <trkpt lat="43.24057" lon="5.62439">
        <ele>436.09765625</ele>
        <time>2019-09-21T08:05:33Z</time>
      </trkpt>
      <trkpt lat="43.24056" lon="5.62433">
        <ele>435.66015625</ele>
        <time>2019-09-21T08:05:34Z</time>
      </trkpt>
      <trkpt lat="43.24054" lon="5.62427">
        <ele>435.25</ele>
        <time>2019-09-21T08:05:35Z</time>
      </trkpt>
      <trkpt lat="43.24052" lon="5.62422">
        <ele>434.78125</ele>
        <time>2019-09-21T08:05:36Z</time>
      </trkpt>
      <trkpt lat="43.24048" lon="5.62417">
        <ele>434.18359375</ele>
        <time>2019-09-21T08:05:37Z</time>
      </trkpt>
      <trkpt lat="43.24044" lon="5.62411">
        <ele>433.49609375</ele>
        <time>2019-09-21T08:05:38Z</time>
      </trkpt>
      <trkpt lat="43.2404" lon="5.62405">
        <ele>432.8203125</ele>
        <time>2019-09-21T08:05:39Z</time>
      </trkpt>
      <trkpt lat="43.2403" lon="5.62386">
        <ele>431.0625</ele>
        <time>2019-09-21T08:05:42Z</time>
      </trkpt>
      <trkpt lat="43.24028" lon="5.62381">
        <ele>430.58984375</ele>
        <time>2019-09-21T08:05:43Z</time>
      </trkpt>
      <trkpt lat="43.24024" lon="5.62379">
        <ele>430.15234375</ele>
        <time>2019-09-21T08:05:44Z</time>
      </trkpt>
      <trkpt lat="43.2402" lon="5.62378">
        <ele>429.734375</ele>
        <time>2019-09-21T08:05:45Z</time>
      </trkpt>
      <trkpt lat="43.24016" lon="5.62378">
        <ele>429.23046875</ele>
        <time>2019-09-21T08:05:46Z</time>
      </trkpt>
      <trkpt lat="43.2401" lon="5.6238">
        <ele>428.6875</ele>
        <time>2019-09-21T08:05:47Z</time>
      </trkpt>
      <trkpt lat="43.24005" lon="5.62382">
        <ele>428.30859375</ele>
        <time>2019-09-21T08:05:48Z</time>
      </trkpt>
      <trkpt lat="43.23994" lon="5.62389">
        <ele>427.55859375</ele>
        <time>2019-09-21T08:05:50Z</time>
      </trkpt>
      <trkpt lat="43.2397" lon="5.62398">
        <ele>425.9140625</ele>
        <time>2019-09-21T08:05:54Z</time>
      </trkpt>
      <trkpt lat="43.23964" lon="5.62401">
        <ele>425.6328125</ele>
        <time>2019-09-21T08:05:55Z</time>
      </trkpt>
      <trkpt lat="43.23952" lon="5.62407">
        <ele>425.21875</ele>
        <time>2019-09-21T08:05:57Z</time>
      </trkpt>
      <trkpt lat="43.23933" lon="5.62416">
        <ele>423.95703125</ele>
        <time>2019-09-21T08:06:00Z</time>
      </trkpt>
      <trkpt lat="43.23922" lon="5.62422">
        <ele>423.20703125</ele>
        <time>2019-09-21T08:06:02Z</time>
      </trkpt>
      <trkpt lat="43.23917" lon="5.62426">
        <ele>422.65234375</ele>
        <time>2019-09-21T08:06:03Z</time>
      </trkpt>
      <trkpt lat="43.23912" lon="5.62428">
        <ele>421.88671875</ele>
        <time>2019-09-21T08:06:04Z</time>
      </trkpt>
      <trkpt lat="43.23907" lon="5.6243">
        <ele>421.1640625</ele>
        <time>2019-09-21T08:06:05Z</time>
      </trkpt>
      <trkpt lat="43.23902" lon="5.62432">
        <ele>420.5078125</ele>
        <time>2019-09-21T08:06:06Z</time>
      </trkpt>
      <trkpt lat="43.23898" lon="5.62433">
        <ele>419.7578125</ele>
        <time>2019-09-21T08:06:07Z</time>
      </trkpt>
      <trkpt lat="43.23894" lon="5.62434">
        <ele>419.01171875</ele>
        <time>2019-09-21T08:06:08Z</time>
      </trkpt>
      <trkpt lat="43.2389" lon="5.62435">
        <ele>418.3671875</ele>
        <time>2019-09-21T08:06:09Z</time>
      </trkpt>
      <trkpt lat="43.23886" lon="5.62437">
        <ele>417.86328125</ele>
        <time>2019-09-21T08:06:10Z</time>
      </trkpt>
      <trkpt lat="43.23882" lon="5.6244">
        <ele>417.46484375</ele>
        <time>2019-09-21T08:06:11Z</time>
      </trkpt>
      <trkpt lat="43.2388" lon="5.62444">
        <ele>417.3515625</ele>
        <time>2019-09-21T08:06:12Z</time>
      </trkpt>
      <trkpt lat="43.23877" lon="5.62448">
        <ele>417.30078125</ele>
        <time>2019-09-21T08:06:13Z</time>
      </trkpt>
      <trkpt lat="43.23873" lon="5.62452">
        <ele>417.10546875</ele>
        <time>2019-09-21T08:06:14Z</time>
      </trkpt>
      <trkpt lat="43.23869" lon="5.62456">
        <ele>416.90234375</ele>
        <time>2019-09-21T08:06:15Z</time>
      </trkpt>
      <trkpt lat="43.23865" lon="5.62461">
        <ele>416.70703125</ele>
        <time>2019-09-21T08:06:16Z</time>
      </trkpt>
      <trkpt lat="43.23861" lon="5.62464">
        <ele>416.32421875</ele>
        <time>2019-09-21T08:06:17Z</time>
      </trkpt>
      <trkpt lat="43.23856" lon="5.62466">
        <ele>415.73046875</ele>
        <time>2019-09-21T08:06:18Z</time>
      </trkpt>
      <trkpt lat="43.23844" lon="5.62469">
        <ele>414.0625</ele>
        <time>2019-09-21T08:06:21Z</time>
      </trkpt>
      <trkpt lat="43.23839" lon="5.6247">
        <ele>413.5078125</ele>
        <time>2019-09-21T08:06:22Z</time>
      </trkpt>
      <trkpt lat="43.23832" lon="5.62473">
        <ele>412.37109375</ele>
        <time>2019-09-21T08:06:24Z</time>
      </trkpt>
      <trkpt lat="43.2382" lon="5.62473">
        <ele>410.328125</ele>
        <time>2019-09-21T08:06:27Z</time>
      </trkpt>
      <trkpt lat="43.23804" lon="5.62471">
        <ele>408.01171875</ele>
        <time>2019-09-21T08:06:30Z</time>
      </trkpt>
      <trkpt lat="43.238" lon="5.62469">
        <ele>407.4140625</ele>
        <time>2019-09-21T08:06:31Z</time>
      </trkpt>
      <trkpt lat="43.23796" lon="5.62465">
        <ele>406.62109375</ele>
        <time>2019-09-21T08:06:32Z</time>
      </trkpt>
      <trkpt lat="43.23791" lon="5.6246">
        <ele>405.671875</ele>
        <time>2019-09-21T08:06:33Z</time>
      </trkpt>
      <trkpt lat="43.23788" lon="5.62457">
        <ele>404.90625</ele>
        <time>2019-09-21T08:06:34Z</time>
      </trkpt>
      <trkpt lat="43.23785" lon="5.62456">
        <ele>404.39453125</ele>
        <time>2019-09-21T08:06:35Z</time>
      </trkpt>
      <trkpt lat="43.23781" lon="5.62456">
        <ele>403.91015625</ele>
        <time>2019-09-21T08:06:36Z</time>
      </trkpt>
      <trkpt lat="43.23774" lon="5.62453">
        <ele>403.2265625</ele>
        <time>2019-09-21T08:06:38Z</time>
      </trkpt>
      <trkpt lat="43.23771" lon="5.62452">
        <ele>402.8359375</ele>
        <time>2019-09-21T08:06:39Z</time>
      </trkpt>
      <trkpt lat="43.23769" lon="5.6245">
        <ele>402.24609375</ele>
        <time>2019-09-21T08:06:40Z</time>
      </trkpt>
      <trkpt lat="43.23761" lon="5.62445">
        <ele>400.43359375</ele>
        <time>2019-09-21T08:06:42Z</time>
      </trkpt>
      <trkpt lat="43.23758" lon="5.62441">
        <ele>399.15625</ele>
        <time>2019-09-21T08:06:43Z</time>
      </trkpt>
      <trkpt lat="43.23754" lon="5.62439">
        <ele>398.08203125</ele>
        <time>2019-09-21T08:06:44Z</time>
      </trkpt>
      <trkpt lat="43.2375" lon="5.62438">
        <ele>397.23828125</ele>
        <time>2019-09-21T08:06:45Z</time>
      </trkpt>
      <trkpt lat="43.23746" lon="5.62436">
        <ele>396.2421875</ele>
        <time>2019-09-21T08:06:46Z</time>
      </trkpt>
      <trkpt lat="43.23742" lon="5.62433">
        <ele>395.296875</ele>
        <time>2019-09-21T08:06:47Z</time>
      </trkpt>
      <trkpt lat="43.23738" lon="5.6243">
        <ele>394.28125</ele>
        <time>2019-09-21T08:06:48Z</time>
      </trkpt>
      <trkpt lat="43.23735" lon="5.62429">
        <ele>393.4296875</ele>
        <time>2019-09-21T08:06:49Z</time>
      </trkpt>
      <trkpt lat="43.23731" lon="5.62428">
        <ele>392.6640625</ele>
        <time>2019-09-21T08:06:50Z</time>
      </trkpt>
      <trkpt lat="43.23727" lon="5.62426">
        <ele>391.72265625</ele>
        <time>2019-09-21T08:06:51Z</time>
      </trkpt>
      <trkpt lat="43.23723" lon="5.62423">
        <ele>390.97265625</ele>
        <time>2019-09-21T08:06:52Z</time>
      </trkpt>
      <trkpt lat="43.23711" lon="5.62414">
        <ele>388.07421875</ele>
        <time>2019-09-21T08:06:55Z</time>
      </trkpt>
      <trkpt lat="43.23709" lon="5.62411">
        <ele>386.76171875</ele>
        <time>2019-09-21T08:06:56Z</time>
      </trkpt>
      <trkpt lat="43.23706" lon="5.62407">
        <ele>385.5</ele>
        <time>2019-09-21T08:06:57Z</time>
      </trkpt>
      <trkpt lat="43.23703" lon="5.62404">
        <ele>385.21484375</ele>
        <time>2019-09-21T08:06:58Z</time>
      </trkpt>
      <trkpt lat="43.23699" lon="5.62401">
        <ele>384.74609375</ele>
        <time>2019-09-21T08:06:59Z</time>
      </trkpt>
      <trkpt lat="43.23685" lon="5.62391">
        <ele>382.8828125</ele>
        <time>2019-09-21T08:07:03Z</time>
      </trkpt>
      <trkpt lat="43.23665" lon="5.6237">
        <ele>378.6953125</ele>
        <time>2019-09-21T08:07:09Z</time>
      </trkpt>
      <trkpt lat="43.23661" lon="5.62367">
        <ele>378.421875</ele>
        <time>2019-09-21T08:07:10Z</time>
      </trkpt>
      <trkpt lat="43.23656" lon="5.62365">
        <ele>378.09375</ele>
        <time>2019-09-21T08:07:11Z</time>
      </trkpt>
      <trkpt lat="43.23651" lon="5.62363">
        <ele>377.65625</ele>
        <time>2019-09-21T08:07:12Z</time>
      </trkpt>
      <trkpt lat="43.23647" lon="5.62361">
        <ele>377.11328125</ele>
        <time>2019-09-21T08:07:13Z</time>
      </trkpt>
      <trkpt lat="43.23645" lon="5.62358">
        <ele>376.45703125</ele>
        <time>2019-09-21T08:07:14Z</time>
      </trkpt>
      <trkpt lat="43.23643" lon="5.62355">
        <ele>375.73828125</ele>
        <time>2019-09-21T08:07:15Z</time>
      </trkpt>
      <trkpt lat="43.2364" lon="5.62352">
        <ele>375.12109375</ele>
        <time>2019-09-21T08:07:16Z</time>
      </trkpt>
      <trkpt lat="43.23636" lon="5.62346">
        <ele>374.19140625</ele>
        <time>2019-09-21T08:07:18Z</time>
      </trkpt>
      <trkpt lat="43.23628" lon="5.62334">
        <ele>371.69140625</ele>
        <time>2019-09-21T08:07:21Z</time>
      </trkpt>
      <trkpt lat="43.23625" lon="5.62331">
        <ele>370.7109375</ele>
        <time>2019-09-21T08:07:22Z</time>
      </trkpt>
      <trkpt lat="43.23622" lon="5.62328">
        <ele>369.76953125</ele>
        <time>2019-09-21T08:07:23Z</time>
      </trkpt>
      <trkpt lat="43.23618" lon="5.62326">
        <ele>368.83984375</ele>
        <time>2019-09-21T08:07:24Z</time>
      </trkpt>
      <trkpt lat="43.23614" lon="5.62325">
        <ele>368.2890625</ele>
        <time>2019-09-21T08:07:25Z</time>
      </trkpt>
      <trkpt lat="43.23612" lon="5.62324">
        <ele>367.96875</ele>
        <time>2019-09-21T08:07:26Z</time>
      </trkpt>
      <trkpt lat="43.23611" lon="5.6232">
        <ele>367.62890625</ele>
        <time>2019-09-21T08:07:27Z</time>
      </trkpt>
      <trkpt lat="43.2361" lon="5.62316">
        <ele>367.078125</ele>
        <time>2019-09-21T08:07:28Z</time>
      </trkpt>
      <trkpt lat="43.2361" lon="5.6231">
        <ele>366.4765625</ele>
        <time>2019-09-21T08:07:29Z</time>
      </trkpt>
      <trkpt lat="43.23609" lon="5.62306">
        <ele>365.9140625</ele>
        <time>2019-09-21T08:07:30Z</time>
      </trkpt>
      <trkpt lat="43.23608" lon="5.62303">
        <ele>365.3515625</ele>
        <time>2019-09-21T08:07:31Z</time>
      </trkpt>
      <trkpt lat="43.23606" lon="5.62299">
        <ele>364.6171875</ele>
        <time>2019-09-21T08:07:32Z</time>
      </trkpt>
      <trkpt lat="43.23604" lon="5.62296">
        <ele>363.91796875</ele>
        <time>2019-09-21T08:07:33Z</time>
      </trkpt>
      <trkpt lat="43.23601" lon="5.62292">
        <ele>362.83203125</ele>
        <time>2019-09-21T08:07:44Z</time>
      </trkpt>
      <trkpt lat="43.236" lon="5.62289">
        <ele>362.2421875</ele>
        <time>2019-09-21T08:07:45Z</time>
      </trkpt>
      <trkpt lat="43.23598" lon="5.62286">
        <ele>361.484375</ele>
        <time>2019-09-21T08:07:46Z</time>
      </trkpt>
      <trkpt lat="43.23596" lon="5.62282">
        <ele>360.4765625</ele>
        <time>2019-09-21T08:07:47Z</time>
      </trkpt>
      <trkpt lat="43.23594" lon="5.62278">
        <ele>359.28515625</ele>
        <time>2019-09-21T08:07:48Z</time>
      </trkpt>
      <trkpt lat="43.23586" lon="5.62266">
        <ele>355.87890625</ele>
        <time>2019-09-21T08:07:51Z</time>
      </trkpt>
      <trkpt lat="43.23583" lon="5.62262">
        <ele>355.55859375</ele>
        <time>2019-09-21T08:07:52Z</time>
      </trkpt>
      <trkpt lat="43.23573" lon="5.62249">
        <ele>353.84375</ele>
        <time>2019-09-21T08:07:55Z</time>
      </trkpt>
      <trkpt lat="43.23571" lon="5.62247">
        <ele>353.35546875</ele>
        <time>2019-09-21T08:07:57Z</time>
      </trkpt>
      <trkpt lat="43.23569" lon="5.62246">
        <ele>353.0625</ele>
        <time>2019-09-21T08:07:58Z</time>
      </trkpt>
      <trkpt lat="43.23567" lon="5.62245">
        <ele>352.56640625</ele>
        <time>2019-09-21T08:07:59Z</time>
      </trkpt>
      <trkpt lat="43.23565" lon="5.62243">
        <ele>351.921875</ele>
        <time>2019-09-21T08:08:00Z</time>
      </trkpt>
      <trkpt lat="43.23563" lon="5.62241">
        <ele>351.4140625</ele>
        <time>2019-09-21T08:08:01Z</time>
      </trkpt>
      <trkpt lat="43.23562" lon="5.62239">
        <ele>351.01953125</ele>
        <time>2019-09-21T08:08:02Z</time>
      </trkpt>
      <trkpt lat="43.2356" lon="5.62236">
        <ele>350.53125</ele>
        <time>2019-09-21T08:08:03Z</time>
      </trkpt>
      <trkpt lat="43.23558" lon="5.62234">
        <ele>350.09765625</ele>
        <time>2019-09-21T08:08:04Z</time>
      </trkpt>
      <trkpt lat="43.23557" lon="5.6223">
        <ele>349.56640625</ele>
        <time>2019-09-21T08:08:05Z</time>
      </trkpt>
      <trkpt lat="43.23555" lon="5.62226">
        <ele>348.84375</ele>
        <time>2019-09-21T08:08:06Z</time>
      </trkpt>
      <trkpt lat="43.23553" lon="5.62221">
        <ele>347.8359375</ele>
        <time>2019-09-21T08:08:07Z</time>
      </trkpt>
      <trkpt lat="43.23551" lon="5.62215">
        <ele>346.60546875</ele>
        <time>2019-09-21T08:08:08Z</time>
      </trkpt>
      <trkpt lat="43.23549" lon="5.62209">
        <ele>345.69921875</ele>
        <time>2019-09-21T08:08:09Z</time>
      </trkpt>
      <trkpt lat="43.23548" lon="5.62204">
        <ele>345.15234375</ele>
        <time>2019-09-21T08:08:10Z</time>
      </trkpt>
      <trkpt lat="43.23547" lon="5.622">
        <ele>344.76171875</ele>
        <time>2019-09-21T08:08:11Z</time>
      </trkpt>
      <trkpt lat="43.23546" lon="5.62198">
        <ele>344.46875</ele>
        <time>2019-09-21T08:08:12Z</time>
      </trkpt>
      <trkpt lat="43.23542" lon="5.62195">
        <ele>343.26953125</ele>
        <time>2019-09-21T08:08:26Z</time>
      </trkpt>
      <trkpt lat="43.23539" lon="5.62194">
        <ele>342.46875</ele>
        <time>2019-09-21T08:08:27Z</time>
      </trkpt>
      <trkpt lat="43.23536" lon="5.62191">
        <ele>341.45703125</ele>
        <time>2019-09-21T08:08:28Z</time>
      </trkpt>
      <trkpt lat="43.23528" lon="5.62185">
        <ele>340.15234375</ele>
        <time>2019-09-21T08:08:30Z</time>
      </trkpt>
      <trkpt lat="43.23524" lon="5.62182">
        <ele>340.31640625</ele>
        <time>2019-09-21T08:08:31Z</time>
      </trkpt>
      <trkpt lat="43.23519" lon="5.6218">
        <ele>340.390625</ele>
        <time>2019-09-21T08:08:32Z</time>
      </trkpt>
      <trkpt lat="43.23516" lon="5.62177">
        <ele>340.375</ele>
        <time>2019-09-21T08:08:33Z</time>
      </trkpt>
      <trkpt lat="43.23512" lon="5.62174">
        <ele>340.22265625</ele>
        <time>2019-09-21T08:08:34Z</time>
      </trkpt>
      <trkpt lat="43.23508" lon="5.62169">
        <ele>339.94921875</ele>
        <time>2019-09-21T08:08:35Z</time>
      </trkpt>
      <trkpt lat="43.23504" lon="5.62167">
        <ele>339.66015625</ele>
        <time>2019-09-21T08:08:36Z</time>
      </trkpt>
      <trkpt lat="43.235" lon="5.62164">
        <ele>339.33203125</ele>
        <time>2019-09-21T08:08:37Z</time>
      </trkpt>
      <trkpt lat="43.23496" lon="5.62161">
        <ele>338.765625</ele>
        <time>2019-09-21T08:08:38Z</time>
      </trkpt>
      <trkpt lat="43.23492" lon="5.62158">
        <ele>338.13671875</ele>
        <time>2019-09-21T08:08:39Z</time>
      </trkpt>
      <trkpt lat="43.23487" lon="5.62157">
        <ele>337.71875</ele>
        <time>2019-09-21T08:08:40Z</time>
      </trkpt>
      <trkpt lat="43.23482" lon="5.62158">
        <ele>337.41015625</ele>
        <time>2019-09-21T08:08:41Z</time>
      </trkpt>
      <trkpt lat="43.23477" lon="5.62158">
        <ele>337.03125</ele>
        <time>2019-09-21T08:08:42Z</time>
      </trkpt>
      <trkpt lat="43.23471" lon="5.62157">
        <ele>336.98046875</ele>
        <time>2019-09-21T08:08:43Z</time>
      </trkpt>
      <trkpt lat="43.23466" lon="5.62157">
        <ele>336.9609375</ele>
        <time>2019-09-21T08:08:44Z</time>
      </trkpt>
      <trkpt lat="43.23448" lon="5.62153">
        <ele>335.97265625</ele>
        <time>2019-09-21T08:08:49Z</time>
      </trkpt>
      <trkpt lat="43.23438" lon="5.6215">
        <ele>334.5078125</ele>
        <time>2019-09-21T08:08:51Z</time>
      </trkpt>
      <trkpt lat="43.23432" lon="5.62149">
        <ele>333.76953125</ele>
        <time>2019-09-21T08:08:52Z</time>
      </trkpt>
      <trkpt lat="43.23415" lon="5.62147">
        <ele>331.6484375</ele>
        <time>2019-09-21T08:08:55Z</time>
      </trkpt>
      <trkpt lat="43.23409" lon="5.62148">
        <ele>331.28515625</ele>
        <time>2019-09-21T08:08:56Z</time>
      </trkpt>
      <trkpt lat="43.23403" lon="5.62149">
        <ele>331.03125</ele>
        <time>2019-09-21T08:08:57Z</time>
      </trkpt>
      <trkpt lat="43.23398" lon="5.6215">
        <ele>330.53125</ele>
        <time>2019-09-21T08:08:58Z</time>
      </trkpt>
      <trkpt lat="43.23393" lon="5.62149">
        <ele>329.828125</ele>
        <time>2019-09-21T08:08:59Z</time>
      </trkpt>
      <trkpt lat="43.23389" lon="5.62148">
        <ele>328.87890625</ele>
        <time>2019-09-21T08:09:00Z</time>
      </trkpt>
      <trkpt lat="43.23384" lon="5.62147">
        <ele>327.953125</ele>
        <time>2019-09-21T08:09:01Z</time>
      </trkpt>
      <trkpt lat="43.23379" lon="5.62147">
        <ele>327.12890625</ele>
        <time>2019-09-21T08:09:02Z</time>
      </trkpt>
      <trkpt lat="43.23374" lon="5.62146">
        <ele>326.20703125</ele>
        <time>2019-09-21T08:09:03Z</time>
      </trkpt>
      <trkpt lat="43.23369" lon="5.62143">
        <ele>324.83203125</ele>
        <time>2019-09-21T08:09:04Z</time>
      </trkpt>
      <trkpt lat="43.23366" lon="5.62138">
        <ele>323.06640625</ele>
        <time>2019-09-21T08:09:05Z</time>
      </trkpt>
      <trkpt lat="43.23363" lon="5.62132">
        <ele>321.6015625</ele>
        <time>2019-09-21T08:09:06Z</time>
      </trkpt>
      <trkpt lat="43.23361" lon="5.62128">
        <ele>320.96875</ele>
        <time>2019-09-21T08:09:07Z</time>
      </trkpt>
      <trkpt lat="43.23359" lon="5.62123">
        <ele>321.23828125</ele>
        <time>2019-09-21T08:09:08Z</time>
      </trkpt>
      <trkpt lat="43.23358" lon="5.62119">
        <ele>321.4296875</ele>
        <time>2019-09-21T08:09:09Z</time>
      </trkpt>
      <trkpt lat="43.2334" lon="5.62086">
        <ele>320.07421875</ele>
        <time>2019-09-21T08:09:17Z</time>
      </trkpt>
      <trkpt lat="43.23338" lon="5.62081">
        <ele>319.74609375</ele>
        <time>2019-09-21T08:09:18Z</time>
      </trkpt>
      <trkpt lat="43.23335" lon="5.62075">
        <ele>319.73046875</ele>
        <time>2019-09-21T08:09:19Z</time>
      </trkpt>
      <trkpt lat="43.23331" lon="5.6207">
        <ele>319.890625</ele>
        <time>2019-09-21T08:09:20Z</time>
      </trkpt>
      <trkpt lat="43.23327" lon="5.62065">
        <ele>319.79296875</ele>
        <time>2019-09-21T08:09:21Z</time>
      </trkpt>
      <trkpt lat="43.23323" lon="5.62062">
        <ele>319.43359375</ele>
        <time>2019-09-21T08:09:22Z</time>
      </trkpt>
      <trkpt lat="43.23318" lon="5.62058">
        <ele>318.8671875</ele>
        <time>2019-09-21T08:09:23Z</time>
      </trkpt>
      <trkpt lat="43.23315" lon="5.62054">
        <ele>318.171875</ele>
        <time>2019-09-21T08:09:24Z</time>
      </trkpt>
      <trkpt lat="43.23311" lon="5.62052">
        <ele>317.30859375</ele>
        <time>2019-09-21T08:09:25Z</time>
      </trkpt>
      <trkpt lat="43.23307" lon="5.6205">
        <ele>316.66015625</ele>
        <time>2019-09-21T08:09:26Z</time>
      </trkpt>
      <trkpt lat="43.23292" lon="5.62047">
        <ele>314.46875</ele>
        <time>2019-09-21T08:09:30Z</time>
      </trkpt>
      <trkpt lat="43.23283" lon="5.62037">
        <ele>312.48828125</ele>
        <time>2019-09-21T08:09:33Z</time>
      </trkpt>
      <trkpt lat="43.23275" lon="5.62031">
        <ele>311.71875</ele>
        <time>2019-09-21T08:09:35Z</time>
      </trkpt>
      <trkpt lat="43.2327" lon="5.6203">
        <ele>311.51953125</ele>
        <time>2019-09-21T08:09:36Z</time>
      </trkpt>
      <trkpt lat="43.23265" lon="5.6203">
        <ele>311.39453125</ele>
        <time>2019-09-21T08:09:37Z</time>
      </trkpt>
      <trkpt lat="43.23259" lon="5.6203">
        <ele>311.35546875</ele>
        <time>2019-09-21T08:09:38Z</time>
      </trkpt>
      <trkpt lat="43.23253" lon="5.62031">
        <ele>311.203125</ele>
        <time>2019-09-21T08:09:39Z</time>
      </trkpt>
      <trkpt lat="43.23247" lon="5.62032">
        <ele>310.5234375</ele>
        <time>2019-09-21T08:09:40Z</time>
      </trkpt>
      <trkpt lat="43.23241" lon="5.62034">
        <ele>309.90625</ele>
        <time>2019-09-21T08:09:41Z</time>
      </trkpt>
      <trkpt lat="43.23234" lon="5.62036">
        <ele>309.37890625</ele>
        <time>2019-09-21T08:09:42Z</time>
      </trkpt>
      <trkpt lat="43.23216" lon="5.62042">
        <ele>308.11328125</ele>
        <time>2019-09-21T08:09:45Z</time>
      </trkpt>
      <trkpt lat="43.23211" lon="5.62041">
        <ele>307.51953125</ele>
        <time>2019-09-21T08:09:46Z</time>
      </trkpt>
      <trkpt lat="43.23201" lon="5.6204">
        <ele>306.1640625</ele>
        <time>2019-09-21T08:09:48Z</time>
      </trkpt>
      <trkpt lat="43.23196" lon="5.62038">
        <ele>305.1640625</ele>
        <time>2019-09-21T08:09:49Z</time>
      </trkpt>
      <trkpt lat="43.23191" lon="5.62034">
        <ele>304.046875</ele>
        <time>2019-09-21T08:09:50Z</time>
      </trkpt>
      <trkpt lat="43.23187" lon="5.62031">
        <ele>303.04296875</ele>
        <time>2019-09-21T08:09:51Z</time>
      </trkpt>
      <trkpt lat="43.23184" lon="5.62026">
        <ele>302.09765625</ele>
        <time>2019-09-21T08:09:52Z</time>
      </trkpt>
      <trkpt lat="43.23182" lon="5.6202">
        <ele>301.26171875</ele>
        <time>2019-09-21T08:09:53Z</time>
      </trkpt>
      <trkpt lat="43.23182" lon="5.62014">
        <ele>300.73046875</ele>
        <time>2019-09-21T08:09:54Z</time>
      </trkpt>
      <trkpt lat="43.23183" lon="5.6201">
        <ele>300.421875</ele>
        <time>2019-09-21T08:09:55Z</time>
      </trkpt>
      <trkpt lat="43.23184" lon="5.62007">
        <ele>300.24609375</ele>
        <time>2019-09-21T08:09:56Z</time>
      </trkpt>
      <trkpt lat="43.23185" lon="5.62004">
        <ele>300.140625</ele>
        <time>2019-09-21T08:09:57Z</time>
      </trkpt>
      <trkpt lat="43.23187" lon="5.62001">
        <ele>300.1484375</ele>
        <time>2019-09-21T08:09:58Z</time>
      </trkpt>
      <trkpt lat="43.23189" lon="5.61998">
        <ele>300.1796875</ele>
        <time>2019-09-21T08:09:59Z</time>
      </trkpt>
      <trkpt lat="43.23192" lon="5.61994">
        <ele>300.21484375</ele>
        <time>2019-09-21T08:10:00Z</time>
      </trkpt>
      <trkpt lat="43.23193" lon="5.61991">
        <ele>300.19140625</ele>
        <time>2019-09-21T08:10:01Z</time>
      </trkpt>
      <trkpt lat="43.23201" lon="5.61981">
        <ele>302.0625</ele>
        <time>2019-09-21T08:10:05Z</time>
      </trkpt>
      <trkpt lat="43.23202" lon="5.61979">
        <ele>302.41015625</ele>
        <time>2019-09-21T08:10:06Z</time>
      </trkpt>
      <trkpt lat="43.23205" lon="5.61969">
        <ele>303.83203125</ele>
        <time>2019-09-21T08:10:09Z</time>
      </trkpt>
      <trkpt lat="43.23206" lon="5.61964">
        <ele>304.46875</ele>
        <time>2019-09-21T08:10:10Z</time>
      </trkpt>
      <trkpt lat="43.23206" lon="5.61959">
        <ele>304.80859375</ele>
        <time>2019-09-21T08:10:11Z</time>
      </trkpt>
      <trkpt lat="43.23204" lon="5.61956">
        <ele>304.69140625</ele>
        <time>2019-09-21T08:10:12Z</time>
      </trkpt>
      <trkpt lat="43.23195" lon="5.61944">
        <ele>303.1484375</ele>
        <time>2019-09-21T08:10:15Z</time>
      </trkpt>
      <trkpt lat="43.23191" lon="5.61941">
        <ele>302.09375</ele>
        <time>2019-09-21T08:10:16Z</time>
      </trkpt>
      <trkpt lat="43.23186" lon="5.61937">
        <ele>300.60546875</ele>
        <time>2019-09-21T08:10:17Z</time>
      </trkpt>
      <trkpt lat="43.2318" lon="5.61933">
        <ele>298.828125</ele>
        <time>2019-09-21T08:10:18Z</time>
      </trkpt>
      <trkpt lat="43.23175" lon="5.6193">
        <ele>296.9921875</ele>
        <time>2019-09-21T08:10:19Z</time>
      </trkpt>
      <trkpt lat="43.23169" lon="5.61928">
        <ele>295.25</ele>
        <time>2019-09-21T08:10:20Z</time>
      </trkpt>
      <trkpt lat="43.23164" lon="5.61927">
        <ele>293.9609375</ele>
        <time>2019-09-21T08:10:21Z</time>
      </trkpt>
      <trkpt lat="43.2316" lon="5.61926">
        <ele>292.84375</ele>
        <time>2019-09-21T08:10:22Z</time>
      </trkpt>
      <trkpt lat="43.23156" lon="5.61927">
        <ele>292.00390625</ele>
        <time>2019-09-21T08:10:23Z</time>
      </trkpt>
      <trkpt lat="43.23153" lon="5.61927">
        <ele>291.30859375</ele>
        <time>2019-09-21T08:10:24Z</time>
      </trkpt>
      <trkpt lat="43.2315" lon="5.61927">
        <ele>290.66015625</ele>
        <time>2019-09-21T08:10:25Z</time>
      </trkpt>
      <trkpt lat="43.23148" lon="5.61925">
        <ele>289.8203125</ele>
        <time>2019-09-21T08:10:26Z</time>
      </trkpt>
      <trkpt lat="43.23146" lon="5.61922">
        <ele>289.0546875</ele>
        <time>2019-09-21T08:10:27Z</time>
      </trkpt>
      <trkpt lat="43.23145" lon="5.61917">
        <ele>288.33984375</ele>
        <time>2019-09-21T08:10:28Z</time>
      </trkpt>
      <trkpt lat="43.23144" lon="5.61912">
        <ele>287.63671875</ele>
        <time>2019-09-21T08:10:29Z</time>
      </trkpt>
      <trkpt lat="43.23143" lon="5.61908">
        <ele>286.98046875</ele>
        <time>2019-09-21T08:10:30Z</time>
      </trkpt>
      <trkpt lat="43.23141" lon="5.61903">
        <ele>286.80078125</ele>
        <time>2019-09-21T08:10:31Z</time>
      </trkpt>
      <trkpt lat="43.23139" lon="5.61899">
        <ele>286.51953125</ele>
        <time>2019-09-21T08:10:32Z</time>
      </trkpt>
      <trkpt lat="43.23138" lon="5.61893">
        <ele>286.23046875</ele>
        <time>2019-09-21T08:10:33Z</time>
      </trkpt>
      <trkpt lat="43.23137" lon="5.61887">
        <ele>285.95703125</ele>
        <time>2019-09-21T08:10:34Z</time>
      </trkpt>
      <trkpt lat="43.23137" lon="5.61882">
        <ele>285.8125</ele>
        <time>2019-09-21T08:10:35Z</time>
      </trkpt>
      <trkpt lat="43.23138" lon="5.61876">
        <ele>286.03125</ele>
        <time>2019-09-21T08:10:36Z</time>
      </trkpt>
      <trkpt lat="43.23139" lon="5.61871">
        <ele>286.453125</ele>
        <time>2019-09-21T08:10:37Z</time>
      </trkpt>
      <trkpt lat="43.23142" lon="5.61867">
        <ele>287.078125</ele>
        <time>2019-09-21T08:10:38Z</time>
      </trkpt>
      <trkpt lat="43.23145" lon="5.61863">
        <ele>288.18359375</ele>
        <time>2019-09-21T08:10:39Z</time>
      </trkpt>
      <trkpt lat="43.23148" lon="5.61859">
        <ele>289.73046875</ele>
        <time>2019-09-21T08:10:40Z</time>
      </trkpt>
      <trkpt lat="43.23157" lon="5.61838">
        <ele>294.265625</ele>
        <time>2019-09-21T08:10:45Z</time>
      </trkpt>
      <trkpt lat="43.23155" lon="5.61835">
        <ele>293.65625</ele>
        <time>2019-09-21T08:10:46Z</time>
      </trkpt>
      <trkpt lat="43.23154" lon="5.61832">
        <ele>293.00390625</ele>
        <time>2019-09-21T08:10:47Z</time>
      </trkpt>
      <trkpt lat="43.23131" lon="5.61822">
        <ele>285.515625</ele>
        <time>2019-09-21T08:10:54Z</time>
      </trkpt>
      <trkpt lat="43.23126" lon="5.6182">
        <ele>284.1875</ele>
        <time>2019-09-21T08:10:55Z</time>
      </trkpt>
      <trkpt lat="43.23118" lon="5.61815">
        <ele>282.06640625</ele>
        <time>2019-09-21T08:10:57Z</time>
      </trkpt>
      <trkpt lat="43.23111" lon="5.61807">
        <ele>280.99609375</ele>
        <time>2019-09-21T08:10:59Z</time>
      </trkpt>
      <trkpt lat="43.23109" lon="5.61802">
        <ele>280.79296875</ele>
        <time>2019-09-21T08:11:00Z</time>
      </trkpt>
      <trkpt lat="43.23106" lon="5.61796">
        <ele>280.5546875</ele>
        <time>2019-09-21T08:11:01Z</time>
      </trkpt>
      <trkpt lat="43.23104" lon="5.61791">
        <ele>280.56640625</ele>
        <time>2019-09-21T08:11:02Z</time>
      </trkpt>
      <trkpt lat="43.23102" lon="5.61787">
        <ele>280.59375</ele>
        <time>2019-09-21T08:11:03Z</time>
      </trkpt>
      <trkpt lat="43.23101" lon="5.61783">
        <ele>280.48828125</ele>
        <time>2019-09-21T08:11:04Z</time>
      </trkpt>
      <trkpt lat="43.23099" lon="5.6178">
        <ele>280.2890625</ele>
        <time>2019-09-21T08:11:05Z</time>
      </trkpt>
      <trkpt lat="43.23097" lon="5.61777">
        <ele>280.03515625</ele>
        <time>2019-09-21T08:11:06Z</time>
      </trkpt>
      <trkpt lat="43.23096" lon="5.61774">
        <ele>279.703125</ele>
        <time>2019-09-21T08:11:07Z</time>
      </trkpt>
      <trkpt lat="43.23093" lon="5.61771">
        <ele>279.1953125</ele>
        <time>2019-09-21T08:11:08Z</time>
      </trkpt>
      <trkpt lat="43.2309" lon="5.61769">
        <ele>278.3828125</ele>
        <time>2019-09-21T08:11:09Z</time>
      </trkpt>
      <trkpt lat="43.23086" lon="5.61767">
        <ele>277.7421875</ele>
        <time>2019-09-21T08:11:10Z</time>
      </trkpt>
      <trkpt lat="43.23082" lon="5.61768">
        <ele>276.94140625</ele>
        <time>2019-09-21T08:11:11Z</time>
      </trkpt>
      <trkpt lat="43.23078" lon="5.61771">
        <ele>276.16796875</ele>
        <time>2019-09-21T08:11:12Z</time>
      </trkpt>
      <trkpt lat="43.23073" lon="5.61774">
        <ele>275.6328125</ele>
        <time>2019-09-21T08:11:13Z</time>
      </trkpt>
      <trkpt lat="43.23069" lon="5.61778">
        <ele>275.21875</ele>
        <time>2019-09-21T08:11:14Z</time>
      </trkpt>
      <trkpt lat="43.23064" lon="5.61781">
        <ele>274.8515625</ele>
        <time>2019-09-21T08:11:15Z</time>
      </trkpt>
      <trkpt lat="43.2306" lon="5.61784">
        <ele>274.53515625</ele>
        <time>2019-09-21T08:11:16Z</time>
      </trkpt>
      <trkpt lat="43.23056" lon="5.61785">
        <ele>274.24609375</ele>
        <time>2019-09-21T08:11:17Z</time>
      </trkpt>
      <trkpt lat="43.23052" lon="5.61784">
        <ele>273.79296875</ele>
        <time>2019-09-21T08:11:18Z</time>
      </trkpt>
      <trkpt lat="43.23048" lon="5.61783">
        <ele>273.20703125</ele>
        <time>2019-09-21T08:11:19Z</time>
      </trkpt>
      <trkpt lat="43.23044" lon="5.61781">
        <ele>272.609375</ele>
        <time>2019-09-21T08:11:20Z</time>
      </trkpt>
      <trkpt lat="43.23039" lon="5.61778">
        <ele>271.94140625</ele>
        <time>2019-09-21T08:11:21Z</time>
      </trkpt>
      <trkpt lat="43.23034" lon="5.61774">
        <ele>271.33984375</ele>
        <time>2019-09-21T08:11:22Z</time>
      </trkpt>
      <trkpt lat="43.23017" lon="5.61758">
        <ele>269.73828125</ele>
        <time>2019-09-21T08:11:26Z</time>
      </trkpt>
      <trkpt lat="43.23015" lon="5.61752">
        <ele>269.68359375</ele>
        <time>2019-09-21T08:11:27Z</time>
      </trkpt>
      <trkpt lat="43.23014" lon="5.61746">
        <ele>269.84375</ele>
        <time>2019-09-21T08:11:28Z</time>
      </trkpt>
      <trkpt lat="43.23016" lon="5.61731">
        <ele>270.5703125</ele>
        <time>2019-09-21T08:11:30Z</time>
      </trkpt>
      <trkpt lat="43.23018" lon="5.61716">
        <ele>271.6015625</ele>
        <time>2019-09-21T08:11:32Z</time>
      </trkpt>
      <trkpt lat="43.23016" lon="5.61711">
        <ele>271.5625</ele>
        <time>2019-09-21T08:11:33Z</time>
      </trkpt>
      <trkpt lat="43.23014" lon="5.61707">
        <ele>271.21875</ele>
        <time>2019-09-21T08:11:34Z</time>
      </trkpt>
      <trkpt lat="43.23012" lon="5.61705">
        <ele>270.83203125</ele>
        <time>2019-09-21T08:11:35Z</time>
      </trkpt>
      <trkpt lat="43.23009" lon="5.61703">
        <ele>270.328125</ele>
        <time>2019-09-21T08:11:45Z</time>
      </trkpt>
      <trkpt lat="43.22999" lon="5.61693">
        <ele>269.12890625</ele>
        <time>2019-09-21T08:11:59Z</time>
      </trkpt>
      <trkpt lat="43.22995" lon="5.61691">
        <ele>268.7578125</ele>
        <time>2019-09-21T08:12:00Z</time>
      </trkpt>
      <trkpt lat="43.2299" lon="5.6169">
        <ele>268.2890625</ele>
        <time>2019-09-21T08:12:01Z</time>
      </trkpt>
      <trkpt lat="43.22981" lon="5.61689">
        <ele>267.31640625</ele>
        <time>2019-09-21T08:12:03Z</time>
      </trkpt>
      <trkpt lat="43.22977" lon="5.61689">
        <ele>266.859375</ele>
        <time>2019-09-21T08:12:04Z</time>
      </trkpt>
      <trkpt lat="43.22973" lon="5.6169">
        <ele>266.5859375</ele>
        <time>2019-09-21T08:12:05Z</time>
      </trkpt>
      <trkpt lat="43.2297" lon="5.61689">
        <ele>266.41796875</ele>
        <time>2019-09-21T08:12:06Z</time>
      </trkpt>
      <trkpt lat="43.22968" lon="5.61685">
        <ele>266.3515625</ele>
        <time>2019-09-21T08:12:07Z</time>
      </trkpt>
      <trkpt lat="43.22966" lon="5.6168">
        <ele>266.26171875</ele>
        <time>2019-09-21T08:12:08Z</time>
      </trkpt>
      <trkpt lat="43.22962" lon="5.61676">
        <ele>266.109375</ele>
        <time>2019-09-21T08:12:09Z</time>
      </trkpt>
      <trkpt lat="43.22958" lon="5.61672">
        <ele>265.94140625</ele>
        <time>2019-09-21T08:12:10Z</time>
      </trkpt>
      <trkpt lat="43.22955" lon="5.61669">
        <ele>265.875</ele>
        <time>2019-09-21T08:12:11Z</time>
      </trkpt>
      <trkpt lat="43.22954" lon="5.61665">
        <ele>265.94140625</ele>
        <time>2019-09-21T08:12:12Z</time>
      </trkpt>
      <trkpt lat="43.22953" lon="5.61661">
        <ele>266.0234375</ele>
        <time>2019-09-21T08:12:13Z</time>
      </trkpt>
      <trkpt lat="43.22951" lon="5.61655">
        <ele>266.078125</ele>
        <time>2019-09-21T08:12:14Z</time>
      </trkpt>
      <trkpt lat="43.2295" lon="5.61649">
        <ele>266.0546875</ele>
        <time>2019-09-21T08:12:15Z</time>
      </trkpt>
      <trkpt lat="43.2295" lon="5.61642">
        <ele>266.0234375</ele>
        <time>2019-09-21T08:12:16Z</time>
      </trkpt>
      <trkpt lat="43.22949" lon="5.61634">
        <ele>266</ele>
        <time>2019-09-21T08:12:17Z</time>
      </trkpt>
      <trkpt lat="43.2295" lon="5.6162">
        <ele>266.5546875</ele>
        <time>2019-09-21T08:12:19Z</time>
      </trkpt>
      <trkpt lat="43.22952" lon="5.61614">
        <ele>267.07421875</ele>
        <time>2019-09-21T08:12:20Z</time>
      </trkpt>
      <trkpt lat="43.22952" lon="5.61609">
        <ele>267.3984375</ele>
        <time>2019-09-21T08:12:21Z</time>
      </trkpt>
      <trkpt lat="43.22951" lon="5.61605">
        <ele>267.3984375</ele>
        <time>2019-09-21T08:12:22Z</time>
      </trkpt>
      <trkpt lat="43.22951" lon="5.61601">
        <ele>267.390625</ele>
        <time>2019-09-21T08:12:23Z</time>
      </trkpt>
      <trkpt lat="43.2295" lon="5.61596">
        <ele>267.28515625</ele>
        <time>2019-09-21T08:12:24Z</time>
      </trkpt>
      <trkpt lat="43.22947" lon="5.61591">
        <ele>266.5703125</ele>
        <time>2019-09-21T08:12:25Z</time>
      </trkpt>
      <trkpt lat="43.22943" lon="5.61587">
        <ele>265.11328125</ele>
        <time>2019-09-21T08:12:26Z</time>
      </trkpt>
      <trkpt lat="43.22938" lon="5.61582">
        <ele>263.0859375</ele>
        <time>2019-09-21T08:12:27Z</time>
      </trkpt>
      <trkpt lat="43.22932" lon="5.61578">
        <ele>260.8359375</ele>
        <time>2019-09-21T08:12:28Z</time>
      </trkpt>
      <trkpt lat="43.22927" lon="5.61575">
        <ele>258.55078125</ele>
        <time>2019-09-21T08:12:29Z</time>
      </trkpt>
      <trkpt lat="43.22923" lon="5.61575">
        <ele>256.4609375</ele>
        <time>2019-09-21T08:12:30Z</time>
      </trkpt>
      <trkpt lat="43.22918" lon="5.61577">
        <ele>255.59375</ele>
        <time>2019-09-21T08:12:31Z</time>
      </trkpt>
      <trkpt lat="43.22913" lon="5.61581">
        <ele>255.140625</ele>
        <time>2019-09-21T08:12:32Z</time>
      </trkpt>
      <trkpt lat="43.2291" lon="5.61585">
        <ele>255.01171875</ele>
        <time>2019-09-21T08:12:33Z</time>
      </trkpt>
      <trkpt lat="43.22909" lon="5.61589">
        <ele>255.1953125</ele>
        <time>2019-09-21T08:12:34Z</time>
      </trkpt>
      <trkpt lat="43.22907" lon="5.61594">
        <ele>255.50390625</ele>
        <time>2019-09-21T08:12:35Z</time>
      </trkpt>
      <trkpt lat="43.22905" lon="5.616">
        <ele>255.734375</ele>
        <time>2019-09-21T08:12:36Z</time>
      </trkpt>
      <trkpt lat="43.22903" lon="5.61605">
        <ele>255.88671875</ele>
        <time>2019-09-21T08:12:37Z</time>
      </trkpt>
      <trkpt lat="43.22901" lon="5.61611">
        <ele>256.203125</ele>
        <time>2019-09-21T08:12:38Z</time>
      </trkpt>
      <trkpt lat="43.229" lon="5.61616">
        <ele>256.57421875</ele>
        <time>2019-09-21T08:12:39Z</time>
      </trkpt>
      <trkpt lat="43.22898" lon="5.6162">
        <ele>256.5546875</ele>
        <time>2019-09-21T08:12:40Z</time>
      </trkpt>
      <trkpt lat="43.22895" lon="5.61622">
        <ele>256.3203125</ele>
        <time>2019-09-21T08:12:41Z</time>
      </trkpt>
      <trkpt lat="43.22891" lon="5.61625">
        <ele>255.97265625</ele>
        <time>2019-09-21T08:12:42Z</time>
      </trkpt>
      <trkpt lat="43.22888" lon="5.61626">
        <ele>255.44140625</ele>
        <time>2019-09-21T08:12:43Z</time>
      </trkpt>
      <trkpt lat="43.22884" lon="5.61625">
        <ele>254.72265625</ele>
        <time>2019-09-21T08:12:44Z</time>
      </trkpt>
      <trkpt lat="43.2288" lon="5.61624">
        <ele>253.8828125</ele>
        <time>2019-09-21T08:12:45Z</time>
      </trkpt>
      <trkpt lat="43.22877" lon="5.61623">
        <ele>253.125</ele>
        <time>2019-09-21T08:12:46Z</time>
      </trkpt>
      <trkpt lat="43.22873" lon="5.61623">
        <ele>252.41015625</ele>
        <time>2019-09-21T08:12:47Z</time>
      </trkpt>
      <trkpt lat="43.22868" lon="5.61625">
        <ele>251.8359375</ele>
        <time>2019-09-21T08:12:48Z</time>
      </trkpt>
      <trkpt lat="43.22864" lon="5.61628">
        <ele>251.3125</ele>
        <time>2019-09-21T08:12:49Z</time>
      </trkpt>
      <trkpt lat="43.22861" lon="5.61632">
        <ele>250.75</ele>
        <time>2019-09-21T08:12:50Z</time>
      </trkpt>
      <trkpt lat="43.22858" lon="5.61635">
        <ele>250.2578125</ele>
        <time>2019-09-21T08:12:51Z</time>
      </trkpt>
      <trkpt lat="43.22854" lon="5.61637">
        <ele>249.33984375</ele>
        <time>2019-09-21T08:12:52Z</time>
      </trkpt>
      <trkpt lat="43.2285" lon="5.61637">
        <ele>248.07421875</ele>
        <time>2019-09-21T08:12:53Z</time>
      </trkpt>
      <trkpt lat="43.22847" lon="5.61634">
        <ele>246.88671875</ele>
        <time>2019-09-21T08:12:54Z</time>
      </trkpt>
      <trkpt lat="43.22845" lon="5.61631">
        <ele>246.0078125</ele>
        <time>2019-09-21T08:12:55Z</time>
      </trkpt>
      <trkpt lat="43.22845" lon="5.61627">
        <ele>245.6953125</ele>
        <time>2019-09-21T08:12:56Z</time>
      </trkpt>
      <trkpt lat="43.22845" lon="5.61623">
        <ele>245.578125</ele>
        <time>2019-09-21T08:12:57Z</time>
      </trkpt>
      <trkpt lat="43.22845" lon="5.61618">
        <ele>245.3359375</ele>
        <time>2019-09-21T08:12:58Z</time>
      </trkpt>
      <trkpt lat="43.22845" lon="5.61613">
        <ele>244.96875</ele>
        <time>2019-09-21T08:12:59Z</time>
      </trkpt>
      <trkpt lat="43.22845" lon="5.61607">
        <ele>244.65234375</ele>
        <time>2019-09-21T08:13:00Z</time>
      </trkpt>
      <trkpt lat="43.22844" lon="5.61603">
        <ele>244.33984375</ele>
        <time>2019-09-21T08:13:01Z</time>
      </trkpt>
      <trkpt lat="43.22842" lon="5.61599">
        <ele>243.76171875</ele>
        <time>2019-09-21T08:13:02Z</time>
      </trkpt>
      <trkpt lat="43.22839" lon="5.61597">
        <ele>242.890625</ele>
        <time>2019-09-21T08:13:03Z</time>
      </trkpt>
      <trkpt lat="43.22834" lon="5.61597">
        <ele>242.12890625</ele>
        <time>2019-09-21T08:13:04Z</time>
      </trkpt>
      <trkpt lat="43.2283" lon="5.61598">
        <ele>241.3984375</ele>
        <time>2019-09-21T08:13:05Z</time>
      </trkpt>
      <trkpt lat="43.22827" lon="5.61599">
        <ele>240.81640625</ele>
        <time>2019-09-21T08:13:06Z</time>
      </trkpt>
      <trkpt lat="43.22824" lon="5.61598">
        <ele>240.28125</ele>
        <time>2019-09-21T08:13:07Z</time>
      </trkpt>
      <trkpt lat="43.2282" lon="5.61596">
        <ele>239.59375</ele>
        <time>2019-09-21T08:13:08Z</time>
      </trkpt>
      <trkpt lat="43.22815" lon="5.61594">
        <ele>238.8203125</ele>
        <time>2019-09-21T08:13:09Z</time>
      </trkpt>
      <trkpt lat="43.22811" lon="5.61593">
        <ele>238.140625</ele>
        <time>2019-09-21T08:13:10Z</time>
      </trkpt>
      <trkpt lat="43.22807" lon="5.61592">
        <ele>237.6484375</ele>
        <time>2019-09-21T08:13:11Z</time>
      </trkpt>
      <trkpt lat="43.22802" lon="5.61594">
        <ele>237.21484375</ele>
        <time>2019-09-21T08:13:12Z</time>
      </trkpt>
      <trkpt lat="43.22797" lon="5.61595">
        <ele>236.8125</ele>
        <time>2019-09-21T08:13:13Z</time>
      </trkpt>
      <trkpt lat="43.22792" lon="5.61597">
        <ele>236.390625</ele>
        <time>2019-09-21T08:13:14Z</time>
      </trkpt>
      <trkpt lat="43.22786" lon="5.61598">
        <ele>235.9296875</ele>
        <time>2019-09-21T08:13:15Z</time>
      </trkpt>
      <trkpt lat="43.2278" lon="5.61598">
        <ele>235.51953125</ele>
        <time>2019-09-21T08:13:16Z</time>
      </trkpt>
      <trkpt lat="43.22771" lon="5.61598">
        <ele>234.71484375</ele>
        <time>2019-09-21T08:13:18Z</time>
      </trkpt>
      <trkpt lat="43.22765" lon="5.61597">
        <ele>234.24609375</ele>
        <time>2019-09-21T08:13:19Z</time>
      </trkpt>
      <trkpt lat="43.2276" lon="5.61597">
        <ele>233.8203125</ele>
        <time>2019-09-21T08:13:20Z</time>
      </trkpt>
      <trkpt lat="43.22744" lon="5.61597">
        <ele>232.52734375</ele>
        <time>2019-09-21T08:13:23Z</time>
      </trkpt>
      <trkpt lat="43.22741" lon="5.61594">
        <ele>231.93359375</ele>
        <time>2019-09-21T08:13:24Z</time>
      </trkpt>
      <trkpt lat="43.22739" lon="5.6159">
        <ele>231.26171875</ele>
        <time>2019-09-21T08:13:25Z</time>
      </trkpt>
      <trkpt lat="43.22738" lon="5.61586">
        <ele>230.57421875</ele>
        <time>2019-09-21T08:13:26Z</time>
      </trkpt>
      <trkpt lat="43.22737" lon="5.61581">
        <ele>229.89453125</ele>
        <time>2019-09-21T08:13:27Z</time>
      </trkpt>
      <trkpt lat="43.22738" lon="5.61576">
        <ele>229.26953125</ele>
        <time>2019-09-21T08:13:28Z</time>
      </trkpt>
      <trkpt lat="43.22739" lon="5.6157">
        <ele>228.80078125</ele>
        <time>2019-09-21T08:13:29Z</time>
      </trkpt>
      <trkpt lat="43.22741" lon="5.61565">
        <ele>228.515625</ele>
        <time>2019-09-21T08:13:30Z</time>
      </trkpt>
      <trkpt lat="43.22744" lon="5.6156">
        <ele>228.37109375</ele>
        <time>2019-09-21T08:13:31Z</time>
      </trkpt>
      <trkpt lat="43.22755" lon="5.61539">
        <ele>229.0625</ele>
        <time>2019-09-21T08:13:35Z</time>
      </trkpt>
      <trkpt lat="43.22757" lon="5.61535">
        <ele>229.71484375</ele>
        <time>2019-09-21T08:13:36Z</time>
      </trkpt>
      <trkpt lat="43.22761" lon="5.61527">
        <ele>231.15234375</ele>
        <time>2019-09-21T08:13:38Z</time>
      </trkpt>
      <trkpt lat="43.22763" lon="5.61511">
        <ele>232.9765625</ele>
        <time>2019-09-21T08:13:41Z</time>
      </trkpt>
      <trkpt lat="43.22759" lon="5.61506">
        <ele>231.65234375</ele>
        <time>2019-09-21T08:13:42Z</time>
      </trkpt>
      <trkpt lat="43.22748" lon="5.61497">
        <ele>227.73046875</ele>
        <time>2019-09-21T08:13:44Z</time>
      </trkpt>
      <trkpt lat="43.22741" lon="5.61494">
        <ele>225.51171875</ele>
        <time>2019-09-21T08:13:45Z</time>
      </trkpt>
      <trkpt lat="43.22729" lon="5.6149">
        <ele>220.94140625</ele>
        <time>2019-09-21T08:13:47Z</time>
      </trkpt>
      <trkpt lat="43.22717" lon="5.61485">
        <ele>221.8359375</ele>
        <time>2019-09-21T08:13:49Z</time>
      </trkpt>
      <trkpt lat="43.22714" lon="5.61483">
        <ele>222.29296875</ele>
        <time>2019-09-21T08:13:50Z</time>
      </trkpt>
      <trkpt lat="43.2271" lon="5.61482">
        <ele>222.63671875</ele>
        <time>2019-09-21T08:13:51Z</time>
      </trkpt>
      <trkpt lat="43.22707" lon="5.61484">
        <ele>222.92578125</ele>
        <time>2019-09-21T08:13:52Z</time>
      </trkpt>
      <trkpt lat="43.22704" lon="5.61484">
        <ele>223.31640625</ele>
        <time>2019-09-21T08:13:53Z</time>
      </trkpt>
      <trkpt lat="43.227" lon="5.61483">
        <ele>223.69921875</ele>
        <time>2019-09-21T08:13:54Z</time>
      </trkpt>
      <trkpt lat="43.22696" lon="5.61482">
        <ele>223.58984375</ele>
        <time>2019-09-21T08:13:55Z</time>
      </trkpt>
      <trkpt lat="43.22692" lon="5.61481">
        <ele>223.46875</ele>
        <time>2019-09-21T08:13:56Z</time>
      </trkpt>
      <trkpt lat="43.22689" lon="5.61481">
        <ele>223.38671875</ele>
        <time>2019-09-21T08:13:57Z</time>
      </trkpt>
      <trkpt lat="43.22674" lon="5.61485">
        <ele>223.3984375</ele>
        <time>2019-09-21T08:14:01Z</time>
      </trkpt>
      <trkpt lat="43.22659" lon="5.61491">
        <ele>221.26953125</ele>
        <time>2019-09-21T08:14:05Z</time>
      </trkpt>
      <trkpt lat="43.22648" lon="5.61498">
        <ele>219.6875</ele>
        <time>2019-09-21T08:14:08Z</time>
      </trkpt>
      <trkpt lat="43.22644" lon="5.61501">
        <ele>219.0546875</ele>
        <time>2019-09-21T08:14:09Z</time>
      </trkpt>
      <trkpt lat="43.22639" lon="5.61506">
        <ele>218.50390625</ele>
        <time>2019-09-21T08:14:10Z</time>
      </trkpt>
      <trkpt lat="43.22636" lon="5.61511">
        <ele>217.859375</ele>
        <time>2019-09-21T08:14:11Z</time>
      </trkpt>
      <trkpt lat="43.22632" lon="5.61516">
        <ele>217.03515625</ele>
        <time>2019-09-21T08:14:12Z</time>
      </trkpt>
      <trkpt lat="43.22629" lon="5.61521">
        <ele>216.27734375</ele>
        <time>2019-09-21T08:14:13Z</time>
      </trkpt>
      <trkpt lat="43.22626" lon="5.61526">
        <ele>215.65234375</ele>
        <time>2019-09-21T08:14:14Z</time>
      </trkpt>
      <trkpt lat="43.22623" lon="5.61531">
        <ele>215.03515625</ele>
        <time>2019-09-21T08:14:15Z</time>
      </trkpt>
      <trkpt lat="43.22621" lon="5.61538">
        <ele>214.52734375</ele>
        <time>2019-09-21T08:14:16Z</time>
      </trkpt>
      <trkpt lat="43.22619" lon="5.61544">
        <ele>213.95703125</ele>
        <time>2019-09-21T08:14:17Z</time>
      </trkpt>
      <trkpt lat="43.22616" lon="5.61548">
        <ele>212.95703125</ele>
        <time>2019-09-21T08:14:18Z</time>
      </trkpt>
      <trkpt lat="43.22613" lon="5.61551">
        <ele>211.08984375</ele>
        <time>2019-09-21T08:14:19Z</time>
      </trkpt>
      <trkpt lat="43.22609" lon="5.61554">
        <ele>208.70703125</ele>
        <time>2019-09-21T08:14:20Z</time>
      </trkpt>
      <trkpt lat="43.226" lon="5.61561">
        <ele>203.28515625</ele>
        <time>2019-09-21T08:14:22Z</time>
      </trkpt>
      <trkpt lat="43.22597" lon="5.61565">
        <ele>200.72265625</ele>
        <time>2019-09-21T08:14:23Z</time>
      </trkpt>
      <trkpt lat="43.22573" lon="5.6159">
        <ele>193.640625</ele>
        <time>2019-09-21T08:14:28Z</time>
      </trkpt>
      <trkpt lat="43.22567" lon="5.61594">
        <ele>193.35546875</ele>
        <time>2019-09-21T08:14:29Z</time>
      </trkpt>
      <trkpt lat="43.2256" lon="5.61598">
        <ele>193.140625</ele>
        <time>2019-09-21T08:14:30Z</time>
      </trkpt>
      <trkpt lat="43.22555" lon="5.61604">
        <ele>193.0234375</ele>
        <time>2019-09-21T08:14:31Z</time>
      </trkpt>
      <trkpt lat="43.2255" lon="5.61609">
        <ele>193.046875</ele>
        <time>2019-09-21T08:14:32Z</time>
      </trkpt>
      <trkpt lat="43.22545" lon="5.61614">
        <ele>192.953125</ele>
        <time>2019-09-21T08:14:33Z</time>
      </trkpt>
      <trkpt lat="43.22542" lon="5.6162">
        <ele>192.78515625</ele>
        <time>2019-09-21T08:14:34Z</time>
      </trkpt>
      <trkpt lat="43.2254" lon="5.61627">
        <ele>192.5703125</ele>
        <time>2019-09-21T08:14:35Z</time>
      </trkpt>
      <trkpt lat="43.22539" lon="5.61633">
        <ele>192.46875</ele>
        <time>2019-09-21T08:14:36Z</time>
      </trkpt>
      <trkpt lat="43.22539" lon="5.61641">
        <ele>192.57421875</ele>
        <time>2019-09-21T08:14:37Z</time>
      </trkpt>
      <trkpt lat="43.22539" lon="5.61649">
        <ele>192.7421875</ele>
        <time>2019-09-21T08:14:38Z</time>
      </trkpt>
      <trkpt lat="43.2254" lon="5.61657">
        <ele>192.984375</ele>
        <time>2019-09-21T08:14:39Z</time>
      </trkpt>
      <trkpt lat="43.22541" lon="5.61665">
        <ele>194.03515625</ele>
        <time>2019-09-21T08:14:40Z</time>
      </trkpt>
      <trkpt lat="43.22543" lon="5.61684">
        <ele>196.6171875</ele>
        <time>2019-09-21T08:14:42Z</time>
      </trkpt>
      <trkpt lat="43.22544" lon="5.61701">
        <ele>199.7890625</ele>
        <time>2019-09-21T08:14:44Z</time>
      </trkpt>
      <trkpt lat="43.22543" lon="5.61709">
        <ele>200.7421875</ele>
        <time>2019-09-21T08:14:45Z</time>
      </trkpt>
      <trkpt lat="43.22542" lon="5.61715">
        <ele>201.4921875</ele>
        <time>2019-09-21T08:14:46Z</time>
      </trkpt>
      <trkpt lat="43.2254" lon="5.61722">
        <ele>202.91796875</ele>
        <time>2019-09-21T08:14:47Z</time>
      </trkpt>
      <trkpt lat="43.22538" lon="5.61729">
        <ele>203.5859375</ele>
        <time>2019-09-21T08:14:48Z</time>
      </trkpt>
      <trkpt lat="43.22534" lon="5.61733">
        <ele>203.18359375</ele>
        <time>2019-09-21T08:14:49Z</time>
      </trkpt>
      <trkpt lat="43.2253" lon="5.61736">
        <ele>202.82421875</ele>
        <time>2019-09-21T08:14:50Z</time>
      </trkpt>
      <trkpt lat="43.22526" lon="5.6174">
        <ele>202.3828125</ele>
        <time>2019-09-21T08:14:51Z</time>
      </trkpt>
      <trkpt lat="43.22521" lon="5.61742">
        <ele>201.62890625</ele>
        <time>2019-09-21T08:14:52Z</time>
      </trkpt>
      <trkpt lat="43.22516" lon="5.61743">
        <ele>200.30078125</ele>
        <time>2019-09-21T08:14:53Z</time>
      </trkpt>
      <trkpt lat="43.22511" lon="5.61742">
        <ele>198.26171875</ele>
        <time>2019-09-21T08:14:54Z</time>
      </trkpt>
      <trkpt lat="43.22506" lon="5.61739">
        <ele>195.91796875</ele>
        <time>2019-09-21T08:14:55Z</time>
      </trkpt>
      <trkpt lat="43.22503" lon="5.61736">
        <ele>194.32421875</ele>
        <time>2019-09-21T08:14:56Z</time>
      </trkpt>
      <trkpt lat="43.225" lon="5.61733">
        <ele>193.21484375</ele>
        <time>2019-09-21T08:14:57Z</time>
      </trkpt>
      <trkpt lat="43.22497" lon="5.61731">
        <ele>192.34765625</ele>
        <time>2019-09-21T08:14:58Z</time>
      </trkpt>
      <trkpt lat="43.22493" lon="5.6173">
        <ele>191.5</ele>
        <time>2019-09-21T08:14:59Z</time>
      </trkpt>
      <trkpt lat="43.22488" lon="5.61729">
        <ele>190.59375</ele>
        <time>2019-09-21T08:15:00Z</time>
      </trkpt>
      <trkpt lat="43.22483" lon="5.61727">
        <ele>189.44140625</ele>
        <time>2019-09-21T08:15:01Z</time>
      </trkpt>
      <trkpt lat="43.22478" lon="5.61724">
        <ele>188.0625</ele>
        <time>2019-09-21T08:15:02Z</time>
      </trkpt>
      <trkpt lat="43.22473" lon="5.61721">
        <ele>187.25</ele>
        <time>2019-09-21T08:15:03Z</time>
      </trkpt>
      <trkpt lat="43.22469" lon="5.61718">
        <ele>186.578125</ele>
        <time>2019-09-21T08:15:04Z</time>
      </trkpt>
      <trkpt lat="43.22464" lon="5.61715">
        <ele>185.9453125</ele>
        <time>2019-09-21T08:15:05Z</time>
      </trkpt>
      <trkpt lat="43.2246" lon="5.61713">
        <ele>185.6484375</ele>
        <time>2019-09-21T08:15:06Z</time>
      </trkpt>
      <trkpt lat="43.22455" lon="5.61712">
        <ele>185.87890625</ele>
        <time>2019-09-21T08:15:07Z</time>
      </trkpt>
      <trkpt lat="43.2245" lon="5.61712">
        <ele>186.07421875</ele>
        <time>2019-09-21T08:15:08Z</time>
      </trkpt>
      <trkpt lat="43.22439" lon="5.61714">
        <ele>185.90625</ele>
        <time>2019-09-21T08:15:10Z</time>
      </trkpt>
      <trkpt lat="43.22435" lon="5.61717">
        <ele>186.37109375</ele>
        <time>2019-09-21T08:15:11Z</time>
      </trkpt>
      <trkpt lat="43.2243" lon="5.61719">
        <ele>186.796875</ele>
        <time>2019-09-21T08:15:12Z</time>
      </trkpt>
      <trkpt lat="43.22425" lon="5.61721">
        <ele>187.015625</ele>
        <time>2019-09-21T08:15:13Z</time>
      </trkpt>
      <trkpt lat="43.22421" lon="5.61722">
        <ele>187.22265625</ele>
        <time>2019-09-21T08:15:14Z</time>
      </trkpt>
      <trkpt lat="43.22417" lon="5.61725">
        <ele>187.5546875</ele>
        <time>2019-09-21T08:15:15Z</time>
      </trkpt>
      <trkpt lat="43.22414" lon="5.61727">
        <ele>187.859375</ele>
        <time>2019-09-21T08:15:16Z</time>
      </trkpt>
      <trkpt lat="43.22411" lon="5.61728">
        <ele>187.84375</ele>
        <time>2019-09-21T08:15:17Z</time>
      </trkpt>
      <trkpt lat="43.22407" lon="5.61729">
        <ele>187.7578125</ele>
        <time>2019-09-21T08:15:18Z</time>
      </trkpt>
      <trkpt lat="43.22402" lon="5.61729">
        <ele>187.515625</ele>
        <time>2019-09-21T08:15:19Z</time>
      </trkpt>
      <trkpt lat="43.22399" lon="5.61728">
        <ele>187.015625</ele>
        <time>2019-09-21T08:15:20Z</time>
      </trkpt>
      <trkpt lat="43.22395" lon="5.61725">
        <ele>186.2109375</ele>
        <time>2019-09-21T08:15:21Z</time>
      </trkpt>
      <trkpt lat="43.22392" lon="5.61722">
        <ele>185.125</ele>
        <time>2019-09-21T08:15:22Z</time>
      </trkpt>
      <trkpt lat="43.22388" lon="5.61718">
        <ele>183.92578125</ele>
        <time>2019-09-21T08:15:23Z</time>
      </trkpt>
      <trkpt lat="43.22384" lon="5.61716">
        <ele>182.83203125</ele>
        <time>2019-09-21T08:15:24Z</time>
      </trkpt>
      <trkpt lat="43.22379" lon="5.61714">
        <ele>181.94140625</ele>
        <time>2019-09-21T08:15:25Z</time>
      </trkpt>
      <trkpt lat="43.22375" lon="5.61713">
        <ele>181.23046875</ele>
        <time>2019-09-21T08:15:26Z</time>
      </trkpt>
      <trkpt lat="43.22371" lon="5.61714">
        <ele>180.66015625</ele>
        <time>2019-09-21T08:15:27Z</time>
      </trkpt>
      <trkpt lat="43.22366" lon="5.61715">
        <ele>180.12890625</ele>
        <time>2019-09-21T08:15:28Z</time>
      </trkpt>
      <trkpt lat="43.22363" lon="5.61715">
        <ele>179.73046875</ele>
        <time>2019-09-21T08:15:29Z</time>
      </trkpt>
      <trkpt lat="43.22348" lon="5.61723">
        <ele>178.60546875</ele>
        <time>2019-09-21T08:15:33Z</time>
      </trkpt>
      <trkpt lat="43.22344" lon="5.61726">
        <ele>178.15234375</ele>
        <time>2019-09-21T08:15:34Z</time>
      </trkpt>
      <trkpt lat="43.2234" lon="5.61729">
        <ele>177.83203125</ele>
        <time>2019-09-21T08:15:35Z</time>
      </trkpt>
      <trkpt lat="43.22339" lon="5.61732">
        <ele>177.75</ele>
        <time>2019-09-21T08:15:36Z</time>
      </trkpt>
      <trkpt lat="43.22338" lon="5.61737">
        <ele>177.81640625</ele>
        <time>2019-09-21T08:15:37Z</time>
      </trkpt>
      <trkpt lat="43.22337" lon="5.61742">
        <ele>177.9140625</ele>
        <time>2019-09-21T08:15:38Z</time>
      </trkpt>
      <trkpt lat="43.22335" lon="5.61748">
        <ele>178.12890625</ele>
        <time>2019-09-21T08:15:39Z</time>
      </trkpt>
      <trkpt lat="43.22334" lon="5.61754">
        <ele>178.4140625</ele>
        <time>2019-09-21T08:15:40Z</time>
      </trkpt>
      <trkpt lat="43.22335" lon="5.61761">
        <ele>178.86328125</ele>
        <time>2019-09-21T08:15:41Z</time>
      </trkpt>
      <trkpt lat="43.22336" lon="5.61768">
        <ele>179.52734375</ele>
        <time>2019-09-21T08:15:42Z</time>
      </trkpt>
      <trkpt lat="43.22337" lon="5.61775">
        <ele>180.1484375</ele>
        <time>2019-09-21T08:15:43Z</time>
      </trkpt>
      <trkpt lat="43.22338" lon="5.6178">
        <ele>180.59765625</ele>
        <time>2019-09-21T08:15:44Z</time>
      </trkpt>
      <trkpt lat="43.22334" lon="5.61803">
        <ele>181.12890625</ele>
        <time>2019-09-21T08:15:54Z</time>
      </trkpt>
      <trkpt lat="43.22333" lon="5.6181">
        <ele>180.9609375</ele>
        <time>2019-09-21T08:16:04Z</time>
      </trkpt>
      <trkpt lat="43.2233" lon="5.61817">
        <ele>180.55859375</ele>
        <time>2019-09-21T08:16:08Z</time>
      </trkpt>
      <trkpt lat="43.22326" lon="5.61821">
        <ele>179.2421875</ele>
        <time>2019-09-21T08:16:12Z</time>
      </trkpt>
      <trkpt lat="43.22324" lon="5.61823">
        <ele>178.83203125</ele>
        <time>2019-09-21T08:16:13Z</time>
      </trkpt>
      <trkpt lat="43.22323" lon="5.61825">
        <ele>178.453125</ele>
        <time>2019-09-21T08:16:14Z</time>
      </trkpt>
      <trkpt lat="43.22322" lon="5.61827">
        <ele>178.01953125</ele>
        <time>2019-09-21T08:16:15Z</time>
      </trkpt>
      <trkpt lat="43.22321" lon="5.61828">
        <ele>177.62890625</ele>
        <time>2019-09-21T08:16:16Z</time>
      </trkpt>
      <trkpt lat="43.22303" lon="5.61856">
        <ele>173.43359375</ele>
        <time>2019-09-21T08:16:29Z</time>
      </trkpt>
      <trkpt lat="43.22301" lon="5.61863">
        <ele>173.36328125</ele>
        <time>2019-09-21T08:16:32Z</time>
      </trkpt>
      <trkpt lat="43.22299" lon="5.61871">
        <ele>173.1796875</ele>
        <time>2019-09-21T08:16:37Z</time>
      </trkpt>
      <trkpt lat="43.22295" lon="5.61879">
        <ele>173.14453125</ele>
        <time>2019-09-21T08:16:49Z</time>
      </trkpt>
      <trkpt lat="43.22294" lon="5.61883">
        <ele>173.1640625</ele>
        <time>2019-09-21T08:17:12Z</time>
      </trkpt>
      <trkpt lat="43.22295" lon="5.61884">
        <ele>173.09765625</ele>
        <time>2019-09-21T08:17:33Z</time>
      </trkpt>
      <trkpt lat="43.22299" lon="5.61901">
        <ele>172.40625</ele>
        <time>2019-09-21T08:17:51Z</time>
      </trkpt>
      <trkpt lat="43.22304" lon="5.61909">
        <ele>171.59765625</ele>
        <time>2019-09-21T08:17:56Z</time>
      </trkpt>
      <trkpt lat="43.22306" lon="5.6191">
        <ele>171.28125</ele>
        <time>2019-09-21T08:17:57Z</time>
      </trkpt>
      <trkpt lat="43.22308" lon="5.61912">
        <ele>170.93359375</ele>
        <time>2019-09-21T08:17:58Z</time>
      </trkpt>
      <trkpt lat="43.22309" lon="5.61913">
        <ele>170.5703125</ele>
        <time>2019-09-21T08:17:59Z</time>
      </trkpt>
      <trkpt lat="43.2231" lon="5.61915">
        <ele>170.234375</ele>
        <time>2019-09-21T08:18:00Z</time>
      </trkpt>
      <trkpt lat="43.22311" lon="5.61917">
        <ele>169.94140625</ele>
        <time>2019-09-21T08:18:01Z</time>
      </trkpt>
      <trkpt lat="43.22311" lon="5.6192">
        <ele>169.80078125</ele>
        <time>2019-09-21T08:18:02Z</time>
      </trkpt>
      <trkpt lat="43.22311" lon="5.61922">
        <ele>169.5390625</ele>
        <time>2019-09-21T08:18:03Z</time>
      </trkpt>
      <trkpt lat="43.22311" lon="5.61923">
        <ele>169.36328125</ele>
        <time>2019-09-21T08:18:04Z</time>
      </trkpt>
      <trkpt lat="43.22311" lon="5.61925">
        <ele>169.296875</ele>
        <time>2019-09-21T08:18:05Z</time>
      </trkpt>
      <trkpt lat="43.22312" lon="5.61927">
        <ele>169.19140625</ele>
        <time>2019-09-21T08:18:06Z</time>
      </trkpt>
      <trkpt lat="43.22312" lon="5.61929">
        <ele>169.0859375</ele>
        <time>2019-09-21T08:18:07Z</time>
      </trkpt>
      <trkpt lat="43.22312" lon="5.6193">
        <ele>168.97265625</ele>
        <time>2019-09-21T08:18:08Z</time>
      </trkpt>
      <trkpt lat="43.22312" lon="5.61932">
        <ele>168.78125</ele>
        <time>2019-09-21T08:18:09Z</time>
      </trkpt>
      <trkpt lat="43.22313" lon="5.61957">
        <ele>166.39453125</ele>
        <time>2019-09-21T08:18:22Z</time>
      </trkpt>
      <trkpt lat="43.22309" lon="5.6198">
        <ele>164.22265625</ele>
        <time>2019-09-21T08:18:35Z</time>
      </trkpt>
      <trkpt lat="43.22308" lon="5.61982">
        <ele>164.234375</ele>
        <time>2019-09-21T08:18:36Z</time>
      </trkpt>
      <trkpt lat="43.22308" lon="5.61984">
        <ele>164.21875</ele>
        <time>2019-09-21T08:18:37Z</time>
      </trkpt>
      <trkpt lat="43.22307" lon="5.61985">
        <ele>164.24609375</ele>
        <time>2019-09-21T08:18:38Z</time>
      </trkpt>
      <trkpt lat="43.22307" lon="5.61987">
        <ele>164.265625</ele>
        <time>2019-09-21T08:18:39Z</time>
      </trkpt>
      <trkpt lat="43.22298" lon="5.62003">
        <ele>164.51953125</ele>
        <time>2019-09-21T08:18:51Z</time>
      </trkpt>
      <trkpt lat="43.22295" lon="5.62009">
        <ele>164.42578125</ele>
        <time>2019-09-21T08:19:03Z</time>
      </trkpt>
      <trkpt lat="43.22291" lon="5.62011">
        <ele>165.06640625</ele>
        <time>2019-09-21T08:19:07Z</time>
      </trkpt>
      <trkpt lat="43.2229" lon="5.62012">
        <ele>165.23046875</ele>
        <time>2019-09-21T08:19:08Z</time>
      </trkpt>
      <trkpt lat="43.22272" lon="5.62028">
        <ele>169.3125</ele>
        <time>2019-09-21T08:19:22Z</time>
      </trkpt>
      <trkpt lat="43.22269" lon="5.62029">
        <ele>170.58984375</ele>
        <time>2019-09-21T08:19:24Z</time>
      </trkpt>
      <trkpt lat="43.22268" lon="5.62027">
        <ele>171.08203125</ele>
        <time>2019-09-21T08:19:25Z</time>
      </trkpt>
      <trkpt lat="43.22269" lon="5.62026">
        <ele>171.2734375</ele>
        <time>2019-09-21T08:19:26Z</time>
      </trkpt>
      <trkpt lat="43.22269" lon="5.62024">
        <ele>171.3203125</ele>
        <time>2019-09-21T08:19:27Z</time>
      </trkpt>
      <trkpt lat="43.22269" lon="5.62023">
        <ele>171.43359375</ele>
        <time>2019-09-21T08:19:28Z</time>
      </trkpt>
      <trkpt lat="43.22269" lon="5.62014">
        <ele>172.6484375</ele>
        <time>2019-09-21T08:19:33Z</time>
      </trkpt>
      <trkpt lat="43.22269" lon="5.62011">
        <ele>172.83984375</ele>
        <time>2019-09-21T08:19:34Z</time>
      </trkpt>
      <trkpt lat="43.22269" lon="5.62009">
        <ele>172.9453125</ele>
        <time>2019-09-21T08:19:35Z</time>
      </trkpt>
      <trkpt lat="43.2227" lon="5.62006">
        <ele>173.0234375</ele>
        <time>2019-09-21T08:19:36Z</time>
      </trkpt>
      <trkpt lat="43.2227" lon="5.62004">
        <ele>173.2421875</ele>
        <time>2019-09-21T08:19:37Z</time>
      </trkpt>
      <trkpt lat="43.2227" lon="5.62001">
        <ele>173.5625</ele>
        <time>2019-09-21T08:19:38Z</time>
      </trkpt>
      <trkpt lat="43.2227" lon="5.61999">
        <ele>173.7890625</ele>
        <time>2019-09-21T08:19:39Z</time>
      </trkpt>
      <trkpt lat="43.2227" lon="5.61997">
        <ele>174.12109375</ele>
        <time>2019-09-21T08:19:40Z</time>
      </trkpt>
      <trkpt lat="43.22269" lon="5.6199">
        <ele>175.19921875</ele>
        <time>2019-09-21T08:19:43Z</time>
      </trkpt>
      <trkpt lat="43.22267" lon="5.61977">
        <ele>177.09765625</ele>
        <time>2019-09-21T08:19:49Z</time>
      </trkpt>
      <trkpt lat="43.22267" lon="5.61975">
        <ele>177.3203125</ele>
        <time>2019-09-21T08:19:50Z</time>
      </trkpt>
      <trkpt lat="43.22267" lon="5.61973">
        <ele>177.62890625</ele>
        <time>2019-09-21T08:19:51Z</time>
      </trkpt>
      <trkpt lat="43.22266" lon="5.61971">
        <ele>178.03515625</ele>
        <time>2019-09-21T08:19:52Z</time>
      </trkpt>
      <trkpt lat="43.22266" lon="5.61969">
        <ele>178.328125</ele>
        <time>2019-09-21T08:19:53Z</time>
      </trkpt>
      <trkpt lat="43.22266" lon="5.61966">
        <ele>178.50390625</ele>
        <time>2019-09-21T08:19:54Z</time>
      </trkpt>
      <trkpt lat="43.22266" lon="5.61964">
        <ele>178.82421875</ele>
        <time>2019-09-21T08:19:55Z</time>
      </trkpt>
      <trkpt lat="43.22265" lon="5.61962">
        <ele>179.05859375</ele>
        <time>2019-09-21T08:19:56Z</time>
      </trkpt>
      <trkpt lat="43.2226" lon="5.61926">
        <ele>181.1171875</ele>
        <time>2019-09-21T08:20:10Z</time>
      </trkpt>
      <trkpt lat="43.22256" lon="5.61912">
        <ele>181.91015625</ele>
        <time>2019-09-21T08:20:18Z</time>
      </trkpt>
      <trkpt lat="43.22253" lon="5.6191">
        <ele>182.6875</ele>
        <time>2019-09-21T08:20:20Z</time>
      </trkpt>
      <trkpt lat="43.22251" lon="5.61909">
        <ele>183.203125</ele>
        <time>2019-09-21T08:20:21Z</time>
      </trkpt>
      <trkpt lat="43.22249" lon="5.6191">
        <ele>183.92578125</ele>
        <time>2019-09-21T08:20:23Z</time>
      </trkpt>
      <trkpt lat="43.22247" lon="5.61913">
        <ele>184.421875</ele>
        <time>2019-09-21T08:20:26Z</time>
      </trkpt>
      <trkpt lat="43.22244" lon="5.61926">
        <ele>185.54296875</ele>
        <time>2019-09-21T08:20:39Z</time>
      </trkpt>
      <trkpt lat="43.22242" lon="5.61925">
        <ele>186.09765625</ele>
        <time>2019-09-21T08:21:11Z</time>
      </trkpt>
      <trkpt lat="43.2224" lon="5.6193">
        <ele>186.87890625</ele>
        <time>2019-09-21T08:21:40Z</time>
      </trkpt>
      <trkpt lat="43.22239" lon="5.61931">
        <ele>186.94140625</ele>
        <time>2019-09-21T08:21:41Z</time>
      </trkpt>
      <trkpt lat="43.2224" lon="5.61931">
        <ele>186.91796875</ele>
        <time>2019-09-21T08:21:42Z</time>
      </trkpt>
      <trkpt lat="43.22239" lon="5.61934">
        <ele>186.98046875</ele>
        <time>2019-09-21T08:21:45Z</time>
      </trkpt>
      <trkpt lat="43.22233" lon="5.61946">
        <ele>188.2578125</ele>
        <time>2019-09-21T08:21:56Z</time>
      </trkpt>
      <trkpt lat="43.22232" lon="5.61947">
        <ele>188.59375</ele>
        <time>2019-09-21T08:21:57Z</time>
      </trkpt>
      <trkpt lat="43.22228" lon="5.61946">
        <ele>189.58203125</ele>
        <time>2019-09-21T08:22:00Z</time>
      </trkpt>
      <trkpt lat="43.22227" lon="5.61944">
        <ele>189.7578125</ele>
        <time>2019-09-21T08:22:01Z</time>
      </trkpt>
      <trkpt lat="43.22226" lon="5.61942">
        <ele>189.890625</ele>
        <time>2019-09-21T08:22:02Z</time>
      </trkpt>
      <trkpt lat="43.22226" lon="5.61937">
        <ele>190.10546875</ele>
        <time>2019-09-21T08:22:16Z</time>
      </trkpt>
      <trkpt lat="43.22224" lon="5.61931">
        <ele>190.39453125</ele>
        <time>2019-09-21T08:22:31Z</time>
      </trkpt>
      <trkpt lat="43.22224" lon="5.61928">
        <ele>190.421875</ele>
        <time>2019-09-21T08:22:32Z</time>
      </trkpt>
      <trkpt lat="43.22224" lon="5.61926">
        <ele>190.3984375</ele>
        <time>2019-09-21T08:22:33Z</time>
      </trkpt>
      <trkpt lat="43.22224" lon="5.61924">
        <ele>190.390625</ele>
        <time>2019-09-21T08:22:34Z</time>
      </trkpt>
      <trkpt lat="43.22225" lon="5.61922">
        <ele>190.36328125</ele>
        <time>2019-09-21T08:22:35Z</time>
      </trkpt>
      <trkpt lat="43.22225" lon="5.6192">
        <ele>190.3203125</ele>
        <time>2019-09-21T08:22:36Z</time>
      </trkpt>
      <trkpt lat="43.22225" lon="5.61918">
        <ele>190.3359375</ele>
        <time>2019-09-21T08:22:37Z</time>
      </trkpt>
      <trkpt lat="43.22225" lon="5.61916">
        <ele>190.33203125</ele>
        <time>2019-09-21T08:22:38Z</time>
      </trkpt>
      <trkpt lat="43.22225" lon="5.61914">
        <ele>190.3046875</ele>
        <time>2019-09-21T08:22:39Z</time>
      </trkpt>
      <trkpt lat="43.22225" lon="5.61913">
        <ele>190.3125</ele>
        <time>2019-09-21T08:22:40Z</time>
      </trkpt>
      <trkpt lat="43.22225" lon="5.6191">
        <ele>190.296875</ele>
        <time>2019-09-21T08:22:41Z</time>
      </trkpt>
      <trkpt lat="43.22226" lon="5.61908">
        <ele>190.26953125</ele>
        <time>2019-09-21T08:22:42Z</time>
      </trkpt>
      <trkpt lat="43.22226" lon="5.61906">
        <ele>190.2421875</ele>
        <time>2019-09-21T08:22:43Z</time>
      </trkpt>
      <trkpt lat="43.22226" lon="5.61872">
        <ele>190.28515625</ele>
        <time>2019-09-21T08:23:00Z</time>
      </trkpt>
      <trkpt lat="43.22228" lon="5.61845">
        <ele>190.62109375</ele>
        <time>2019-09-21T08:23:14Z</time>
      </trkpt>
      <trkpt lat="43.22229" lon="5.61817">
        <ele>193.09765625</ele>
        <time>2019-09-21T08:23:29Z</time>
      </trkpt>
      <trkpt lat="43.22231" lon="5.61803">
        <ele>193.91015625</ele>
        <time>2019-09-21T08:23:38Z</time>
      </trkpt>
      <trkpt lat="43.22232" lon="5.61801">
        <ele>193.9453125</ele>
        <time>2019-09-21T08:23:39Z</time>
      </trkpt>
      <trkpt lat="43.22232" lon="5.618">
        <ele>193.83203125</ele>
        <time>2019-09-21T08:23:40Z</time>
      </trkpt>
      <trkpt lat="43.22235" lon="5.61792">
        <ele>193.77734375</ele>
        <time>2019-09-21T08:23:45Z</time>
      </trkpt>
      <trkpt lat="43.22235" lon="5.61791">
        <ele>193.8984375</ele>
        <time>2019-09-21T08:23:46Z</time>
      </trkpt>
      <trkpt lat="43.22236" lon="5.61785">
        <ele>194.10546875</ele>
        <time>2019-09-21T08:23:50Z</time>
      </trkpt>
      <trkpt lat="43.2224" lon="5.61763">
        <ele>195.171875</ele>
        <time>2019-09-21T08:24:04Z</time>
      </trkpt>
      <trkpt lat="43.22245" lon="5.61735">
        <ele>196.50390625</ele>
        <time>2019-09-21T08:24:21Z</time>
      </trkpt>
      <trkpt lat="43.22248" lon="5.61708">
        <ele>199.09765625</ele>
        <time>2019-09-21T08:24:38Z</time>
      </trkpt>
      <trkpt lat="43.22247" lon="5.61688">
        <ele>201.76171875</ele>
        <time>2019-09-21T08:24:50Z</time>
      </trkpt>
      <trkpt lat="43.22247" lon="5.61687">
        <ele>201.953125</ele>
        <time>2019-09-21T08:24:51Z</time>
      </trkpt>
      <trkpt lat="43.22246" lon="5.61668">
        <ele>204.95703125</ele>
        <time>2019-09-21T08:25:05Z</time>
      </trkpt>
      <trkpt lat="43.22248" lon="5.61646">
        <ele>208.29296875</ele>
        <time>2019-09-21T08:25:19Z</time>
      </trkpt>
      <trkpt lat="43.22248" lon="5.61645">
        <ele>208.66796875</ele>
        <time>2019-09-21T08:25:20Z</time>
      </trkpt>
      <trkpt lat="43.22248" lon="5.61641">
        <ele>209.328125</ele>
        <time>2019-09-21T08:25:22Z</time>
      </trkpt>
      <trkpt lat="43.22248" lon="5.61624">
        <ele>212.546875</ele>
        <time>2019-09-21T08:25:32Z</time>
      </trkpt>
      <trkpt lat="43.22248" lon="5.61615">
        <ele>214.30078125</ele>
        <time>2019-09-21T08:25:38Z</time>
      </trkpt>
      <trkpt lat="43.22248" lon="5.61613">
        <ele>214.6328125</ele>
        <time>2019-09-21T08:25:39Z</time>
      </trkpt>
      <trkpt lat="43.22248" lon="5.61612">
        <ele>214.9453125</ele>
        <time>2019-09-21T08:25:40Z</time>
      </trkpt>
      <trkpt lat="43.22248" lon="5.6161">
        <ele>215.26953125</ele>
        <time>2019-09-21T08:25:41Z</time>
      </trkpt>
      <trkpt lat="43.22248" lon="5.61608">
        <ele>215.58984375</ele>
        <time>2019-09-21T08:25:42Z</time>
      </trkpt>
      <trkpt lat="43.22248" lon="5.61607">
        <ele>215.9296875</ele>
        <time>2019-09-21T08:25:43Z</time>
      </trkpt>
      <trkpt lat="43.22248" lon="5.61605">
        <ele>216.2421875</ele>
        <time>2019-09-21T08:25:44Z</time>
      </trkpt>
      <trkpt lat="43.22248" lon="5.61603">
        <ele>216.58984375</ele>
        <time>2019-09-21T08:25:45Z</time>
      </trkpt>
      <trkpt lat="43.22248" lon="5.61601">
        <ele>216.86328125</ele>
        <time>2019-09-21T08:25:46Z</time>
      </trkpt>
      <trkpt lat="43.22248" lon="5.61599">
        <ele>217.08203125</ele>
        <time>2019-09-21T08:25:47Z</time>
      </trkpt>
      <trkpt lat="43.22247" lon="5.61593">
        <ele>217.83984375</ele>
        <time>2019-09-21T08:25:51Z</time>
      </trkpt>
      <trkpt lat="43.22247" lon="5.61591">
        <ele>218.0625</ele>
        <time>2019-09-21T08:25:52Z</time>
      </trkpt>
      <trkpt lat="43.22248" lon="5.6159">
        <ele>218.30078125</ele>
        <time>2019-09-21T08:25:53Z</time>
      </trkpt>
      <trkpt lat="43.22248" lon="5.61579">
        <ele>219.625</ele>
        <time>2019-09-21T08:25:59Z</time>
      </trkpt>
      <trkpt lat="43.22249" lon="5.61578">
        <ele>219.87890625</ele>
        <time>2019-09-21T08:26:00Z</time>
      </trkpt>
      <trkpt lat="43.2225" lon="5.61577">
        <ele>220.14453125</ele>
        <time>2019-09-21T08:26:01Z</time>
      </trkpt>
      <trkpt lat="43.22251" lon="5.61575">
        <ele>220.3828125</ele>
        <time>2019-09-21T08:26:02Z</time>
      </trkpt>
      <trkpt lat="43.22252" lon="5.61575">
        <ele>220.5625</ele>
        <time>2019-09-21T08:26:03Z</time>
      </trkpt>
      <trkpt lat="43.22253" lon="5.61575">
        <ele>220.74609375</ele>
        <time>2019-09-21T08:26:04Z</time>
      </trkpt>
      <trkpt lat="43.22254" lon="5.61574">
        <ele>220.88671875</ele>
        <time>2019-09-21T08:26:05Z</time>
      </trkpt>
      <trkpt lat="43.22263" lon="5.61569">
        <ele>220.93359375</ele>
        <time>2019-09-21T08:26:15Z</time>
      </trkpt>
      <trkpt lat="43.22266" lon="5.61568">
        <ele>220.984375</ele>
        <time>2019-09-21T08:26:17Z</time>
      </trkpt>
      <trkpt lat="43.2228" lon="5.61565">
        <ele>221.359375</ele>
        <time>2019-09-21T08:26:30Z</time>
      </trkpt>
      <trkpt lat="43.22287" lon="5.61564">
        <ele>221.65625</ele>
        <time>2019-09-21T08:26:35Z</time>
      </trkpt>
      <trkpt lat="43.22288" lon="5.61564">
        <ele>221.703125</ele>
        <time>2019-09-21T08:26:36Z</time>
      </trkpt>
      <trkpt lat="43.22289" lon="5.61563">
        <ele>221.78515625</ele>
        <time>2019-09-21T08:26:37Z</time>
      </trkpt>
      <trkpt lat="43.22302" lon="5.61559">
        <ele>223.04296875</ele>
        <time>2019-09-21T08:26:51Z</time>
      </trkpt>
      <trkpt lat="43.22305" lon="5.61559">
        <ele>223.03125</ele>
        <time>2019-09-21T08:27:06Z</time>
      </trkpt>
      <trkpt lat="43.22314" lon="5.61555">
        <ele>224.359375</ele>
        <time>2019-09-21T08:27:19Z</time>
      </trkpt>
      <trkpt lat="43.22315" lon="5.61555">
        <ele>224.453125</ele>
        <time>2019-09-21T08:27:20Z</time>
      </trkpt>
      <trkpt lat="43.22316" lon="5.61555">
        <ele>224.54296875</ele>
        <time>2019-09-21T08:27:21Z</time>
      </trkpt>
      <trkpt lat="43.22317" lon="5.61555">
        <ele>224.6875</ele>
        <time>2019-09-21T08:27:22Z</time>
      </trkpt>
      <trkpt lat="43.22318" lon="5.61554">
        <ele>224.8828125</ele>
        <time>2019-09-21T08:27:23Z</time>
      </trkpt>
      <trkpt lat="43.22319" lon="5.61554">
        <ele>225.01953125</ele>
        <time>2019-09-21T08:27:24Z</time>
      </trkpt>
      <trkpt lat="43.2232" lon="5.61553">
        <ele>225.3046875</ele>
        <time>2019-09-21T08:27:25Z</time>
      </trkpt>
      <trkpt lat="43.22331" lon="5.61542">
        <ele>228.4921875</ele>
        <time>2019-09-21T08:27:39Z</time>
      </trkpt>
      <trkpt lat="43.22342" lon="5.61527">
        <ele>232.48046875</ele>
        <time>2019-09-21T08:27:53Z</time>
      </trkpt>
      <trkpt lat="43.22353" lon="5.61511">
        <ele>236.37890625</ele>
        <time>2019-09-21T08:28:06Z</time>
      </trkpt>
      <trkpt lat="43.22357" lon="5.61503">
        <ele>237.84765625</ele>
        <time>2019-09-21T08:28:12Z</time>
      </trkpt>
      <trkpt lat="43.22368" lon="5.61484">
        <ele>242.46875</ele>
        <time>2019-09-21T08:28:28Z</time>
      </trkpt>
      <trkpt lat="43.2237" lon="5.61481">
        <ele>243.109375</ele>
        <time>2019-09-21T08:28:30Z</time>
      </trkpt>
      <trkpt lat="43.2237" lon="5.6148">
        <ele>243.3828125</ele>
        <time>2019-09-21T08:28:31Z</time>
      </trkpt>
      <trkpt lat="43.22371" lon="5.61479">
        <ele>243.703125</ele>
        <time>2019-09-21T08:28:32Z</time>
      </trkpt>
      <trkpt lat="43.22372" lon="5.61478">
        <ele>244.06640625</ele>
        <time>2019-09-21T08:28:33Z</time>
      </trkpt>
      <trkpt lat="43.22373" lon="5.61477">
        <ele>244.40625</ele>
        <time>2019-09-21T08:28:34Z</time>
      </trkpt>
      <trkpt lat="43.22373" lon="5.61476">
        <ele>244.75390625</ele>
        <time>2019-09-21T08:28:35Z</time>
      </trkpt>
      <trkpt lat="43.22374" lon="5.61474">
        <ele>245.0703125</ele>
        <time>2019-09-21T08:28:36Z</time>
      </trkpt>
      <trkpt lat="43.22374" lon="5.61473">
        <ele>245.36328125</ele>
        <time>2019-09-21T08:28:37Z</time>
      </trkpt>
      <trkpt lat="43.22375" lon="5.61472">
        <ele>245.73046875</ele>
        <time>2019-09-21T08:28:38Z</time>
      </trkpt>
      <trkpt lat="43.22381" lon="5.61454">
        <ele>249.16015625</ele>
        <time>2019-09-21T08:28:52Z</time>
      </trkpt>
      <trkpt lat="43.22381" lon="5.61452">
        <ele>249.24609375</ele>
        <time>2019-09-21T08:28:53Z</time>
      </trkpt>
      <trkpt lat="43.22384" lon="5.61428">
        <ele>251.51953125</ele>
        <time>2019-09-21T08:29:09Z</time>
      </trkpt>
      <trkpt lat="43.22388" lon="5.61408">
        <ele>254.6953125</ele>
        <time>2019-09-21T08:29:24Z</time>
      </trkpt>
      <trkpt lat="43.22388" lon="5.61389">
        <ele>255.9375</ele>
        <time>2019-09-21T08:29:37Z</time>
      </trkpt>
      <trkpt lat="43.22388" lon="5.61363">
        <ele>258.359375</ele>
        <time>2019-09-21T08:29:53Z</time>
      </trkpt>
      <trkpt lat="43.22386" lon="5.61347">
        <ele>259.234375</ele>
        <time>2019-09-21T08:30:03Z</time>
      </trkpt>
      <trkpt lat="43.22384" lon="5.61347">
        <ele>258.7421875</ele>
        <time>2019-09-21T08:30:20Z</time>
      </trkpt>
      <trkpt lat="43.22384" lon="5.61345">
        <ele>258.95703125</ele>
        <time>2019-09-21T08:30:23Z</time>
      </trkpt>
      <trkpt lat="43.22384" lon="5.61344">
        <ele>258.96484375</ele>
        <time>2019-09-21T08:30:24Z</time>
      </trkpt>
      <trkpt lat="43.22384" lon="5.61342">
        <ele>259.03125</ele>
        <time>2019-09-21T08:30:25Z</time>
      </trkpt>
      <trkpt lat="43.22383" lon="5.61341">
        <ele>259.0078125</ele>
        <time>2019-09-21T08:30:26Z</time>
      </trkpt>
      <trkpt lat="43.22383" lon="5.61339">
        <ele>259.1484375</ele>
        <time>2019-09-21T08:30:27Z</time>
      </trkpt>
      <trkpt lat="43.22383" lon="5.61337">
        <ele>259.4140625</ele>
        <time>2019-09-21T08:30:28Z</time>
      </trkpt>
      <trkpt lat="43.22383" lon="5.61335">
        <ele>259.7890625</ele>
        <time>2019-09-21T08:30:29Z</time>
      </trkpt>
      <trkpt lat="43.22383" lon="5.61333">
        <ele>259.984375</ele>
        <time>2019-09-21T08:30:30Z</time>
      </trkpt>
      <trkpt lat="43.22381" lon="5.61323">
        <ele>260.59375</ele>
        <time>2019-09-21T08:30:38Z</time>
      </trkpt>
      <trkpt lat="43.22378" lon="5.61315">
        <ele>260.70703125</ele>
        <time>2019-09-21T08:30:44Z</time>
      </trkpt>
      <trkpt lat="43.22377" lon="5.61314">
        <ele>260.6015625</ele>
        <time>2019-09-21T08:30:45Z</time>
      </trkpt>
      <trkpt lat="43.22376" lon="5.61313">
        <ele>260.59765625</ele>
        <time>2019-09-21T08:30:46Z</time>
      </trkpt>
      <trkpt lat="43.22363" lon="5.61296">
        <ele>259.3984375</ele>
        <time>2019-09-21T08:31:01Z</time>
      </trkpt>
      <trkpt lat="43.22351" lon="5.61289">
        <ele>258.2890625</ele>
        <time>2019-09-21T08:31:14Z</time>
      </trkpt>
      <trkpt lat="43.2235" lon="5.61289">
        <ele>258.0078125</ele>
        <time>2019-09-21T08:31:15Z</time>
      </trkpt>
      <trkpt lat="43.22344" lon="5.61287">
        <ele>257.20703125</ele>
        <time>2019-09-21T08:31:20Z</time>
      </trkpt>
      <trkpt lat="43.22326" lon="5.61281">
        <ele>256.02734375</ele>
        <time>2019-09-21T08:31:37Z</time>
      </trkpt>
      <trkpt lat="43.22316" lon="5.61278">
        <ele>255.63671875</ele>
        <time>2019-09-21T08:31:46Z</time>
      </trkpt>
      <trkpt lat="43.22315" lon="5.61278">
        <ele>255.59375</ele>
        <time>2019-09-21T08:31:47Z</time>
      </trkpt>
      <trkpt lat="43.22297" lon="5.61272">
        <ele>255.19140625</ele>
        <time>2019-09-21T08:32:02Z</time>
      </trkpt>
      <trkpt lat="43.22296" lon="5.61271">
        <ele>255.33203125</ele>
        <time>2019-09-21T08:32:03Z</time>
      </trkpt>
      <trkpt lat="43.2228" lon="5.61257">
        <ele>257.15625</ele>
        <time>2019-09-21T08:32:17Z</time>
      </trkpt>
      <trkpt lat="43.22277" lon="5.6125">
        <ele>258.53125</ele>
        <time>2019-09-21T08:32:21Z</time>
      </trkpt>
      <trkpt lat="43.22276" lon="5.61248">
        <ele>259.07421875</ele>
        <time>2019-09-21T08:32:22Z</time>
      </trkpt>
      <trkpt lat="43.22277" lon="5.61247">
        <ele>259.59375</ele>
        <time>2019-09-21T08:32:23Z</time>
      </trkpt>
      <trkpt lat="43.22283" lon="5.61239">
        <ele>261.86328125</ele>
        <time>2019-09-21T08:32:36Z</time>
      </trkpt>
      <trkpt lat="43.22285" lon="5.61237">
        <ele>262.15625</ele>
        <time>2019-09-21T08:32:52Z</time>
      </trkpt>
      <trkpt lat="43.22286" lon="5.61238">
        <ele>262.2578125</ele>
        <time>2019-09-21T08:33:13Z</time>
      </trkpt>
      <trkpt lat="43.22285" lon="5.61236">
        <ele>262.1328125</ele>
        <time>2019-09-21T08:33:56Z</time>
      </trkpt>
      <trkpt lat="43.22285" lon="5.61237">
        <ele>262.125</ele>
        <time>2019-09-21T08:34:44Z</time>
      </trkpt>
      <trkpt lat="43.22287" lon="5.61239">
        <ele>262.3984375</ele>
        <time>2019-09-21T08:35:07Z</time>
      </trkpt>
      <trkpt lat="43.22291" lon="5.61245">
        <ele>262.0859375</ele>
        <time>2019-09-21T08:35:16Z</time>
      </trkpt>
      <trkpt lat="43.22291" lon="5.61245">
        <ele>262.046875</ele>
        <time>2019-09-21T08:35:47Z</time>
      </trkpt>
      <trkpt lat="43.2229" lon="5.61243">
        <ele>262.51953125</ele>
        <time>2019-09-21T08:36:33Z</time>
      </trkpt>
      <trkpt lat="43.2229" lon="5.61243">
        <ele>262.5625</ele>
        <time>2019-09-21T08:37:13Z</time>
      </trkpt>
      <trkpt lat="43.2229" lon="5.61244">
        <ele>262.21484375</ele>
        <time>2019-09-21T08:37:44Z</time>
      </trkpt>
      <trkpt lat="43.2229" lon="5.61244">
        <ele>262.28125</ele>
        <time>2019-09-21T08:38:17Z</time>
      </trkpt>
      <trkpt lat="43.2229" lon="5.61246">
        <ele>261.796875</ele>
        <time>2019-09-21T08:38:52Z</time>
      </trkpt>
      <trkpt lat="43.22288" lon="5.61243">
        <ele>262.12890625</ele>
        <time>2019-09-21T08:39:29Z</time>
      </trkpt>
      <trkpt lat="43.22289" lon="5.61246">
        <ele>261.46875</ele>
        <time>2019-09-21T08:39:40Z</time>
      </trkpt>
      <trkpt lat="43.22292" lon="5.61247">
        <ele>261.6015625</ele>
        <time>2019-09-21T08:40:15Z</time>
      </trkpt>
      <trkpt lat="43.22291" lon="5.61247">
        <ele>261.4921875</ele>
        <time>2019-09-21T08:40:53Z</time>
      </trkpt>
      <trkpt lat="43.2229" lon="5.61248">
        <ele>261.171875</ele>
        <time>2019-09-21T08:41:13Z</time>
      </trkpt>
      <trkpt lat="43.22291" lon="5.61245">
        <ele>262.02734375</ele>
        <time>2019-09-21T08:41:38Z</time>
      </trkpt>
      <trkpt lat="43.22293" lon="5.61244">
        <ele>262.62109375</ele>
        <time>2019-09-21T08:41:41Z</time>
      </trkpt>
      <trkpt lat="43.22294" lon="5.61244">
        <ele>262.8515625</ele>
        <time>2019-09-21T08:41:42Z</time>
      </trkpt>
      <trkpt lat="43.22296" lon="5.61245">
        <ele>262.9609375</ele>
        <time>2019-09-21T08:41:43Z</time>
      </trkpt>
      <trkpt lat="43.22298" lon="5.61245">
        <ele>263.14453125</ele>
        <time>2019-09-21T08:41:44Z</time>
      </trkpt>
      <trkpt lat="43.22299" lon="5.61245">
        <ele>263.37890625</ele>
        <time>2019-09-21T08:41:45Z</time>
      </trkpt>
      <trkpt lat="43.22301" lon="5.61245">
        <ele>263.56640625</ele>
        <time>2019-09-21T08:41:46Z</time>
      </trkpt>
      <trkpt lat="43.22309" lon="5.61246">
        <ele>264.51171875</ele>
        <time>2019-09-21T08:41:50Z</time>
      </trkpt>
      <trkpt lat="43.22331" lon="5.61243">
        <ele>267.7890625</ele>
        <time>2019-09-21T08:42:05Z</time>
      </trkpt>
      <trkpt lat="43.22343" lon="5.6124">
        <ele>269.890625</ele>
        <time>2019-09-21T08:42:16Z</time>
      </trkpt>
      <trkpt lat="43.22361" lon="5.61237">
        <ele>273.73828125</ele>
        <time>2019-09-21T08:42:32Z</time>
      </trkpt>
      <trkpt lat="43.22378" lon="5.61235">
        <ele>277.6328125</ele>
        <time>2019-09-21T08:42:47Z</time>
      </trkpt>
      <trkpt lat="43.22395" lon="5.6124">
        <ele>281.32421875</ele>
        <time>2019-09-21T08:43:02Z</time>
      </trkpt>
      <trkpt lat="43.22404" lon="5.61246">
        <ele>282.1875</ele>
        <time>2019-09-21T08:43:11Z</time>
      </trkpt>
      <trkpt lat="43.22411" lon="5.61252">
        <ele>282.74609375</ele>
        <time>2019-09-21T08:43:18Z</time>
      </trkpt>
      <trkpt lat="43.22412" lon="5.61253">
        <ele>282.7890625</ele>
        <time>2019-09-21T08:43:19Z</time>
      </trkpt>
      <trkpt lat="43.22414" lon="5.61253">
        <ele>282.93359375</ele>
        <time>2019-09-21T08:43:20Z</time>
      </trkpt>
      <trkpt lat="43.22424" lon="5.61261">
        <ele>283.859375</ele>
        <time>2019-09-21T08:43:31Z</time>
      </trkpt>
      <trkpt lat="43.22431" lon="5.61267">
        <ele>284.2265625</ele>
        <time>2019-09-21T08:43:39Z</time>
      </trkpt>
      <trkpt lat="43.22432" lon="5.61268">
        <ele>284.36328125</ele>
        <time>2019-09-21T08:43:40Z</time>
      </trkpt>
      <trkpt lat="43.22433" lon="5.61269">
        <ele>284.421875</ele>
        <time>2019-09-21T08:43:41Z</time>
      </trkpt>
      <trkpt lat="43.22434" lon="5.6127">
        <ele>284.5078125</ele>
        <time>2019-09-21T08:43:42Z</time>
      </trkpt>
      <trkpt lat="43.22435" lon="5.61271">
        <ele>284.515625</ele>
        <time>2019-09-21T08:43:43Z</time>
      </trkpt>
      <trkpt lat="43.22436" lon="5.61272">
        <ele>284.58203125</ele>
        <time>2019-09-21T08:43:44Z</time>
      </trkpt>
      <trkpt lat="43.22451" lon="5.61285">
        <ele>285.81640625</ele>
        <time>2019-09-21T08:44:00Z</time>
      </trkpt>
      <trkpt lat="43.2246" lon="5.61293">
        <ele>285.31640625</ele>
        <time>2019-09-21T08:44:13Z</time>
      </trkpt>
      <trkpt lat="43.22477" lon="5.61305">
        <ele>285.16015625</ele>
        <time>2019-09-21T08:44:29Z</time>
      </trkpt>
      <trkpt lat="43.22497" lon="5.61321">
        <ele>284.03125</ele>
        <time>2019-09-21T08:44:42Z</time>
      </trkpt>
      <trkpt lat="43.225" lon="5.61322">
        <ele>284.01953125</ele>
        <time>2019-09-21T08:44:43Z</time>
      </trkpt>
      <trkpt lat="43.22502" lon="5.61323">
        <ele>283.97265625</ele>
        <time>2019-09-21T08:44:44Z</time>
      </trkpt>
      <trkpt lat="43.22504" lon="5.61325">
        <ele>283.8515625</ele>
        <time>2019-09-21T08:44:45Z</time>
      </trkpt>
      <trkpt lat="43.22506" lon="5.61327">
        <ele>283.515625</ele>
        <time>2019-09-21T08:44:46Z</time>
      </trkpt>
      <trkpt lat="43.22508" lon="5.61328">
        <ele>283.046875</ele>
        <time>2019-09-21T08:44:47Z</time>
      </trkpt>
      <trkpt lat="43.22548" lon="5.61348">
        <ele>276.33203125</ele>
        <time>2019-09-21T08:45:00Z</time>
      </trkpt>
      <trkpt lat="43.22568" lon="5.61351">
        <ele>273.78515625</ele>
        <time>2019-09-21T08:45:03Z</time>
      </trkpt>
      <trkpt lat="43.22575" lon="5.61351">
        <ele>273.3046875</ele>
        <time>2019-09-21T08:45:04Z</time>
      </trkpt>
      <trkpt lat="43.22583" lon="5.61349">
        <ele>272.98828125</ele>
        <time>2019-09-21T08:45:05Z</time>
      </trkpt>
      <trkpt lat="43.2259" lon="5.61347">
        <ele>272.94140625</ele>
        <time>2019-09-21T08:45:06Z</time>
      </trkpt>
      <trkpt lat="43.22596" lon="5.61343">
        <ele>273.3515625</ele>
        <time>2019-09-21T08:45:07Z</time>
      </trkpt>
      <trkpt lat="43.22602" lon="5.61339">
        <ele>274.109375</ele>
        <time>2019-09-21T08:45:08Z</time>
      </trkpt>
      <trkpt lat="43.22625" lon="5.61323">
        <ele>278.55859375</ele>
        <time>2019-09-21T08:45:12Z</time>
      </trkpt>
      <trkpt lat="43.22652" lon="5.61301">
        <ele>284.0859375</ele>
        <time>2019-09-21T08:45:21Z</time>
      </trkpt>
      <trkpt lat="43.2267" lon="5.61277">
        <ele>288.828125</ele>
        <time>2019-09-21T08:45:35Z</time>
      </trkpt>
      <trkpt lat="43.2269" lon="5.61262">
        <ele>291.64453125</ele>
        <time>2019-09-21T08:45:51Z</time>
      </trkpt>
      <trkpt lat="43.227" lon="5.61258">
        <ele>292.20703125</ele>
        <time>2019-09-21T08:45:58Z</time>
      </trkpt>
      <trkpt lat="43.22725" lon="5.61261">
        <ele>293.07421875</ele>
        <time>2019-09-21T08:46:15Z</time>
      </trkpt>
      <trkpt lat="43.22738" lon="5.61268">
        <ele>293.45703125</ele>
        <time>2019-09-21T08:46:25Z</time>
      </trkpt>
      <trkpt lat="43.22739" lon="5.61269">
        <ele>293.5859375</ele>
        <time>2019-09-21T08:46:26Z</time>
      </trkpt>
      <trkpt lat="43.2274" lon="5.6127">
        <ele>293.546875</ele>
        <time>2019-09-21T08:46:27Z</time>
      </trkpt>
      <trkpt lat="43.22741" lon="5.61271">
        <ele>293.5078125</ele>
        <time>2019-09-21T08:46:28Z</time>
      </trkpt>
      <trkpt lat="43.22742" lon="5.61271">
        <ele>293.47265625</ele>
        <time>2019-09-21T08:46:29Z</time>
      </trkpt>
      <trkpt lat="43.22743" lon="5.61272">
        <ele>293.44140625</ele>
        <time>2019-09-21T08:46:30Z</time>
      </trkpt>
      <trkpt lat="43.22745" lon="5.61273">
        <ele>293.41015625</ele>
        <time>2019-09-21T08:46:31Z</time>
      </trkpt>
      <trkpt lat="43.22746" lon="5.61273">
        <ele>293.38671875</ele>
        <time>2019-09-21T08:46:32Z</time>
      </trkpt>
      <trkpt lat="43.22747" lon="5.61274">
        <ele>293.3671875</ele>
        <time>2019-09-21T08:46:33Z</time>
      </trkpt>
      <trkpt lat="43.22748" lon="5.61275">
        <ele>293.3515625</ele>
        <time>2019-09-21T08:46:34Z</time>
      </trkpt>
      <trkpt lat="43.22749" lon="5.61276">
        <ele>293.3515625</ele>
        <time>2019-09-21T08:46:35Z</time>
      </trkpt>
      <trkpt lat="43.2275" lon="5.61277">
        <ele>293.3671875</ele>
        <time>2019-09-21T08:46:36Z</time>
      </trkpt>
      <trkpt lat="43.22751" lon="5.61278">
        <ele>293.37890625</ele>
        <time>2019-09-21T08:46:37Z</time>
      </trkpt>
      <trkpt lat="43.22752" lon="5.61279">
        <ele>293.39453125</ele>
        <time>2019-09-21T08:46:38Z</time>
      </trkpt>
      <trkpt lat="43.22753" lon="5.6128">
        <ele>293.41015625</ele>
        <time>2019-09-21T08:46:39Z</time>
      </trkpt>
      <trkpt lat="43.22757" lon="5.61284">
        <ele>293.4140625</ele>
        <time>2019-09-21T08:46:43Z</time>
      </trkpt>
      <trkpt lat="43.22768" lon="5.61295">
        <ele>293.37109375</ele>
        <time>2019-09-21T08:46:56Z</time>
      </trkpt>
      <trkpt lat="43.22779" lon="5.61303">
        <ele>293.2734375</ele>
        <time>2019-09-21T08:47:08Z</time>
      </trkpt>
      <trkpt lat="43.22793" lon="5.61316">
        <ele>293.0859375</ele>
        <time>2019-09-21T08:47:25Z</time>
      </trkpt>
      <trkpt lat="43.22814" lon="5.61333">
        <ele>292.4375</ele>
        <time>2019-09-21T08:47:41Z</time>
      </trkpt>
      <trkpt lat="43.22833" lon="5.61353">
        <ele>293.40234375</ele>
        <time>2019-09-21T08:47:54Z</time>
      </trkpt>
      <trkpt lat="43.22858" lon="5.61386">
        <ele>298.41015625</ele>
        <time>2019-09-21T08:48:09Z</time>
      </trkpt>
      <trkpt lat="43.22873" lon="5.61406">
        <ele>299.375</ele>
        <time>2019-09-21T08:48:22Z</time>
      </trkpt>
      <trkpt lat="43.22873" lon="5.61408">
        <ele>299.1796875</ele>
        <time>2019-09-21T08:48:36Z</time>
      </trkpt>
      <trkpt lat="43.22874" lon="5.61407">
        <ele>299.4296875</ele>
        <time>2019-09-21T08:48:57Z</time>
      </trkpt>
      <trkpt lat="43.22877" lon="5.61408">
        <ele>299.8515625</ele>
        <time>2019-09-21T08:49:15Z</time>
      </trkpt>
      <trkpt lat="43.22878" lon="5.6141">
        <ele>299.9375</ele>
        <time>2019-09-21T08:49:16Z</time>
      </trkpt>
      <trkpt lat="43.22897" lon="5.61423">
        <ele>301.3203125</ele>
        <time>2019-09-21T08:49:30Z</time>
      </trkpt>
      <trkpt lat="43.22919" lon="5.61424">
        <ele>304.3359375</ele>
        <time>2019-09-21T08:49:45Z</time>
      </trkpt>
      <trkpt lat="43.22938" lon="5.61422">
        <ele>307</ele>
        <time>2019-09-21T08:49:58Z</time>
      </trkpt>
      <trkpt lat="43.2296" lon="5.61422">
        <ele>310.60546875</ele>
        <time>2019-09-21T08:50:12Z</time>
      </trkpt>
      <trkpt lat="43.22978" lon="5.61427">
        <ele>313.76953125</ele>
        <time>2019-09-21T08:50:24Z</time>
      </trkpt>
      <trkpt lat="43.22994" lon="5.61435">
        <ele>317.3671875</ele>
        <time>2019-09-21T08:50:37Z</time>
      </trkpt>
      <trkpt lat="43.23" lon="5.61441">
        <ele>318.2265625</ele>
        <time>2019-09-21T08:50:41Z</time>
      </trkpt>
      <trkpt lat="43.23009" lon="5.61459">
        <ele>317.96484375</ele>
        <time>2019-09-21T08:50:52Z</time>
      </trkpt>
      <trkpt lat="43.23019" lon="5.61489">
        <ele>312.94140625</ele>
        <time>2019-09-21T08:51:08Z</time>
      </trkpt>
      <trkpt lat="43.23038" lon="5.61516">
        <ele>304.99609375</ele>
        <time>2019-09-21T08:51:26Z</time>
      </trkpt>
      <trkpt lat="43.23043" lon="5.61519">
        <ele>303.1796875</ele>
        <time>2019-09-21T08:51:30Z</time>
      </trkpt>
      <trkpt lat="43.23045" lon="5.61518">
        <ele>302.98046875</ele>
        <time>2019-09-21T08:51:31Z</time>
      </trkpt>
      <trkpt lat="43.23054" lon="5.61517">
        <ele>301.75390625</ele>
        <time>2019-09-21T08:51:44Z</time>
      </trkpt>
      <trkpt lat="43.23055" lon="5.61516">
        <ele>302.05859375</ele>
        <time>2019-09-21T08:52:07Z</time>
      </trkpt>
      <trkpt lat="43.23056" lon="5.61514">
        <ele>302.61328125</ele>
        <time>2019-09-21T08:52:10Z</time>
      </trkpt>
      <trkpt lat="43.23057" lon="5.61512">
        <ele>303.24609375</ele>
        <time>2019-09-21T08:52:12Z</time>
      </trkpt>
      <trkpt lat="43.2308" lon="5.61489">
        <ele>307.2265625</ele>
        <time>2019-09-21T08:52:25Z</time>
      </trkpt>
      <trkpt lat="43.23112" lon="5.61477">
        <ele>308.24609375</ele>
        <time>2019-09-21T08:52:39Z</time>
      </trkpt>
      <trkpt lat="43.23148" lon="5.61467">
        <ele>307.984375</ele>
        <time>2019-09-21T08:52:55Z</time>
      </trkpt>
      <trkpt lat="43.23179" lon="5.61455">
        <ele>307.83203125</ele>
        <time>2019-09-21T08:53:10Z</time>
      </trkpt>
      <trkpt lat="43.23208" lon="5.61434">
        <ele>312.265625</ele>
        <time>2019-09-21T08:53:25Z</time>
      </trkpt>
      <trkpt lat="43.23232" lon="5.6142">
        <ele>316.078125</ele>
        <time>2019-09-21T08:53:39Z</time>
      </trkpt>
      <trkpt lat="43.23258" lon="5.6141">
        <ele>318.41796875</ele>
        <time>2019-09-21T08:53:54Z</time>
      </trkpt>
      <trkpt lat="43.23284" lon="5.61403">
        <ele>323.3984375</ele>
        <time>2019-09-21T08:54:06Z</time>
      </trkpt>
      <trkpt lat="43.23316" lon="5.61396">
        <ele>330.65234375</ele>
        <time>2019-09-21T08:54:21Z</time>
      </trkpt>
      <trkpt lat="43.23343" lon="5.61401">
        <ele>332.7421875</ele>
        <time>2019-09-21T08:54:36Z</time>
      </trkpt>
      <trkpt lat="43.23368" lon="5.61417">
        <ele>329.54296875</ele>
        <time>2019-09-21T08:54:51Z</time>
      </trkpt>
      <trkpt lat="43.23391" lon="5.61422">
        <ele>329.609375</ele>
        <time>2019-09-21T08:55:04Z</time>
      </trkpt>
      <trkpt lat="43.23414" lon="5.61421">
        <ele>330.96484375</ele>
        <time>2019-09-21T08:55:18Z</time>
      </trkpt>
      <trkpt lat="43.23416" lon="5.61421">
        <ele>330.9921875</ele>
        <time>2019-09-21T08:55:19Z</time>
      </trkpt>
      <trkpt lat="43.23438" lon="5.61418">
        <ele>333.07421875</ele>
        <time>2019-09-21T08:55:34Z</time>
      </trkpt>
      <trkpt lat="43.23463" lon="5.61418">
        <ele>333.86328125</ele>
        <time>2019-09-21T08:55:50Z</time>
      </trkpt>
      <trkpt lat="43.23483" lon="5.61417">
        <ele>335.05859375</ele>
        <time>2019-09-21T08:56:03Z</time>
      </trkpt>
      <trkpt lat="43.23494" lon="5.61415">
        <ele>336.5234375</ele>
        <time>2019-09-21T08:56:10Z</time>
      </trkpt>
      <trkpt lat="43.23514" lon="5.6141">
        <ele>340.0703125</ele>
        <time>2019-09-21T08:56:23Z</time>
      </trkpt>
      <trkpt lat="43.2354" lon="5.61408">
        <ele>342.69921875</ele>
        <time>2019-09-21T08:56:39Z</time>
      </trkpt>
      <trkpt lat="43.23565" lon="5.61411">
        <ele>340.828125</ele>
        <time>2019-09-21T08:56:54Z</time>
      </trkpt>
      <trkpt lat="43.23591" lon="5.61405">
        <ele>341.4375</ele>
        <time>2019-09-21T08:57:07Z</time>
      </trkpt>
      <trkpt lat="43.23602" lon="5.61398">
        <ele>342.07421875</ele>
        <time>2019-09-21T08:57:16Z</time>
      </trkpt>
      <trkpt lat="43.23603" lon="5.61397">
        <ele>342.18359375</ele>
        <time>2019-09-21T08:57:17Z</time>
      </trkpt>
      <trkpt lat="43.23618" lon="5.61386">
        <ele>343.8203125</ele>
        <time>2019-09-21T08:57:30Z</time>
      </trkpt>
      <trkpt lat="43.23619" lon="5.61385">
        <ele>343.8828125</ele>
        <time>2019-09-21T08:57:31Z</time>
      </trkpt>
      <trkpt lat="43.2362" lon="5.61384">
        <ele>344.05078125</ele>
        <time>2019-09-21T08:57:32Z</time>
      </trkpt>
      <trkpt lat="43.23634" lon="5.61368">
        <ele>346.30078125</ele>
        <time>2019-09-21T08:57:44Z</time>
      </trkpt>
      <trkpt lat="43.23649" lon="5.61352">
        <ele>347.83984375</ele>
        <time>2019-09-21T08:57:57Z</time>
      </trkpt>
      <trkpt lat="43.23662" lon="5.61328">
        <ele>349.8125</ele>
        <time>2019-09-21T08:58:13Z</time>
      </trkpt>
      <trkpt lat="43.23663" lon="5.61327">
        <ele>349.9921875</ele>
        <time>2019-09-21T08:58:14Z</time>
      </trkpt>
      <trkpt lat="43.23663" lon="5.61325">
        <ele>350.08203125</ele>
        <time>2019-09-21T08:58:15Z</time>
      </trkpt>
      <trkpt lat="43.23664" lon="5.61324">
        <ele>350.1328125</ele>
        <time>2019-09-21T08:58:16Z</time>
      </trkpt>
      <trkpt lat="43.23665" lon="5.61323">
        <ele>350.28515625</ele>
        <time>2019-09-21T08:58:17Z</time>
      </trkpt>
      <trkpt lat="43.23675" lon="5.61301">
        <ele>352</ele>
        <time>2019-09-21T08:58:30Z</time>
      </trkpt>
      <trkpt lat="43.23683" lon="5.61284">
        <ele>354.046875</ele>
        <time>2019-09-21T08:58:40Z</time>
      </trkpt>
      <trkpt lat="43.23683" lon="5.61283">
        <ele>354.23046875</ele>
        <time>2019-09-21T08:58:41Z</time>
      </trkpt>
      <trkpt lat="43.23684" lon="5.61281">
        <ele>354.421875</ele>
        <time>2019-09-21T08:58:42Z</time>
      </trkpt>
      <trkpt lat="43.23684" lon="5.61279">
        <ele>354.6171875</ele>
        <time>2019-09-21T08:58:43Z</time>
      </trkpt>
      <trkpt lat="43.23685" lon="5.61277">
        <ele>354.8125</ele>
        <time>2019-09-21T08:58:44Z</time>
      </trkpt>
      <trkpt lat="43.23686" lon="5.61275">
        <ele>355.0390625</ele>
        <time>2019-09-21T08:58:45Z</time>
      </trkpt>
      <trkpt lat="43.23688" lon="5.61252">
        <ele>358.05078125</ele>
        <time>2019-09-21T08:58:59Z</time>
      </trkpt>
      <trkpt lat="43.23688" lon="5.6125">
        <ele>358.1953125</ele>
        <time>2019-09-21T08:59:00Z</time>
      </trkpt>
      <trkpt lat="43.23689" lon="5.61248">
        <ele>358.28515625</ele>
        <time>2019-09-21T08:59:01Z</time>
      </trkpt>
      <trkpt lat="43.23693" lon="5.6122">
        <ele>360.60546875</ele>
        <time>2019-09-21T08:59:14Z</time>
      </trkpt>
      <trkpt lat="43.23694" lon="5.61204">
        <ele>361.93359375</ele>
        <time>2019-09-21T08:59:22Z</time>
      </trkpt>
      <trkpt lat="43.23694" lon="5.61203">
        <ele>361.98828125</ele>
        <time>2019-09-21T08:59:23Z</time>
      </trkpt>
      <trkpt lat="43.23696" lon="5.61187">
        <ele>362.8125</ele>
        <time>2019-09-21T08:59:33Z</time>
      </trkpt>
      <trkpt lat="43.23704" lon="5.61152">
        <ele>367.1015625</ele>
        <time>2019-09-21T08:59:50Z</time>
      </trkpt>
      <trkpt lat="43.23716" lon="5.61121">
        <ele>370.19921875</ele>
        <time>2019-09-21T09:00:07Z</time>
      </trkpt>
      <trkpt lat="43.2373" lon="5.61095">
        <ele>373.3359375</ele>
        <time>2019-09-21T09:00:21Z</time>
      </trkpt>
      <trkpt lat="43.23745" lon="5.61073">
        <ele>377.26953125</ele>
        <time>2019-09-21T09:00:35Z</time>
      </trkpt>
      <trkpt lat="43.23752" lon="5.61064">
        <ele>378.50390625</ele>
        <time>2019-09-21T09:00:41Z</time>
      </trkpt>
      <trkpt lat="43.23754" lon="5.61064">
        <ele>378.5234375</ele>
        <time>2019-09-21T09:00:42Z</time>
      </trkpt>
      <trkpt lat="43.23756" lon="5.61065">
        <ele>378.55078125</ele>
        <time>2019-09-21T09:00:54Z</time>
      </trkpt>
      <trkpt lat="43.23755" lon="5.61063">
        <ele>378.69921875</ele>
        <time>2019-09-21T09:01:16Z</time>
      </trkpt>
      <trkpt lat="43.23756" lon="5.61064">
        <ele>378.66015625</ele>
        <time>2019-09-21T09:01:41Z</time>
      </trkpt>
      <trkpt lat="43.23757" lon="5.61066">
        <ele>378.44140625</ele>
        <time>2019-09-21T09:01:52Z</time>
      </trkpt>
      <trkpt lat="43.23759" lon="5.61068">
        <ele>378.2421875</ele>
        <time>2019-09-21T09:01:53Z</time>
      </trkpt>
      <trkpt lat="43.23762" lon="5.61069">
        <ele>378.10546875</ele>
        <time>2019-09-21T09:01:54Z</time>
      </trkpt>
      <trkpt lat="43.23765" lon="5.61071">
        <ele>377.9921875</ele>
        <time>2019-09-21T09:01:55Z</time>
      </trkpt>
      <trkpt lat="43.2377" lon="5.61073">
        <ele>377.88671875</ele>
        <time>2019-09-21T09:01:56Z</time>
      </trkpt>
      <trkpt lat="43.23775" lon="5.61075">
        <ele>377.6875</ele>
        <time>2019-09-21T09:01:57Z</time>
      </trkpt>
      <trkpt lat="43.23807" lon="5.61093">
        <ele>377.09375</ele>
        <time>2019-09-21T09:02:03Z</time>
      </trkpt>
      <trkpt lat="43.23835" lon="5.6111">
        <ele>378.6484375</ele>
        <time>2019-09-21T09:02:08Z</time>
      </trkpt>
      <trkpt lat="43.23841" lon="5.61113">
        <ele>379.515625</ele>
        <time>2019-09-21T09:02:09Z</time>
      </trkpt>
      <trkpt lat="43.23853" lon="5.61119">
        <ele>381.453125</ele>
        <time>2019-09-21T09:02:11Z</time>
      </trkpt>
      <trkpt lat="43.23872" lon="5.61128">
        <ele>384.89453125</ele>
        <time>2019-09-21T09:02:15Z</time>
      </trkpt>
      <trkpt lat="43.23871" lon="5.61126">
        <ele>384.65625</ele>
        <time>2019-09-21T09:02:24Z</time>
      </trkpt>
      <trkpt lat="43.23868" lon="5.61128">
        <ele>384.3125</ele>
        <time>2019-09-21T09:02:36Z</time>
      </trkpt>
      <trkpt lat="43.23867" lon="5.61129">
        <ele>384.1640625</ele>
        <time>2019-09-21T09:02:37Z</time>
      </trkpt>
      <trkpt lat="43.23865" lon="5.6113">
        <ele>383.9453125</ele>
        <time>2019-09-21T09:02:38Z</time>
      </trkpt>
      <trkpt lat="43.23862" lon="5.61132">
        <ele>383.75390625</ele>
        <time>2019-09-21T09:02:39Z</time>
      </trkpt>
      <trkpt lat="43.23859" lon="5.61134">
        <ele>383.38671875</ele>
        <time>2019-09-21T09:02:40Z</time>
      </trkpt>
      <trkpt lat="43.23855" lon="5.61134">
        <ele>382.7734375</ele>
        <time>2019-09-21T09:02:41Z</time>
      </trkpt>
      <trkpt lat="43.2385" lon="5.61135">
        <ele>381.91796875</ele>
        <time>2019-09-21T09:02:42Z</time>
      </trkpt>
      <trkpt lat="43.23844" lon="5.61135">
        <ele>380.9453125</ele>
        <time>2019-09-21T09:02:43Z</time>
      </trkpt>
      <trkpt lat="43.2384" lon="5.61135">
        <ele>380.10546875</ele>
        <time>2019-09-21T09:02:44Z</time>
      </trkpt>
      <trkpt lat="43.23835" lon="5.61136">
        <ele>379.3984375</ele>
        <time>2019-09-21T09:02:45Z</time>
      </trkpt>
      <trkpt lat="43.23832" lon="5.61137">
        <ele>378.7578125</ele>
        <time>2019-09-21T09:02:46Z</time>
      </trkpt>
      <trkpt lat="43.23829" lon="5.61138">
        <ele>378.30859375</ele>
        <time>2019-09-21T09:02:47Z</time>
      </trkpt>
      <trkpt lat="43.23822" lon="5.61142">
        <ele>377.25</ele>
        <time>2019-09-21T09:02:49Z</time>
      </trkpt>
      <trkpt lat="43.23818" lon="5.61143">
        <ele>376.53125</ele>
        <time>2019-09-21T09:02:50Z</time>
      </trkpt>
      <trkpt lat="43.23808" lon="5.61145">
        <ele>374.80859375</ele>
        <time>2019-09-21T09:02:52Z</time>
      </trkpt>
      <trkpt lat="43.23803" lon="5.61147">
        <ele>374.10546875</ele>
        <time>2019-09-21T09:02:53Z</time>
      </trkpt>
      <trkpt lat="43.23787" lon="5.61155">
        <ele>371.7890625</ele>
        <time>2019-09-21T09:02:57Z</time>
      </trkpt>
      <trkpt lat="43.2378" lon="5.61159">
        <ele>370.578125</ele>
        <time>2019-09-21T09:02:59Z</time>
      </trkpt>
      <trkpt lat="43.23776" lon="5.61162">
        <ele>370.08984375</ele>
        <time>2019-09-21T09:03:00Z</time>
      </trkpt>
      <trkpt lat="43.23773" lon="5.61165">
        <ele>369.54296875</ele>
        <time>2019-09-21T09:03:01Z</time>
      </trkpt>
      <trkpt lat="43.23769" lon="5.61167">
        <ele>368.77734375</ele>
        <time>2019-09-21T09:03:02Z</time>
      </trkpt>
      <trkpt lat="43.23764" lon="5.6117">
        <ele>367.82421875</ele>
        <time>2019-09-21T09:03:03Z</time>
      </trkpt>
      <trkpt lat="43.2376" lon="5.61173">
        <ele>366.86328125</ele>
        <time>2019-09-21T09:03:04Z</time>
      </trkpt>
      <trkpt lat="43.23756" lon="5.61177">
        <ele>365.7734375</ele>
        <time>2019-09-21T09:03:05Z</time>
      </trkpt>
      <trkpt lat="43.23752" lon="5.61181">
        <ele>364.5390625</ele>
        <time>2019-09-21T09:03:06Z</time>
      </trkpt>
      <trkpt lat="43.23739" lon="5.61199">
        <ele>360.6484375</ele>
        <time>2019-09-21T09:03:09Z</time>
      </trkpt>
      <trkpt lat="43.23736" lon="5.61204">
        <ele>359.625</ele>
        <time>2019-09-21T09:03:10Z</time>
      </trkpt>
      <trkpt lat="43.23735" lon="5.61209">
        <ele>358.8359375</ele>
        <time>2019-09-21T09:03:11Z</time>
      </trkpt>
      <trkpt lat="43.23733" lon="5.61214">
        <ele>358.16015625</ele>
        <time>2019-09-21T09:03:12Z</time>
      </trkpt>
      <trkpt lat="43.23733" lon="5.6122">
        <ele>357.7578125</ele>
        <time>2019-09-21T09:03:13Z</time>
      </trkpt>
      <trkpt lat="43.23732" lon="5.61227">
        <ele>357.3828125</ele>
        <time>2019-09-21T09:03:14Z</time>
      </trkpt>
      <trkpt lat="43.23732" lon="5.61254">
        <ele>355.81640625</ele>
        <time>2019-09-21T09:03:18Z</time>
      </trkpt>
      <trkpt lat="43.23727" lon="5.61293">
        <ele>352.3203125</ele>
        <time>2019-09-21T09:03:24Z</time>
      </trkpt>
      <trkpt lat="43.23725" lon="5.61329">
        <ele>350.61328125</ele>
        <time>2019-09-21T09:03:29Z</time>
      </trkpt>
      <trkpt lat="43.23723" lon="5.61335">
        <ele>350.19140625</ele>
        <time>2019-09-21T09:03:30Z</time>
      </trkpt>
      <trkpt lat="43.23722" lon="5.6134">
        <ele>349.73046875</ele>
        <time>2019-09-21T09:03:31Z</time>
      </trkpt>
      <trkpt lat="43.23721" lon="5.61345">
        <ele>349.34375</ele>
        <time>2019-09-21T09:03:32Z</time>
      </trkpt>
      <trkpt lat="43.2372" lon="5.61351">
        <ele>348.89453125</ele>
        <time>2019-09-21T09:03:33Z</time>
      </trkpt>
      <trkpt lat="43.23719" lon="5.61357">
        <ele>348.359375</ele>
        <time>2019-09-21T09:03:34Z</time>
      </trkpt>
      <trkpt lat="43.23718" lon="5.61363">
        <ele>347.76171875</ele>
        <time>2019-09-21T09:03:35Z</time>
      </trkpt>
      <trkpt lat="43.23716" lon="5.6137">
        <ele>347.0859375</ele>
        <time>2019-09-21T09:03:36Z</time>
      </trkpt>
      <trkpt lat="43.23714" lon="5.61376">
        <ele>346.1640625</ele>
        <time>2019-09-21T09:03:37Z</time>
      </trkpt>
      <trkpt lat="43.23708" lon="5.61391">
        <ele>344.2734375</ele>
        <time>2019-09-21T09:03:40Z</time>
      </trkpt>
      <trkpt lat="43.23705" lon="5.61402">
        <ele>343.34375</ele>
        <time>2019-09-21T09:03:42Z</time>
      </trkpt>
      <trkpt lat="43.23703" lon="5.61407">
        <ele>342.8515625</ele>
        <time>2019-09-21T09:03:43Z</time>
      </trkpt>
      <trkpt lat="43.23695" lon="5.6142">
        <ele>342.43359375</ele>
        <time>2019-09-21T09:03:46Z</time>
      </trkpt>
      <trkpt lat="43.23692" lon="5.61424">
        <ele>342.11328125</ele>
        <time>2019-09-21T09:03:47Z</time>
      </trkpt>
      <trkpt lat="43.23689" lon="5.61428">
        <ele>341.78515625</ele>
        <time>2019-09-21T09:03:48Z</time>
      </trkpt>
      <trkpt lat="43.23686" lon="5.6143">
        <ele>341.22265625</ele>
        <time>2019-09-21T09:03:49Z</time>
      </trkpt>
      <trkpt lat="43.23682" lon="5.61433">
        <ele>340.5859375</ele>
        <time>2019-09-21T09:03:50Z</time>
      </trkpt>
      <trkpt lat="43.23679" lon="5.61436">
        <ele>339.953125</ele>
        <time>2019-09-21T09:03:51Z</time>
      </trkpt>
      <trkpt lat="43.23673" lon="5.61443">
        <ele>340.12109375</ele>
        <time>2019-09-21T09:03:53Z</time>
      </trkpt>
      <trkpt lat="43.23652" lon="5.61465">
        <ele>339.99609375</ele>
        <time>2019-09-21T09:03:58Z</time>
      </trkpt>
      <trkpt lat="43.23647" lon="5.61469">
        <ele>339.515625</ele>
        <time>2019-09-21T09:03:59Z</time>
      </trkpt>
      <trkpt lat="43.23642" lon="5.61473">
        <ele>339.0390625</ele>
        <time>2019-09-21T09:04:00Z</time>
      </trkpt>
      <trkpt lat="43.23637" lon="5.61478">
        <ele>339.078125</ele>
        <time>2019-09-21T09:04:01Z</time>
      </trkpt>
      <trkpt lat="43.23633" lon="5.61482">
        <ele>339.0078125</ele>
        <time>2019-09-21T09:04:02Z</time>
      </trkpt>
      <trkpt lat="43.23629" lon="5.61485">
        <ele>338.66796875</ele>
        <time>2019-09-21T09:04:03Z</time>
      </trkpt>
      <trkpt lat="43.23626" lon="5.61487">
        <ele>338.23828125</ele>
        <time>2019-09-21T09:04:04Z</time>
      </trkpt>
      <trkpt lat="43.23623" lon="5.61488">
        <ele>337.49609375</ele>
        <time>2019-09-21T09:04:05Z</time>
      </trkpt>
      <trkpt lat="43.23615" lon="5.61492">
        <ele>335.97265625</ele>
        <time>2019-09-21T09:04:07Z</time>
      </trkpt>
      <trkpt lat="43.2361" lon="5.61495">
        <ele>335.72265625</ele>
        <time>2019-09-21T09:04:08Z</time>
      </trkpt>
      <trkpt lat="43.23605" lon="5.61499">
        <ele>335.43359375</ele>
        <time>2019-09-21T09:04:09Z</time>
      </trkpt>
      <trkpt lat="43.236" lon="5.61502">
        <ele>335.015625</ele>
        <time>2019-09-21T09:04:10Z</time>
      </trkpt>
      <trkpt lat="43.23596" lon="5.61506">
        <ele>334.5546875</ele>
        <time>2019-09-21T09:04:11Z</time>
      </trkpt>
      <trkpt lat="43.23591" lon="5.61508">
        <ele>333.79296875</ele>
        <time>2019-09-21T09:04:12Z</time>
      </trkpt>
      <trkpt lat="43.23587" lon="5.61508">
        <ele>332.86328125</ele>
        <time>2019-09-21T09:04:13Z</time>
      </trkpt>
      <trkpt lat="43.23582" lon="5.6151">
        <ele>332.359375</ele>
        <time>2019-09-21T09:04:14Z</time>
      </trkpt>
      <trkpt lat="43.23577" lon="5.61513">
        <ele>332.08984375</ele>
        <time>2019-09-21T09:04:15Z</time>
      </trkpt>
      <trkpt lat="43.23573" lon="5.61516">
        <ele>331.7734375</ele>
        <time>2019-09-21T09:04:16Z</time>
      </trkpt>
      <trkpt lat="43.23569" lon="5.61517">
        <ele>331.2578125</ele>
        <time>2019-09-21T09:04:17Z</time>
      </trkpt>
      <trkpt lat="43.23566" lon="5.61516">
        <ele>330.6328125</ele>
        <time>2019-09-21T09:04:18Z</time>
      </trkpt>
      <trkpt lat="43.23562" lon="5.61516">
        <ele>329.93359375</ele>
        <time>2019-09-21T09:04:19Z</time>
      </trkpt>
      <trkpt lat="43.23553" lon="5.61517">
        <ele>328.74609375</ele>
        <time>2019-09-21T09:04:21Z</time>
      </trkpt>
      <trkpt lat="43.23549" lon="5.61519">
        <ele>328.421875</ele>
        <time>2019-09-21T09:04:22Z</time>
      </trkpt>
      <trkpt lat="43.23545" lon="5.61522">
        <ele>328.6796875</ele>
        <time>2019-09-21T09:04:23Z</time>
      </trkpt>
      <trkpt lat="43.23541" lon="5.61521">
        <ele>328.08203125</ele>
        <time>2019-09-21T09:04:24Z</time>
      </trkpt>
      <trkpt lat="43.23537" lon="5.6152">
        <ele>326.91015625</ele>
        <time>2019-09-21T09:04:25Z</time>
      </trkpt>
      <trkpt lat="43.23533" lon="5.61518">
        <ele>326.02734375</ele>
        <time>2019-09-21T09:04:26Z</time>
      </trkpt>
      <trkpt lat="43.23527" lon="5.61518">
        <ele>325.734375</ele>
        <time>2019-09-21T09:04:27Z</time>
      </trkpt>
      <trkpt lat="43.23521" lon="5.61517">
        <ele>325.3125</ele>
        <time>2019-09-21T09:04:28Z</time>
      </trkpt>
      <trkpt lat="43.23515" lon="5.61515">
        <ele>324.7890625</ele>
        <time>2019-09-21T09:04:29Z</time>
      </trkpt>
      <trkpt lat="43.23509" lon="5.61513">
        <ele>324.1171875</ele>
        <time>2019-09-21T09:04:30Z</time>
      </trkpt>
      <trkpt lat="43.23503" lon="5.61512">
        <ele>323.57421875</ele>
        <time>2019-09-21T09:04:31Z</time>
      </trkpt>
      <trkpt lat="43.23498" lon="5.61511">
        <ele>323.19140625</ele>
        <time>2019-09-21T09:04:32Z</time>
      </trkpt>
      <trkpt lat="43.23494" lon="5.6151">
        <ele>322.80859375</ele>
        <time>2019-09-21T09:04:33Z</time>
      </trkpt>
      <trkpt lat="43.23491" lon="5.61509">
        <ele>322.62109375</ele>
        <time>2019-09-21T09:04:34Z</time>
      </trkpt>
      <trkpt lat="43.23487" lon="5.6151">
        <ele>322.48046875</ele>
        <time>2019-09-21T09:04:35Z</time>
      </trkpt>
      <trkpt lat="43.23483" lon="5.6151">
        <ele>322.296875</ele>
        <time>2019-09-21T09:04:36Z</time>
      </trkpt>
      <trkpt lat="43.23474" lon="5.61509">
        <ele>321.62890625</ele>
        <time>2019-09-21T09:04:38Z</time>
      </trkpt>
      <trkpt lat="43.23468" lon="5.61507">
        <ele>321.18359375</ele>
        <time>2019-09-21T09:04:39Z</time>
      </trkpt>
      <trkpt lat="43.23462" lon="5.61505">
        <ele>320.5078125</ele>
        <time>2019-09-21T09:04:40Z</time>
      </trkpt>
      <trkpt lat="43.23458" lon="5.61501">
        <ele>319.41796875</ele>
        <time>2019-09-21T09:04:41Z</time>
      </trkpt>
      <trkpt lat="43.23455" lon="5.61498">
        <ele>318.65625</ele>
        <time>2019-09-21T09:04:42Z</time>
      </trkpt>
      <trkpt lat="43.23452" lon="5.61498">
        <ele>318.48828125</ele>
        <time>2019-09-21T09:04:43Z</time>
      </trkpt>
      <trkpt lat="43.23448" lon="5.61497">
        <ele>318.20703125</ele>
        <time>2019-09-21T09:04:44Z</time>
      </trkpt>
      <trkpt lat="43.23444" lon="5.61496">
        <ele>317.75</ele>
        <time>2019-09-21T09:04:45Z</time>
      </trkpt>
      <trkpt lat="43.23435" lon="5.61496">
        <ele>317.13671875</ele>
        <time>2019-09-21T09:04:47Z</time>
      </trkpt>
      <trkpt lat="43.23413" lon="5.61502">
        <ele>317.23828125</ele>
        <time>2019-09-21T09:04:51Z</time>
      </trkpt>
      <trkpt lat="43.23408" lon="5.61503">
        <ele>317.3984375</ele>
        <time>2019-09-21T09:04:52Z</time>
      </trkpt>
      <trkpt lat="43.23394" lon="5.61513">
        <ele>318.81640625</ele>
        <time>2019-09-21T09:04:55Z</time>
      </trkpt>
      <trkpt lat="43.23389" lon="5.61516">
        <ele>318.85546875</ele>
        <time>2019-09-21T09:04:56Z</time>
      </trkpt>
      <trkpt lat="43.23383" lon="5.61517">
        <ele>318.484375</ele>
        <time>2019-09-21T09:04:57Z</time>
      </trkpt>
      <trkpt lat="43.23379" lon="5.61517">
        <ele>318</ele>
        <time>2019-09-21T09:04:58Z</time>
      </trkpt>
      <trkpt lat="43.23375" lon="5.61517">
        <ele>317.53125</ele>
        <time>2019-09-21T09:04:59Z</time>
      </trkpt>
      <trkpt lat="43.23371" lon="5.61518">
        <ele>317.32421875</ele>
        <time>2019-09-21T09:05:00Z</time>
      </trkpt>
      <trkpt lat="43.23367" lon="5.61519">
        <ele>317.06640625</ele>
        <time>2019-09-21T09:05:01Z</time>
      </trkpt>
      <trkpt lat="43.23361" lon="5.6152">
        <ele>316.72265625</ele>
        <time>2019-09-21T09:05:02Z</time>
      </trkpt>
      <trkpt lat="43.23357" lon="5.61521">
        <ele>316.67578125</ele>
        <time>2019-09-21T09:05:03Z</time>
      </trkpt>
      <trkpt lat="43.23353" lon="5.61522">
        <ele>316.203125</ele>
        <time>2019-09-21T09:05:04Z</time>
      </trkpt>
      <trkpt lat="43.23346" lon="5.6152">
        <ele>314.71875</ele>
        <time>2019-09-21T09:05:06Z</time>
      </trkpt>
      <trkpt lat="43.23333" lon="5.61518">
        <ele>312.34375</ele>
        <time>2019-09-21T09:05:08Z</time>
      </trkpt>
      <trkpt lat="43.23323" lon="5.61515">
        <ele>310.8828125</ele>
        <time>2019-09-21T09:05:10Z</time>
      </trkpt>
      <trkpt lat="43.23315" lon="5.61514">
        <ele>309.85546875</ele>
        <time>2019-09-21T09:05:12Z</time>
      </trkpt>
      <trkpt lat="43.23311" lon="5.61513">
        <ele>309.22265625</ele>
        <time>2019-09-21T09:05:13Z</time>
      </trkpt>
      <trkpt lat="43.23301" lon="5.61513">
        <ele>308.69921875</ele>
        <time>2019-09-21T09:05:15Z</time>
      </trkpt>
      <trkpt lat="43.23288" lon="5.61509">
        <ele>307.53515625</ele>
        <time>2019-09-21T09:05:18Z</time>
      </trkpt>
      <trkpt lat="43.23284" lon="5.61509">
        <ele>307.27734375</ele>
        <time>2019-09-21T09:05:19Z</time>
      </trkpt>
      <trkpt lat="43.23279" lon="5.61509">
        <ele>307.07421875</ele>
        <time>2019-09-21T09:05:20Z</time>
      </trkpt>
      <trkpt lat="43.23274" lon="5.61511">
        <ele>307.11328125</ele>
        <time>2019-09-21T09:05:21Z</time>
      </trkpt>
      <trkpt lat="43.2327" lon="5.61513">
        <ele>307.34765625</ele>
        <time>2019-09-21T09:05:22Z</time>
      </trkpt>
      <trkpt lat="43.23266" lon="5.61514">
        <ele>307.4375</ele>
        <time>2019-09-21T09:05:23Z</time>
      </trkpt>
      <trkpt lat="43.23263" lon="5.61515">
        <ele>307.48828125</ele>
        <time>2019-09-21T09:05:24Z</time>
      </trkpt>
      <trkpt lat="43.23259" lon="5.61517">
        <ele>307.73046875</ele>
        <time>2019-09-21T09:05:25Z</time>
      </trkpt>
      <trkpt lat="43.23255" lon="5.61518">
        <ele>307.7734375</ele>
        <time>2019-09-21T09:05:26Z</time>
      </trkpt>
      <trkpt lat="43.2325" lon="5.61517">
        <ele>306.8046875</ele>
        <time>2019-09-21T09:05:27Z</time>
      </trkpt>
      <trkpt lat="43.23245" lon="5.61515">
        <ele>305.50390625</ele>
        <time>2019-09-21T09:05:28Z</time>
      </trkpt>
      <trkpt lat="43.23242" lon="5.61513">
        <ele>304.57421875</ele>
        <time>2019-09-21T09:05:29Z</time>
      </trkpt>
      <trkpt lat="43.23239" lon="5.61512">
        <ele>304.109375</ele>
        <time>2019-09-21T09:05:30Z</time>
      </trkpt>
      <trkpt lat="43.23237" lon="5.61511">
        <ele>303.68359375</ele>
        <time>2019-09-21T09:05:31Z</time>
      </trkpt>
      <trkpt lat="43.23236" lon="5.6151">
        <ele>303.31640625</ele>
        <time>2019-09-21T09:05:32Z</time>
      </trkpt>
      <trkpt lat="43.23234" lon="5.6151">
        <ele>302.9609375</ele>
        <time>2019-09-21T09:05:33Z</time>
      </trkpt>
      <trkpt lat="43.2323" lon="5.6151">
        <ele>302.44140625</ele>
        <time>2019-09-21T09:05:34Z</time>
      </trkpt>
      <trkpt lat="43.23226" lon="5.6151">
        <ele>301.8828125</ele>
        <time>2019-09-21T09:05:35Z</time>
      </trkpt>
      <trkpt lat="43.23223" lon="5.6151">
        <ele>301.46484375</ele>
        <time>2019-09-21T09:05:36Z</time>
      </trkpt>
      <trkpt lat="43.2322" lon="5.61511">
        <ele>301.1796875</ele>
        <time>2019-09-21T09:05:37Z</time>
      </trkpt>
      <trkpt lat="43.23218" lon="5.61513">
        <ele>300.96875</ele>
        <time>2019-09-21T09:05:38Z</time>
      </trkpt>
      <trkpt lat="43.23215" lon="5.61517">
        <ele>300.65234375</ele>
        <time>2019-09-21T09:05:39Z</time>
      </trkpt>
      <trkpt lat="43.23198" lon="5.61539">
        <ele>304.91015625</ele>
        <time>2019-09-21T09:05:43Z</time>
      </trkpt>
      <trkpt lat="43.23193" lon="5.61542">
        <ele>304.83203125</ele>
        <time>2019-09-21T09:05:44Z</time>
      </trkpt>
      <trkpt lat="43.23188" lon="5.61544">
        <ele>303.9296875</ele>
        <time>2019-09-21T09:05:45Z</time>
      </trkpt>
      <trkpt lat="43.23176" lon="5.61547">
        <ele>302.06640625</ele>
        <time>2019-09-21T09:05:47Z</time>
      </trkpt>
      <trkpt lat="43.23171" lon="5.61547">
        <ele>300.9921875</ele>
        <time>2019-09-21T09:05:48Z</time>
      </trkpt>
      <trkpt lat="43.23166" lon="5.61546">
        <ele>299.59375</ele>
        <time>2019-09-21T09:05:49Z</time>
      </trkpt>
      <trkpt lat="43.23162" lon="5.61544">
        <ele>298.2578125</ele>
        <time>2019-09-21T09:05:50Z</time>
      </trkpt>
      <trkpt lat="43.23158" lon="5.61546">
        <ele>297.6328125</ele>
        <time>2019-09-21T09:05:51Z</time>
      </trkpt>
      <trkpt lat="43.23153" lon="5.61548">
        <ele>297.33984375</ele>
        <time>2019-09-21T09:05:52Z</time>
      </trkpt>
      <trkpt lat="43.23149" lon="5.6155">
        <ele>297.05859375</ele>
        <time>2019-09-21T09:05:53Z</time>
      </trkpt>
      <trkpt lat="43.23146" lon="5.61553">
        <ele>297.07421875</ele>
        <time>2019-09-21T09:05:54Z</time>
      </trkpt>
      <trkpt lat="43.23144" lon="5.61556">
        <ele>297.4375</ele>
        <time>2019-09-21T09:05:55Z</time>
      </trkpt>
      <trkpt lat="43.23142" lon="5.61559">
        <ele>297.76171875</ele>
        <time>2019-09-21T09:05:56Z</time>
      </trkpt>
      <trkpt lat="43.2314" lon="5.61561">
        <ele>297.65625</ele>
        <time>2019-09-21T09:05:57Z</time>
      </trkpt>
      <trkpt lat="43.23137" lon="5.61562">
        <ele>297.1796875</ele>
        <time>2019-09-21T09:05:58Z</time>
      </trkpt>
      <trkpt lat="43.23135" lon="5.6156">
        <ele>296.234375</ele>
        <time>2019-09-21T09:05:59Z</time>
      </trkpt>
      <trkpt lat="43.23132" lon="5.61557">
        <ele>295.0625</ele>
        <time>2019-09-21T09:06:00Z</time>
      </trkpt>
      <trkpt lat="43.2313" lon="5.61555">
        <ele>294.12890625</ele>
        <time>2019-09-21T09:06:01Z</time>
      </trkpt>
      <trkpt lat="43.23127" lon="5.61555">
        <ele>293.46484375</ele>
        <time>2019-09-21T09:06:02Z</time>
      </trkpt>
      <trkpt lat="43.23124" lon="5.61555">
        <ele>292.875</ele>
        <time>2019-09-21T09:06:03Z</time>
      </trkpt>
      <trkpt lat="43.2312" lon="5.61557">
        <ele>292.390625</ele>
        <time>2019-09-21T09:06:04Z</time>
      </trkpt>
      <trkpt lat="43.23118" lon="5.61557">
        <ele>291.91015625</ele>
        <time>2019-09-21T09:06:05Z</time>
      </trkpt>
      <trkpt lat="43.23115" lon="5.61559">
        <ele>291.63671875</ele>
        <time>2019-09-21T09:06:06Z</time>
      </trkpt>
      <trkpt lat="43.2311" lon="5.61563">
        <ele>291.5390625</ele>
        <time>2019-09-21T09:06:08Z</time>
      </trkpt>
      <trkpt lat="43.23108" lon="5.61567">
        <ele>291.69140625</ele>
        <time>2019-09-21T09:06:09Z</time>
      </trkpt>
      <trkpt lat="43.23108" lon="5.61571">
        <ele>292</ele>
        <time>2019-09-21T09:06:10Z</time>
      </trkpt>
      <trkpt lat="43.23107" lon="5.61575">
        <ele>292.23046875</ele>
        <time>2019-09-21T09:06:11Z</time>
      </trkpt>
      <trkpt lat="43.23106" lon="5.61578">
        <ele>292.7109375</ele>
        <time>2019-09-21T09:06:12Z</time>
      </trkpt>
      <trkpt lat="43.23104" lon="5.61582">
        <ele>293.0703125</ele>
        <time>2019-09-21T09:06:13Z</time>
      </trkpt>
      <trkpt lat="43.23103" lon="5.61587">
        <ele>293.6015625</ele>
        <time>2019-09-21T09:06:14Z</time>
      </trkpt>
      <trkpt lat="43.23102" lon="5.61591">
        <ele>294.3828125</ele>
        <time>2019-09-21T09:06:15Z</time>
      </trkpt>
      <trkpt lat="43.23102" lon="5.61595">
        <ele>294.9453125</ele>
        <time>2019-09-21T09:06:16Z</time>
      </trkpt>
      <trkpt lat="43.231" lon="5.61598">
        <ele>295.0546875</ele>
        <time>2019-09-21T09:06:17Z</time>
      </trkpt>
      <trkpt lat="43.23098" lon="5.616">
        <ele>294.84375</ele>
        <time>2019-09-21T09:06:18Z</time>
      </trkpt>
      <trkpt lat="43.23096" lon="5.61601">
        <ele>294.37109375</ele>
        <time>2019-09-21T09:06:19Z</time>
      </trkpt>
      <trkpt lat="43.23094" lon="5.61602">
        <ele>293.75</ele>
        <time>2019-09-21T09:06:20Z</time>
      </trkpt>
      <trkpt lat="43.2309" lon="5.61604">
        <ele>292.84375</ele>
        <time>2019-09-21T09:06:22Z</time>
      </trkpt>
      <trkpt lat="43.23089" lon="5.61606">
        <ele>292.48046875</ele>
        <time>2019-09-21T09:06:23Z</time>
      </trkpt>
      <trkpt lat="43.23087" lon="5.61608">
        <ele>292.1171875</ele>
        <time>2019-09-21T09:06:24Z</time>
      </trkpt>
      <trkpt lat="43.23086" lon="5.6161">
        <ele>291.8046875</ele>
        <time>2019-09-21T09:06:25Z</time>
      </trkpt>
      <trkpt lat="43.23085" lon="5.61614">
        <ele>291.54296875</ele>
        <time>2019-09-21T09:06:26Z</time>
      </trkpt>
      <trkpt lat="43.23083" lon="5.61617">
        <ele>291.328125</ele>
        <time>2019-09-21T09:06:27Z</time>
      </trkpt>
      <trkpt lat="43.23082" lon="5.61621">
        <ele>291.16015625</ele>
        <time>2019-09-21T09:06:28Z</time>
      </trkpt>
      <trkpt lat="43.23081" lon="5.61623">
        <ele>290.68359375</ele>
        <time>2019-09-21T09:06:29Z</time>
      </trkpt>
      <trkpt lat="43.23079" lon="5.61625">
        <ele>290.25</ele>
        <time>2019-09-21T09:06:30Z</time>
      </trkpt>
      <trkpt lat="43.23077" lon="5.61629">
        <ele>289.41796875</ele>
        <time>2019-09-21T09:06:33Z</time>
      </trkpt>
      <trkpt lat="43.23075" lon="5.6163">
        <ele>288.87109375</ele>
        <time>2019-09-21T09:06:34Z</time>
      </trkpt>
      <trkpt lat="43.23073" lon="5.61634">
        <ele>288.1875</ele>
        <time>2019-09-21T09:06:35Z</time>
      </trkpt>
      <trkpt lat="43.2306" lon="5.61658">
        <ele>283.86328125</ele>
        <time>2019-09-21T09:06:41Z</time>
      </trkpt>
      <trkpt lat="43.23057" lon="5.6166">
        <ele>283.1796875</ele>
        <time>2019-09-21T09:06:42Z</time>
      </trkpt>
      <trkpt lat="43.2305" lon="5.61666">
        <ele>281.20703125</ele>
        <time>2019-09-21T09:06:44Z</time>
      </trkpt>
      <trkpt lat="43.23042" lon="5.61673">
        <ele>278.85546875</ele>
        <time>2019-09-21T09:06:46Z</time>
      </trkpt>
      <trkpt lat="43.23039" lon="5.61678">
        <ele>278.1015625</ele>
        <time>2019-09-21T09:06:47Z</time>
      </trkpt>
      <trkpt lat="43.23037" lon="5.61682">
        <ele>277.234375</ele>
        <time>2019-09-21T09:06:48Z</time>
      </trkpt>
      <trkpt lat="43.23033" lon="5.61685">
        <ele>276.19921875</ele>
        <time>2019-09-21T09:06:49Z</time>
      </trkpt>
      <trkpt lat="43.23029" lon="5.61688">
        <ele>275.19921875</ele>
        <time>2019-09-21T09:06:50Z</time>
      </trkpt>
      <trkpt lat="43.23025" lon="5.61691">
        <ele>274.05859375</ele>
        <time>2019-09-21T09:06:51Z</time>
      </trkpt>
      <trkpt lat="43.23021" lon="5.61695">
        <ele>273.1640625</ele>
        <time>2019-09-21T09:06:52Z</time>
      </trkpt>
      <trkpt lat="43.23019" lon="5.61699">
        <ele>272.50390625</ele>
        <time>2019-09-21T09:06:53Z</time>
      </trkpt>
      <trkpt lat="43.23017" lon="5.61701">
        <ele>271.9453125</ele>
        <time>2019-09-21T09:06:54Z</time>
      </trkpt>
      <trkpt lat="43.23015" lon="5.61703">
        <ele>271.453125</ele>
        <time>2019-09-21T09:06:55Z</time>
      </trkpt>
      <trkpt lat="43.23009" lon="5.617">
        <ele>270.44921875</ele>
        <time>2019-09-21T09:07:02Z</time>
      </trkpt>
      <trkpt lat="43.23008" lon="5.61698">
        <ele>270.16015625</ele>
        <time>2019-09-21T09:07:16Z</time>
      </trkpt>
      <trkpt lat="43.23005" lon="5.61697">
        <ele>269.625</ele>
        <time>2019-09-21T09:07:36Z</time>
      </trkpt>
      <trkpt lat="43.23004" lon="5.61696">
        <ele>269.515625</ele>
        <time>2019-09-21T09:07:37Z</time>
      </trkpt>
      <trkpt lat="43.22996" lon="5.61689">
        <ele>268.8828125</ele>
        <time>2019-09-21T09:07:40Z</time>
      </trkpt>
      <trkpt lat="43.22992" lon="5.61688">
        <ele>268.484375</ele>
        <time>2019-09-21T09:07:41Z</time>
      </trkpt>
      <trkpt lat="43.22988" lon="5.61687">
        <ele>268.0546875</ele>
        <time>2019-09-21T09:07:42Z</time>
      </trkpt>
      <trkpt lat="43.22984" lon="5.61687">
        <ele>267.63671875</ele>
        <time>2019-09-21T09:07:43Z</time>
      </trkpt>
      <trkpt lat="43.2298" lon="5.61687">
        <ele>267.23046875</ele>
        <time>2019-09-21T09:07:44Z</time>
      </trkpt>
      <trkpt lat="43.22976" lon="5.61688">
        <ele>266.8515625</ele>
        <time>2019-09-21T09:07:45Z</time>
      </trkpt>
      <trkpt lat="43.22973" lon="5.61688">
        <ele>266.6015625</ele>
        <time>2019-09-21T09:07:46Z</time>
      </trkpt>
      <trkpt lat="43.2297" lon="5.61686">
        <ele>266.4609375</ele>
        <time>2019-09-21T09:07:47Z</time>
      </trkpt>
      <trkpt lat="43.22968" lon="5.61681">
        <ele>266.3671875</ele>
        <time>2019-09-21T09:07:48Z</time>
      </trkpt>
      <trkpt lat="43.22965" lon="5.61677">
        <ele>266.25390625</ele>
        <time>2019-09-21T09:07:49Z</time>
      </trkpt>
      <trkpt lat="43.22961" lon="5.61672">
        <ele>266.109375</ele>
        <time>2019-09-21T09:07:50Z</time>
      </trkpt>
      <trkpt lat="43.22957" lon="5.61668">
        <ele>265.9921875</ele>
        <time>2019-09-21T09:07:51Z</time>
      </trkpt>
      <trkpt lat="43.22955" lon="5.61665">
        <ele>265.984375</ele>
        <time>2019-09-21T09:07:52Z</time>
      </trkpt>
      <trkpt lat="43.22954" lon="5.61661">
        <ele>266.07421875</ele>
        <time>2019-09-21T09:07:53Z</time>
      </trkpt>
      <trkpt lat="43.22952" lon="5.61655">
        <ele>266.13671875</ele>
        <time>2019-09-21T09:07:54Z</time>
      </trkpt>
      <trkpt lat="43.22951" lon="5.61649">
        <ele>266.10546875</ele>
        <time>2019-09-21T09:07:55Z</time>
      </trkpt>
      <trkpt lat="43.2295" lon="5.61642">
        <ele>266.06640625</ele>
        <time>2019-09-21T09:07:56Z</time>
      </trkpt>
      <trkpt lat="43.2295" lon="5.61635">
        <ele>266.04296875</ele>
        <time>2019-09-21T09:07:57Z</time>
      </trkpt>
      <trkpt lat="43.2295" lon="5.61628">
        <ele>266.109375</ele>
        <time>2019-09-21T09:07:58Z</time>
      </trkpt>
      <trkpt lat="43.2295" lon="5.61621">
        <ele>266.453125</ele>
        <time>2019-09-21T09:07:59Z</time>
      </trkpt>
      <trkpt lat="43.22951" lon="5.61614">
        <ele>267.0078125</ele>
        <time>2019-09-21T09:08:00Z</time>
      </trkpt>
      <trkpt lat="43.22953" lon="5.61609">
        <ele>267.63671875</ele>
        <time>2019-09-21T09:08:01Z</time>
      </trkpt>
      <trkpt lat="43.22953" lon="5.61605">
        <ele>267.89453125</ele>
        <time>2019-09-21T09:08:02Z</time>
      </trkpt>
      <trkpt lat="43.22952" lon="5.616">
        <ele>267.859375</ele>
        <time>2019-09-21T09:08:03Z</time>
      </trkpt>
      <trkpt lat="43.22951" lon="5.61595">
        <ele>267.76953125</ele>
        <time>2019-09-21T09:08:04Z</time>
      </trkpt>
      <trkpt lat="43.2295" lon="5.6159">
        <ele>267.59375</ele>
        <time>2019-09-21T09:08:05Z</time>
      </trkpt>
      <trkpt lat="43.22947" lon="5.61585">
        <ele>266.87890625</ele>
        <time>2019-09-21T09:08:06Z</time>
      </trkpt>
      <trkpt lat="43.22943" lon="5.6158">
        <ele>265.3828125</ele>
        <time>2019-09-21T09:08:07Z</time>
      </trkpt>
      <trkpt lat="43.22938" lon="5.61576">
        <ele>263.07421875</ele>
        <time>2019-09-21T09:08:08Z</time>
      </trkpt>
      <trkpt lat="43.22932" lon="5.61573">
        <ele>260.9921875</ele>
        <time>2019-09-21T09:08:09Z</time>
      </trkpt>
      <trkpt lat="43.22928" lon="5.61572">
        <ele>259.3125</ele>
        <time>2019-09-21T09:08:10Z</time>
      </trkpt>
      <trkpt lat="43.22924" lon="5.61572">
        <ele>257.35546875</ele>
        <time>2019-09-21T09:08:11Z</time>
      </trkpt>
      <trkpt lat="43.22919" lon="5.61572">
        <ele>256.125</ele>
        <time>2019-09-21T09:08:12Z</time>
      </trkpt>
      <trkpt lat="43.22915" lon="5.61575">
        <ele>254.8046875</ele>
        <time>2019-09-21T09:08:13Z</time>
      </trkpt>
      <trkpt lat="43.22912" lon="5.6158">
        <ele>254.89453125</ele>
        <time>2019-09-21T09:08:14Z</time>
      </trkpt>
      <trkpt lat="43.22911" lon="5.61586">
        <ele>255.26953125</ele>
        <time>2019-09-21T09:08:15Z</time>
      </trkpt>
      <trkpt lat="43.22909" lon="5.61591">
        <ele>255.59375</ele>
        <time>2019-09-21T09:08:16Z</time>
      </trkpt>
      <trkpt lat="43.22907" lon="5.61598">
        <ele>255.8125</ele>
        <time>2019-09-21T09:08:17Z</time>
      </trkpt>
      <trkpt lat="43.22905" lon="5.61603">
        <ele>256.01171875</ele>
        <time>2019-09-21T09:08:18Z</time>
      </trkpt>
      <trkpt lat="43.22903" lon="5.61609">
        <ele>256.43359375</ele>
        <time>2019-09-21T09:08:19Z</time>
      </trkpt>
      <trkpt lat="43.22901" lon="5.61614">
        <ele>256.62109375</ele>
        <time>2019-09-21T09:08:20Z</time>
      </trkpt>
      <trkpt lat="43.22898" lon="5.61618">
        <ele>256.48046875</ele>
        <time>2019-09-21T09:08:21Z</time>
      </trkpt>
      <trkpt lat="43.22894" lon="5.61622">
        <ele>256.20703125</ele>
        <time>2019-09-21T09:08:22Z</time>
      </trkpt>
      <trkpt lat="43.2289" lon="5.61624">
        <ele>255.7265625</ele>
        <time>2019-09-21T09:08:23Z</time>
      </trkpt>
      <trkpt lat="43.22886" lon="5.61623">
        <ele>254.953125</ele>
        <time>2019-09-21T09:08:24Z</time>
      </trkpt>
      <trkpt lat="43.22879" lon="5.61621">
        <ele>253.2578125</ele>
        <time>2019-09-21T09:08:26Z</time>
      </trkpt>
      <trkpt lat="43.22874" lon="5.61621">
        <ele>252.5234375</ele>
        <time>2019-09-21T09:08:27Z</time>
      </trkpt>
      <trkpt lat="43.2287" lon="5.61624">
        <ele>251.9453125</ele>
        <time>2019-09-21T09:08:28Z</time>
      </trkpt>
      <trkpt lat="43.22865" lon="5.61627">
        <ele>251.4765625</ele>
        <time>2019-09-21T09:08:29Z</time>
      </trkpt>
      <trkpt lat="43.22861" lon="5.61632">
        <ele>250.90234375</ele>
        <time>2019-09-21T09:08:30Z</time>
      </trkpt>
      <trkpt lat="43.22857" lon="5.61635">
        <ele>250.30859375</ele>
        <time>2019-09-21T09:08:31Z</time>
      </trkpt>
      <trkpt lat="43.22853" lon="5.61637">
        <ele>249.25390625</ele>
        <time>2019-09-21T09:08:32Z</time>
      </trkpt>
      <trkpt lat="43.2285" lon="5.61637">
        <ele>248.0234375</ele>
        <time>2019-09-21T09:08:33Z</time>
      </trkpt>
      <trkpt lat="43.22847" lon="5.61634">
        <ele>246.91015625</ele>
        <time>2019-09-21T09:08:34Z</time>
      </trkpt>
      <trkpt lat="43.22846" lon="5.6163">
        <ele>246.07421875</ele>
        <time>2019-09-21T09:08:35Z</time>
      </trkpt>
      <trkpt lat="43.22846" lon="5.61625">
        <ele>245.828125</ele>
        <time>2019-09-21T09:08:36Z</time>
      </trkpt>
      <trkpt lat="43.22846" lon="5.6162">
        <ele>245.7109375</ele>
        <time>2019-09-21T09:08:37Z</time>
      </trkpt>
      <trkpt lat="43.22848" lon="5.61609">
        <ele>245.39453125</ele>
        <time>2019-09-21T09:08:39Z</time>
      </trkpt>
      <trkpt lat="43.22848" lon="5.61603">
        <ele>245.125</ele>
        <time>2019-09-21T09:08:40Z</time>
      </trkpt>
      <trkpt lat="43.22847" lon="5.61599">
        <ele>244.74609375</ele>
        <time>2019-09-21T09:08:41Z</time>
      </trkpt>
      <trkpt lat="43.22845" lon="5.61596">
        <ele>244.30859375</ele>
        <time>2019-09-21T09:08:42Z</time>
      </trkpt>
      <trkpt lat="43.22843" lon="5.61595">
        <ele>243.73828125</ele>
        <time>2019-09-21T09:08:43Z</time>
      </trkpt>
      <trkpt lat="43.22839" lon="5.61596">
        <ele>242.9296875</ele>
        <time>2019-09-21T09:08:44Z</time>
      </trkpt>
      <trkpt lat="43.22835" lon="5.61597">
        <ele>242.17578125</ele>
        <time>2019-09-21T09:08:45Z</time>
      </trkpt>
      <trkpt lat="43.22831" lon="5.61597">
        <ele>241.546875</ele>
        <time>2019-09-21T09:08:46Z</time>
      </trkpt>
      <trkpt lat="43.22828" lon="5.61596">
        <ele>240.93359375</ele>
        <time>2019-09-21T09:08:47Z</time>
      </trkpt>
      <trkpt lat="43.22824" lon="5.61594">
        <ele>240.2421875</ele>
        <time>2019-09-21T09:08:48Z</time>
      </trkpt>
      <trkpt lat="43.22811" lon="5.61595">
        <ele>238.1171875</ele>
        <time>2019-09-21T09:08:51Z</time>
      </trkpt>
      <trkpt lat="43.22806" lon="5.61597">
        <ele>237.64453125</ele>
        <time>2019-09-21T09:08:52Z</time>
      </trkpt>
      <trkpt lat="43.22802" lon="5.61599">
        <ele>237.265625</ele>
        <time>2019-09-21T09:08:53Z</time>
      </trkpt>
      <trkpt lat="43.22792" lon="5.61601">
        <ele>236.5625</ele>
        <time>2019-09-21T09:08:55Z</time>
      </trkpt>
      <trkpt lat="43.22775" lon="5.616">
        <ele>235.3203125</ele>
        <time>2019-09-21T09:08:58Z</time>
      </trkpt>
      <trkpt lat="43.22765" lon="5.61599">
        <ele>234.34375</ele>
        <time>2019-09-21T09:09:00Z</time>
      </trkpt>
      <trkpt lat="43.22749" lon="5.61597">
        <ele>232.9609375</ele>
        <time>2019-09-21T09:09:03Z</time>
      </trkpt>
      <trkpt lat="43.22745" lon="5.61594">
        <ele>232.2578125</ele>
        <time>2019-09-21T09:09:04Z</time>
      </trkpt>
      <trkpt lat="43.22742" lon="5.61589">
        <ele>231.33203125</ele>
        <time>2019-09-21T09:09:05Z</time>
      </trkpt>
      <trkpt lat="43.22739" lon="5.61582">
        <ele>230.29296875</ele>
        <time>2019-09-21T09:09:06Z</time>
      </trkpt>
      <trkpt lat="43.22739" lon="5.61576">
        <ele>229.453125</ele>
        <time>2019-09-21T09:09:07Z</time>
      </trkpt>
      <trkpt lat="43.2274" lon="5.61571">
        <ele>228.95703125</ele>
        <time>2019-09-21T09:09:08Z</time>
      </trkpt>
      <trkpt lat="43.22743" lon="5.61567">
        <ele>228.82421875</ele>
        <time>2019-09-21T09:09:09Z</time>
      </trkpt>
      <trkpt lat="43.22746" lon="5.61562">
        <ele>228.90625</ele>
        <time>2019-09-21T09:09:10Z</time>
      </trkpt>
      <trkpt lat="43.2275" lon="5.61557">
        <ele>228.97265625</ele>
        <time>2019-09-21T09:09:11Z</time>
      </trkpt>
      <trkpt lat="43.22755" lon="5.61546">
        <ele>228.94140625</ele>
        <time>2019-09-21T09:09:13Z</time>
      </trkpt>
      <trkpt lat="43.22756" lon="5.61539">
        <ele>229.203125</ele>
        <time>2019-09-21T09:09:14Z</time>
      </trkpt>
      <trkpt lat="43.22756" lon="5.61532">
        <ele>229.4453125</ele>
        <time>2019-09-21T09:09:15Z</time>
      </trkpt>
      <trkpt lat="43.22757" lon="5.61526">
        <ele>229.609375</ele>
        <time>2019-09-21T09:09:16Z</time>
      </trkpt>
      <trkpt lat="43.22757" lon="5.61521">
        <ele>229.6015625</ele>
        <time>2019-09-21T09:09:17Z</time>
      </trkpt>
      <trkpt lat="43.22757" lon="5.61516">
        <ele>230.15234375</ele>
        <time>2019-09-21T09:09:18Z</time>
      </trkpt>
      <trkpt lat="43.2276" lon="5.61511">
        <ele>231.45703125</ele>
        <time>2019-09-21T09:09:19Z</time>
      </trkpt>
      <trkpt lat="43.22762" lon="5.61501">
        <ele>233.21875</ele>
        <time>2019-09-21T09:09:21Z</time>
      </trkpt>
      <trkpt lat="43.22761" lon="5.61498">
        <ele>233.03125</ele>
        <time>2019-09-21T09:09:22Z</time>
      </trkpt>
      <trkpt lat="43.22759" lon="5.61496">
        <ele>232.40234375</ele>
        <time>2019-09-21T09:09:23Z</time>
      </trkpt>
      <trkpt lat="43.22756" lon="5.61494">
        <ele>231.19140625</ele>
        <time>2019-09-21T09:09:24Z</time>
      </trkpt>
      <trkpt lat="43.22752" lon="5.61492">
        <ele>229.59765625</ele>
        <time>2019-09-21T09:09:25Z</time>
      </trkpt>
      <trkpt lat="43.22742" lon="5.61487">
        <ele>226.3359375</ele>
        <time>2019-09-21T09:09:27Z</time>
      </trkpt>
      <trkpt lat="43.22736" lon="5.61483">
        <ele>224.34375</ele>
        <time>2019-09-21T09:09:28Z</time>
      </trkpt>
      <trkpt lat="43.2273" lon="5.6148">
        <ele>222.19921875</ele>
        <time>2019-09-21T09:09:29Z</time>
      </trkpt>
      <trkpt lat="43.22725" lon="5.61479">
        <ele>221.4921875</ele>
        <time>2019-09-21T09:09:30Z</time>
      </trkpt>
      <trkpt lat="43.22721" lon="5.61479">
        <ele>221.80859375</ele>
        <time>2019-09-21T09:09:31Z</time>
      </trkpt>
      <trkpt lat="43.22689" lon="5.61482">
        <ele>223.3984375</ele>
        <time>2019-09-21T09:09:39Z</time>
      </trkpt>
      <trkpt lat="43.22678" lon="5.61486">
        <ele>223.5234375</ele>
        <time>2019-09-21T09:09:41Z</time>
      </trkpt>
      <trkpt lat="43.2267" lon="5.61491">
        <ele>223.51953125</ele>
        <time>2019-09-21T09:09:43Z</time>
      </trkpt>
      <trkpt lat="43.22652" lon="5.61504">
        <ele>221.328125</ele>
        <time>2019-09-21T09:09:47Z</time>
      </trkpt>
      <trkpt lat="43.22637" lon="5.61519">
        <ele>218.80078125</ele>
        <time>2019-09-21T09:09:50Z</time>
      </trkpt>
      <trkpt lat="43.22633" lon="5.61524">
        <ele>218.140625</ele>
        <time>2019-09-21T09:09:51Z</time>
      </trkpt>
      <trkpt lat="43.2263" lon="5.61528">
        <ele>217.5078125</ele>
        <time>2019-09-21T09:09:52Z</time>
      </trkpt>
      <trkpt lat="43.22628" lon="5.61534">
        <ele>217.09765625</ele>
        <time>2019-09-21T09:09:53Z</time>
      </trkpt>
      <trkpt lat="43.22626" lon="5.6154">
        <ele>216.79296875</ele>
        <time>2019-09-21T09:09:54Z</time>
      </trkpt>
      <trkpt lat="43.22621" lon="5.6155">
        <ele>215.09375</ele>
        <time>2019-09-21T09:09:56Z</time>
      </trkpt>
      <trkpt lat="43.22617" lon="5.61553">
        <ele>213.3515625</ele>
        <time>2019-09-21T09:09:57Z</time>
      </trkpt>
      <trkpt lat="43.22613" lon="5.61555">
        <ele>210.96875</ele>
        <time>2019-09-21T09:09:58Z</time>
      </trkpt>
      <trkpt lat="43.22609" lon="5.6156">
        <ele>208.46875</ele>
        <time>2019-09-21T09:09:59Z</time>
      </trkpt>
      <trkpt lat="43.22605" lon="5.61564">
        <ele>206.03125</ele>
        <time>2019-09-21T09:10:00Z</time>
      </trkpt>
      <trkpt lat="43.22602" lon="5.61568">
        <ele>203.6015625</ele>
        <time>2019-09-21T09:10:01Z</time>
      </trkpt>
      <trkpt lat="43.22598" lon="5.61572">
        <ele>201.015625</ele>
        <time>2019-09-21T09:10:02Z</time>
      </trkpt>
      <trkpt lat="43.22594" lon="5.61576">
        <ele>198.14453125</ele>
        <time>2019-09-21T09:10:03Z</time>
      </trkpt>
      <trkpt lat="43.2259" lon="5.61581">
        <ele>195.1875</ele>
        <time>2019-09-21T09:10:04Z</time>
      </trkpt>
      <trkpt lat="43.22585" lon="5.61586">
        <ele>194.1171875</ele>
        <time>2019-09-21T09:10:05Z</time>
      </trkpt>
      <trkpt lat="43.2258" lon="5.6159">
        <ele>193.71484375</ele>
        <time>2019-09-21T09:10:06Z</time>
      </trkpt>
      <trkpt lat="43.22574" lon="5.61595">
        <ele>193.39453125</ele>
        <time>2019-09-21T09:10:07Z</time>
      </trkpt>
      <trkpt lat="43.22568" lon="5.61599">
        <ele>193.140625</ele>
        <time>2019-09-21T09:10:08Z</time>
      </trkpt>
      <trkpt lat="43.22563" lon="5.61603">
        <ele>193.01953125</ele>
        <time>2019-09-21T09:10:09Z</time>
      </trkpt>
      <trkpt lat="43.22557" lon="5.61606">
        <ele>193.10546875</ele>
        <time>2019-09-21T09:10:10Z</time>
      </trkpt>
      <trkpt lat="43.22551" lon="5.61611">
        <ele>193.09375</ele>
        <time>2019-09-21T09:10:11Z</time>
      </trkpt>
      <trkpt lat="43.22546" lon="5.61616">
        <ele>192.9765625</ele>
        <time>2019-09-21T09:10:12Z</time>
      </trkpt>
      <trkpt lat="43.22542" lon="5.61623">
        <ele>192.7578125</ele>
        <time>2019-09-21T09:10:13Z</time>
      </trkpt>
      <trkpt lat="43.2254" lon="5.6163">
        <ele>192.484375</ele>
        <time>2019-09-21T09:10:14Z</time>
      </trkpt>
      <trkpt lat="43.22538" lon="5.61638">
        <ele>192.48828125</ele>
        <time>2019-09-21T09:10:15Z</time>
      </trkpt>
      <trkpt lat="43.22538" lon="5.61646">
        <ele>192.5703125</ele>
        <time>2019-09-21T09:10:16Z</time>
      </trkpt>
      <trkpt lat="43.22539" lon="5.61654">
        <ele>192.8125</ele>
        <time>2019-09-21T09:10:17Z</time>
      </trkpt>
      <trkpt lat="43.22541" lon="5.61663">
        <ele>193.6953125</ele>
        <time>2019-09-21T09:10:18Z</time>
      </trkpt>
      <trkpt lat="43.22542" lon="5.61672">
        <ele>194.92578125</ele>
        <time>2019-09-21T09:10:19Z</time>
      </trkpt>
      <trkpt lat="43.22542" lon="5.61707">
        <ele>199.90625</ele>
        <time>2019-09-21T09:10:23Z</time>
      </trkpt>
      <trkpt lat="43.22541" lon="5.61715">
        <ele>200.83984375</ele>
        <time>2019-09-21T09:10:24Z</time>
      </trkpt>
      <trkpt lat="43.22539" lon="5.61722">
        <ele>202.29296875</ele>
        <time>2019-09-21T09:10:25Z</time>
      </trkpt>
      <trkpt lat="43.22537" lon="5.61728">
        <ele>203.27734375</ele>
        <time>2019-09-21T09:10:26Z</time>
      </trkpt>
      <trkpt lat="43.22534" lon="5.61733">
        <ele>203.4140625</ele>
        <time>2019-09-21T09:10:27Z</time>
      </trkpt>
      <trkpt lat="43.2253" lon="5.61737">
        <ele>203.02734375</ele>
        <time>2019-09-21T09:10:28Z</time>
      </trkpt>
      <trkpt lat="43.22525" lon="5.61741">
        <ele>202.453125</ele>
        <time>2019-09-21T09:10:29Z</time>
      </trkpt>
      <trkpt lat="43.2252" lon="5.61744">
        <ele>201.78515625</ele>
        <time>2019-09-21T09:10:30Z</time>
      </trkpt>
      <trkpt lat="43.22514" lon="5.61745">
        <ele>200.375</ele>
        <time>2019-09-21T09:10:31Z</time>
      </trkpt>
      <trkpt lat="43.22509" lon="5.61743">
        <ele>198.15234375</ele>
        <time>2019-09-21T09:10:32Z</time>
      </trkpt>
      <trkpt lat="43.22505" lon="5.6174">
        <ele>195.74609375</ele>
        <time>2019-09-21T09:10:33Z</time>
      </trkpt>
      <trkpt lat="43.22502" lon="5.61737">
        <ele>194.38671875</ele>
        <time>2019-09-21T09:10:34Z</time>
      </trkpt>
      <trkpt lat="43.225" lon="5.61733">
        <ele>193.234375</ele>
        <time>2019-09-21T09:10:35Z</time>
      </trkpt>
      <trkpt lat="43.22498" lon="5.61731">
        <ele>192.32421875</ele>
        <time>2019-09-21T09:10:36Z</time>
      </trkpt>
      <trkpt lat="43.22494" lon="5.6173">
        <ele>191.46484375</ele>
        <time>2019-09-21T09:10:37Z</time>
      </trkpt>
      <trkpt lat="43.22488" lon="5.61728">
        <ele>190.31640625</ele>
        <time>2019-09-21T09:10:38Z</time>
      </trkpt>
      <trkpt lat="43.22482" lon="5.61725">
        <ele>188.8046875</ele>
        <time>2019-09-21T09:10:39Z</time>
      </trkpt>
      <trkpt lat="43.22477" lon="5.61721">
        <ele>187.3125</ele>
        <time>2019-09-21T09:10:40Z</time>
      </trkpt>
      <trkpt lat="43.22466" lon="5.61715">
        <ele>185.87109375</ele>
        <time>2019-09-21T09:10:42Z</time>
      </trkpt>
      <trkpt lat="43.22461" lon="5.61713">
        <ele>185.625</ele>
        <time>2019-09-21T09:10:43Z</time>
      </trkpt>
      <trkpt lat="43.22451" lon="5.6171">
        <ele>186.23046875</ele>
        <time>2019-09-21T09:10:45Z</time>
      </trkpt>
      <trkpt lat="43.22445" lon="5.6171">
        <ele>186.0625</ele>
        <time>2019-09-21T09:10:46Z</time>
      </trkpt>
      <trkpt lat="43.22439" lon="5.61711">
        <ele>185.765625</ele>
        <time>2019-09-21T09:10:47Z</time>
      </trkpt>
      <trkpt lat="43.22434" lon="5.61714">
        <ele>185.62890625</ele>
        <time>2019-09-21T09:10:48Z</time>
      </trkpt>
      <trkpt lat="43.22429" lon="5.61716">
        <ele>185.9921875</ele>
        <time>2019-09-21T09:10:49Z</time>
      </trkpt>
      <trkpt lat="43.22424" lon="5.61718">
        <ele>186.2265625</ele>
        <time>2019-09-21T09:10:50Z</time>
      </trkpt>
      <trkpt lat="43.22411" lon="5.61723">
        <ele>186.77734375</ele>
        <time>2019-09-21T09:10:53Z</time>
      </trkpt>
      <trkpt lat="43.22407" lon="5.61725">
        <ele>186.87109375</ele>
        <time>2019-09-21T09:10:54Z</time>
      </trkpt>
      <trkpt lat="43.22403" lon="5.61725">
        <ele>186.73828125</ele>
        <time>2019-09-21T09:10:55Z</time>
      </trkpt>
      <trkpt lat="43.22399" lon="5.61724">
        <ele>186.1328125</ele>
        <time>2019-09-21T09:10:56Z</time>
      </trkpt>
      <trkpt lat="43.22395" lon="5.6172">
        <ele>185.23828125</ele>
        <time>2019-09-21T09:10:57Z</time>
      </trkpt>
      <trkpt lat="43.22391" lon="5.61716">
        <ele>183.9453125</ele>
        <time>2019-09-21T09:10:58Z</time>
      </trkpt>
      <trkpt lat="43.22387" lon="5.61712">
        <ele>182.96484375</ele>
        <time>2019-09-21T09:10:59Z</time>
      </trkpt>
      <trkpt lat="43.22382" lon="5.6171">
        <ele>182.4765625</ele>
        <time>2019-09-21T09:11:00Z</time>
      </trkpt>
      <trkpt lat="43.22378" lon="5.6171">
        <ele>181.9296875</ele>
        <time>2019-09-21T09:11:01Z</time>
      </trkpt>
      <trkpt lat="43.22373" lon="5.61709">
        <ele>181.3125</ele>
        <time>2019-09-21T09:11:02Z</time>
      </trkpt>
      <trkpt lat="43.22368" lon="5.6171">
        <ele>180.64453125</ele>
        <time>2019-09-21T09:11:03Z</time>
      </trkpt>
      <trkpt lat="43.22345" lon="5.61719">
        <ele>177.94921875</ele>
        <time>2019-09-21T09:11:09Z</time>
      </trkpt>
      <trkpt lat="43.2234" lon="5.61721">
        <ele>177.5</ele>
        <time>2019-09-21T09:11:10Z</time>
      </trkpt>
      <trkpt lat="43.22336" lon="5.61723">
        <ele>177.2734375</ele>
        <time>2019-09-21T09:11:11Z</time>
      </trkpt>
      <trkpt lat="43.22331" lon="5.61726">
        <ele>177.21484375</ele>
        <time>2019-09-21T09:11:12Z</time>
      </trkpt>
      <trkpt lat="43.22328" lon="5.61733">
        <ele>177.17578125</ele>
        <time>2019-09-21T09:11:13Z</time>
      </trkpt>
      <trkpt lat="43.22327" lon="5.6174">
        <ele>177.18359375</ele>
        <time>2019-09-21T09:11:14Z</time>
      </trkpt>
      <trkpt lat="43.22327" lon="5.61748">
        <ele>177.37890625</ele>
        <time>2019-09-21T09:11:15Z</time>
      </trkpt>
      <trkpt lat="43.22328" lon="5.61756">
        <ele>177.73046875</ele>
        <time>2019-09-21T09:11:16Z</time>
      </trkpt>
      <trkpt lat="43.22329" lon="5.61764">
        <ele>178.1328125</ele>
        <time>2019-09-21T09:11:17Z</time>
      </trkpt>
      <trkpt lat="43.22331" lon="5.61779">
        <ele>179.02734375</ele>
        <time>2019-09-21T09:11:19Z</time>
      </trkpt>
      <trkpt lat="43.22332" lon="5.61786">
        <ele>179.609375</ele>
        <time>2019-09-21T09:11:20Z</time>
      </trkpt>
      <trkpt lat="43.22333" lon="5.61793">
        <ele>180.140625</ele>
        <time>2019-09-21T09:11:21Z</time>
      </trkpt>
      <trkpt lat="43.22333" lon="5.61801">
        <ele>180.484375</ele>
        <time>2019-09-21T09:11:22Z</time>
      </trkpt>
      <trkpt lat="43.22332" lon="5.61808">
        <ele>180.62890625</ele>
        <time>2019-09-21T09:11:23Z</time>
      </trkpt>
      <trkpt lat="43.22331" lon="5.61816">
        <ele>180.65625</ele>
        <time>2019-09-21T09:11:24Z</time>
      </trkpt>
      <trkpt lat="43.22329" lon="5.61822">
        <ele>180.515625</ele>
        <time>2019-09-21T09:11:25Z</time>
      </trkpt>
      <trkpt lat="43.22327" lon="5.61828">
        <ele>179.921875</ele>
        <time>2019-09-21T09:11:26Z</time>
      </trkpt>
      <trkpt lat="43.22325" lon="5.61835">
        <ele>178.80859375</ele>
        <time>2019-09-21T09:11:27Z</time>
      </trkpt>
      <trkpt lat="43.22321" lon="5.61842">
        <ele>177.34765625</ele>
        <time>2019-09-21T09:11:28Z</time>
      </trkpt>
      <trkpt lat="43.22318" lon="5.61849">
        <ele>175.89453125</ele>
        <time>2019-09-21T09:11:29Z</time>
      </trkpt>
      <trkpt lat="43.22314" lon="5.61855">
        <ele>174.1328125</ele>
        <time>2019-09-21T09:11:30Z</time>
      </trkpt>
      <trkpt lat="43.22311" lon="5.6186">
        <ele>172.70703125</ele>
        <time>2019-09-21T09:11:31Z</time>
      </trkpt>
      <trkpt lat="43.22309" lon="5.61866">
        <ele>172.65234375</ele>
        <time>2019-09-21T09:11:32Z</time>
      </trkpt>
      <trkpt lat="43.22308" lon="5.61871">
        <ele>172.515625</ele>
        <time>2019-09-21T09:11:33Z</time>
      </trkpt>
      <trkpt lat="43.22308" lon="5.61877">
        <ele>172.3046875</ele>
        <time>2019-09-21T09:11:34Z</time>
      </trkpt>
      <trkpt lat="43.2231" lon="5.61882">
        <ele>172.015625</ele>
        <time>2019-09-21T09:11:35Z</time>
      </trkpt>
      <trkpt lat="43.22313" lon="5.61886">
        <ele>172.58984375</ele>
        <time>2019-09-21T09:11:36Z</time>
      </trkpt>
      <trkpt lat="43.22317" lon="5.61891">
        <ele>173.890625</ele>
        <time>2019-09-21T09:11:37Z</time>
      </trkpt>
      <trkpt lat="43.22321" lon="5.61896">
        <ele>175.13671875</ele>
        <time>2019-09-21T09:11:38Z</time>
      </trkpt>
      <trkpt lat="43.22323" lon="5.61902">
        <ele>175.81640625</ele>
        <time>2019-09-21T09:11:39Z</time>
      </trkpt>
      <trkpt lat="43.22325" lon="5.61907">
        <ele>176.22265625</ele>
        <time>2019-09-21T09:11:40Z</time>
      </trkpt>
      <trkpt lat="43.22325" lon="5.6191">
        <ele>175.88671875</ele>
        <time>2019-09-21T09:11:41Z</time>
      </trkpt>
      <trkpt lat="43.22325" lon="5.61917">
        <ele>175.21875</ele>
        <time>2019-09-21T09:11:45Z</time>
      </trkpt>
      <trkpt lat="43.22326" lon="5.61919">
        <ele>175.078125</ele>
        <time>2019-09-21T09:11:46Z</time>
      </trkpt>
      <trkpt lat="43.22325" lon="5.6195">
        <ele>171.7578125</ele>
        <time>2019-09-21T09:11:54Z</time>
      </trkpt>
      <trkpt lat="43.22326" lon="5.61955">
        <ele>171.5859375</ele>
        <time>2019-09-21T09:11:55Z</time>
      </trkpt>
      <trkpt lat="43.22326" lon="5.6196">
        <ele>171.2734375</ele>
        <time>2019-09-21T09:11:56Z</time>
      </trkpt>
      <trkpt lat="43.22327" lon="5.61966">
        <ele>171.01171875</ele>
        <time>2019-09-21T09:11:57Z</time>
      </trkpt>
      <trkpt lat="43.22328" lon="5.61971">
        <ele>171.1875</ele>
        <time>2019-09-21T09:11:58Z</time>
      </trkpt>
      <trkpt lat="43.2233" lon="5.61977">
        <ele>171.01171875</ele>
        <time>2019-09-21T09:11:59Z</time>
      </trkpt>
      <trkpt lat="43.2233" lon="5.61983">
        <ele>170.53515625</ele>
        <time>2019-09-21T09:12:00Z</time>
      </trkpt>
      <trkpt lat="43.2233" lon="5.61987">
        <ele>170.15625</ele>
        <time>2019-09-21T09:12:01Z</time>
      </trkpt>
      <trkpt lat="43.22334" lon="5.62011">
        <ele>169.8828125</ele>
        <time>2019-09-21T09:12:08Z</time>
      </trkpt>
      <trkpt lat="43.22334" lon="5.62015">
        <ele>169.60546875</ele>
        <time>2019-09-21T09:12:09Z</time>
      </trkpt>
      <trkpt lat="43.22335" lon="5.62036">
        <ele>169.5078125</ele>
        <time>2019-09-21T09:12:13Z</time>
      </trkpt>
      <trkpt lat="43.22334" lon="5.62059">
        <ele>169.2734375</ele>
        <time>2019-09-21T09:12:16Z</time>
      </trkpt>
      <trkpt lat="43.22333" lon="5.62066">
        <ele>168.90234375</ele>
        <time>2019-09-21T09:12:17Z</time>
      </trkpt>
      <trkpt lat="43.22331" lon="5.62073">
        <ele>167.90625</ele>
        <time>2019-09-21T09:12:18Z</time>
      </trkpt>
      <trkpt lat="43.22327" lon="5.62079">
        <ele>166.84375</ele>
        <time>2019-09-21T09:12:19Z</time>
      </trkpt>
      <trkpt lat="43.22324" lon="5.62087">
        <ele>165.87890625</ele>
        <time>2019-09-21T09:12:20Z</time>
      </trkpt>
      <trkpt lat="43.22322" lon="5.62094">
        <ele>165.4140625</ele>
        <time>2019-09-21T09:12:21Z</time>
      </trkpt>
      <trkpt lat="43.22321" lon="5.621">
        <ele>165.42578125</ele>
        <time>2019-09-21T09:12:22Z</time>
      </trkpt>
      <trkpt lat="43.22321" lon="5.62106">
        <ele>165.70703125</ele>
        <time>2019-09-21T09:12:23Z</time>
      </trkpt>
      <trkpt lat="43.22319" lon="5.62113">
        <ele>165.7421875</ele>
        <time>2019-09-21T09:12:24Z</time>
      </trkpt>
      <trkpt lat="43.22317" lon="5.6212">
        <ele>165.32421875</ele>
        <time>2019-09-21T09:12:25Z</time>
      </trkpt>
      <trkpt lat="43.22314" lon="5.62126">
        <ele>164.44921875</ele>
        <time>2019-09-21T09:12:26Z</time>
      </trkpt>
      <trkpt lat="43.22311" lon="5.62132">
        <ele>163.57421875</ele>
        <time>2019-09-21T09:12:27Z</time>
      </trkpt>
      <trkpt lat="43.22309" lon="5.62137">
        <ele>163.4140625</ele>
        <time>2019-09-21T09:12:28Z</time>
      </trkpt>
      <trkpt lat="43.22305" lon="5.62146">
        <ele>163.19921875</ele>
        <time>2019-09-21T09:12:30Z</time>
      </trkpt>
      <trkpt lat="43.22303" lon="5.6215">
        <ele>162.8671875</ele>
        <time>2019-09-21T09:12:31Z</time>
      </trkpt>
      <trkpt lat="43.223" lon="5.62154">
        <ele>161.97265625</ele>
        <time>2019-09-21T09:12:32Z</time>
      </trkpt>
      <trkpt lat="43.22296" lon="5.62159">
        <ele>160.62109375</ele>
        <time>2019-09-21T09:12:33Z</time>
      </trkpt>
      <trkpt lat="43.22293" lon="5.62164">
        <ele>159.58984375</ele>
        <time>2019-09-21T09:12:34Z</time>
      </trkpt>
      <trkpt lat="43.22292" lon="5.62168">
        <ele>159.484375</ele>
        <time>2019-09-21T09:12:35Z</time>
      </trkpt>
      <trkpt lat="43.22293" lon="5.62173">
        <ele>160.22265625</ele>
        <time>2019-09-21T09:12:36Z</time>
      </trkpt>
      <trkpt lat="43.22294" lon="5.62178">
        <ele>161.2109375</ele>
        <time>2019-09-21T09:12:37Z</time>
      </trkpt>
      <trkpt lat="43.22295" lon="5.62182">
        <ele>161.984375</ele>
        <time>2019-09-21T09:12:38Z</time>
      </trkpt>
      <trkpt lat="43.22294" lon="5.62186">
        <ele>161.73828125</ele>
        <time>2019-09-21T09:12:39Z</time>
      </trkpt>
      <trkpt lat="43.22293" lon="5.6219">
        <ele>161.078125</ele>
        <time>2019-09-21T09:12:40Z</time>
      </trkpt>
      <trkpt lat="43.22291" lon="5.62196">
        <ele>160.62109375</ele>
        <time>2019-09-21T09:12:41Z</time>
      </trkpt>
      <trkpt lat="43.2229" lon="5.62203">
        <ele>160.17578125</ele>
        <time>2019-09-21T09:12:42Z</time>
      </trkpt>
      <trkpt lat="43.22288" lon="5.62211">
        <ele>159.46484375</ele>
        <time>2019-09-21T09:12:43Z</time>
      </trkpt>
      <trkpt lat="43.22284" lon="5.62226">
        <ele>158.625</ele>
        <time>2019-09-21T09:12:45Z</time>
      </trkpt>
      <trkpt lat="43.22282" lon="5.62232">
        <ele>157.9765625</ele>
        <time>2019-09-21T09:12:46Z</time>
      </trkpt>
      <trkpt lat="43.22277" lon="5.62245">
        <ele>156</ele>
        <time>2019-09-21T09:12:48Z</time>
      </trkpt>
      <trkpt lat="43.22273" lon="5.62251">
        <ele>154.40625</ele>
        <time>2019-09-21T09:12:49Z</time>
      </trkpt>
      <trkpt lat="43.22257" lon="5.62273">
        <ele>147.55078125</ele>
        <time>2019-09-21T09:12:53Z</time>
      </trkpt>
      <trkpt lat="43.22247" lon="5.62292">
        <ele>144.98828125</ele>
        <time>2019-09-21T09:12:57Z</time>
      </trkpt>
      <trkpt lat="43.22244" lon="5.62298">
        <ele>144.19921875</ele>
        <time>2019-09-21T09:12:58Z</time>
      </trkpt>
      <trkpt lat="43.22239" lon="5.62315">
        <ele>142.5546875</ele>
        <time>2019-09-21T09:13:01Z</time>
      </trkpt>
      <trkpt lat="43.22239" lon="5.62322">
        <ele>142.23046875</ele>
        <time>2019-09-21T09:13:02Z</time>
      </trkpt>
      <trkpt lat="43.22237" lon="5.62328">
        <ele>141.1796875</ele>
        <time>2019-09-21T09:13:03Z</time>
      </trkpt>
      <trkpt lat="43.22229" lon="5.62347">
        <ele>135.8671875</ele>
        <time>2019-09-21T09:13:07Z</time>
      </trkpt>
      <trkpt lat="43.22227" lon="5.62352">
        <ele>134.8515625</ele>
        <time>2019-09-21T09:13:08Z</time>
      </trkpt>
      <trkpt lat="43.22224" lon="5.62363">
        <ele>133.7109375</ele>
        <time>2019-09-21T09:13:15Z</time>
      </trkpt>
      <trkpt lat="43.22222" lon="5.62368">
        <ele>133.04296875</ele>
        <time>2019-09-21T09:13:29Z</time>
      </trkpt>
      <trkpt lat="43.2222" lon="5.62367">
        <ele>132.59375</ele>
        <time>2019-09-21T09:13:45Z</time>
      </trkpt>
      <trkpt lat="43.22226" lon="5.62373">
        <ele>133.81640625</ele>
        <time>2019-09-21T09:14:14Z</time>
      </trkpt>
      <trkpt lat="43.2222" lon="5.62392">
        <ele>131.36328125</ele>
        <time>2019-09-21T09:14:27Z</time>
      </trkpt>
      <trkpt lat="43.22214" lon="5.6241">
        <ele>129.0390625</ele>
        <time>2019-09-21T09:14:30Z</time>
      </trkpt>
      <trkpt lat="43.22211" lon="5.62416">
        <ele>128.09765625</ele>
        <time>2019-09-21T09:14:31Z</time>
      </trkpt>
      <trkpt lat="43.22207" lon="5.62423">
        <ele>127.2734375</ele>
        <time>2019-09-21T09:14:32Z</time>
      </trkpt>
      <trkpt lat="43.22204" lon="5.62429">
        <ele>126.6796875</ele>
        <time>2019-09-21T09:14:33Z</time>
      </trkpt>
      <trkpt lat="43.22202" lon="5.62437">
        <ele>126.3203125</ele>
        <time>2019-09-21T09:14:34Z</time>
      </trkpt>
      <trkpt lat="43.222" lon="5.62443">
        <ele>126.02734375</ele>
        <time>2019-09-21T09:14:35Z</time>
      </trkpt>
      <trkpt lat="43.22193" lon="5.62453">
        <ele>126.2421875</ele>
        <time>2019-09-21T09:14:39Z</time>
      </trkpt>
      <trkpt lat="43.22191" lon="5.62455">
        <ele>126.34375</ele>
        <time>2019-09-21T09:15:00Z</time>
      </trkpt>
      <trkpt lat="43.22172" lon="5.62456">
        <ele>127.28125</ele>
        <time>2019-09-21T09:15:12Z</time>
      </trkpt>
      <trkpt lat="43.22171" lon="5.62454">
        <ele>127.1171875</ele>
        <time>2019-09-21T09:15:13Z</time>
      </trkpt>
      <trkpt lat="43.22167" lon="5.62447">
        <ele>126.44140625</ele>
        <time>2019-09-21T09:15:16Z</time>
      </trkpt>
      <trkpt lat="43.22165" lon="5.62438">
        <ele>125.3359375</ele>
        <time>2019-09-21T09:15:20Z</time>
      </trkpt>
      <trkpt lat="43.22164" lon="5.62435">
        <ele>125.046875</ele>
        <time>2019-09-21T09:15:21Z</time>
      </trkpt>
      <trkpt lat="43.22163" lon="5.62433">
        <ele>124.86328125</ele>
        <time>2019-09-21T09:15:22Z</time>
      </trkpt>
      <trkpt lat="43.22162" lon="5.6243">
        <ele>124.66015625</ele>
        <time>2019-09-21T09:15:23Z</time>
      </trkpt>
      <trkpt lat="43.22162" lon="5.62428">
        <ele>124.43359375</ele>
        <time>2019-09-21T09:15:24Z</time>
      </trkpt>
      <trkpt lat="43.22161" lon="5.62425">
        <ele>124.1796875</ele>
        <time>2019-09-21T09:15:25Z</time>
      </trkpt>
      <trkpt lat="43.2216" lon="5.62422">
        <ele>123.87890625</ele>
        <time>2019-09-21T09:15:26Z</time>
      </trkpt>
      <trkpt lat="43.22158" lon="5.62419">
        <ele>123.53125</ele>
        <time>2019-09-21T09:15:27Z</time>
      </trkpt>
      <trkpt lat="43.22157" lon="5.62416">
        <ele>123.19140625</ele>
        <time>2019-09-21T09:15:28Z</time>
      </trkpt>
      <trkpt lat="43.22154" lon="5.62415">
        <ele>122.80859375</ele>
        <time>2019-09-21T09:15:29Z</time>
      </trkpt>
      <trkpt lat="43.22152" lon="5.62413">
        <ele>122.47265625</ele>
        <time>2019-09-21T09:15:30Z</time>
      </trkpt>
      <trkpt lat="43.2215" lon="5.62412">
        <ele>122.15625</ele>
        <time>2019-09-21T09:15:31Z</time>
      </trkpt>
      <trkpt lat="43.22147" lon="5.62411">
        <ele>121.796875</ele>
        <time>2019-09-21T09:15:32Z</time>
      </trkpt>
      <trkpt lat="43.22145" lon="5.6241">
        <ele>121.47265625</ele>
        <time>2019-09-21T09:15:33Z</time>
      </trkpt>
      <trkpt lat="43.22142" lon="5.6241">
        <ele>121.13671875</ele>
        <time>2019-09-21T09:15:34Z</time>
      </trkpt>
      <trkpt lat="43.2212" lon="5.62407">
        <ele>118.375</ele>
        <time>2019-09-21T09:15:45Z</time>
      </trkpt>
      <trkpt lat="43.22118" lon="5.62408">
        <ele>118.29296875</ele>
        <time>2019-09-21T09:15:46Z</time>
      </trkpt>
      <trkpt lat="43.22117" lon="5.62408">
        <ele>118.21484375</ele>
        <time>2019-09-21T09:15:47Z</time>
      </trkpt>
      <trkpt lat="43.22115" lon="5.62409">
        <ele>118.37890625</ele>
        <time>2019-09-21T09:15:48Z</time>
      </trkpt>
      <trkpt lat="43.22114" lon="5.62409">
        <ele>118.58203125</ele>
        <time>2019-09-21T09:15:49Z</time>
      </trkpt>
      <trkpt lat="43.22093" lon="5.62423">
        <ele>123.5078125</ele>
        <time>2019-09-21T09:16:03Z</time>
      </trkpt>
      <trkpt lat="43.22087" lon="5.62427">
        <ele>125.16015625</ele>
        <time>2019-09-21T09:16:08Z</time>
      </trkpt>
      <trkpt lat="43.22085" lon="5.62428">
        <ele>125.41015625</ele>
        <time>2019-09-21T09:16:09Z</time>
      </trkpt>
      <trkpt lat="43.22083" lon="5.62428">
        <ele>125.65625</ele>
        <time>2019-09-21T09:16:10Z</time>
      </trkpt>
      <trkpt lat="43.22068" lon="5.62431">
        <ele>127.43359375</ele>
        <time>2019-09-21T09:16:23Z</time>
      </trkpt>
      <trkpt lat="43.22052" lon="5.62441">
        <ele>130.04296875</ele>
        <time>2019-09-21T09:16:39Z</time>
      </trkpt>
      <trkpt lat="43.22045" lon="5.62448">
        <ele>131.49609375</ele>
        <time>2019-09-21T09:16:46Z</time>
      </trkpt>
      <trkpt lat="43.22032" lon="5.62459">
        <ele>133.58984375</ele>
        <time>2019-09-21T09:17:00Z</time>
      </trkpt>
      <trkpt lat="43.2203" lon="5.6246">
        <ele>133.87890625</ele>
        <time>2019-09-21T09:17:02Z</time>
      </trkpt>
      <trkpt lat="43.22024" lon="5.62467">
        <ele>135.18359375</ele>
        <time>2019-09-21T09:17:09Z</time>
      </trkpt>
      <trkpt lat="43.22021" lon="5.62469">
        <ele>135.4296875</ele>
        <time>2019-09-21T09:17:12Z</time>
      </trkpt>
      <trkpt lat="43.2202" lon="5.62469">
        <ele>135.44140625</ele>
        <time>2019-09-21T09:17:13Z</time>
      </trkpt>
      <trkpt lat="43.22018" lon="5.62471">
        <ele>135.7265625</ele>
        <time>2019-09-21T09:17:15Z</time>
      </trkpt>
      <trkpt lat="43.22018" lon="5.62472">
        <ele>136.0390625</ele>
        <time>2019-09-21T09:17:16Z</time>
      </trkpt>
      <trkpt lat="43.22015" lon="5.62475">
        <ele>136.56640625</ele>
        <time>2019-09-21T09:17:19Z</time>
      </trkpt>
      <trkpt lat="43.22014" lon="5.62475">
        <ele>136.54296875</ele>
        <time>2019-09-21T09:17:20Z</time>
      </trkpt>
      <trkpt lat="43.21995" lon="5.62479">
        <ele>135.0546875</ele>
        <time>2019-09-21T09:17:35Z</time>
      </trkpt>
      <trkpt lat="43.21992" lon="5.62477">
        <ele>134.14453125</ele>
        <time>2019-09-21T09:17:39Z</time>
      </trkpt>
      <trkpt lat="43.21991" lon="5.62477">
        <ele>134.03125</ele>
        <time>2019-09-21T09:17:40Z</time>
      </trkpt>
      <trkpt lat="43.21985" lon="5.62478">
        <ele>133.48828125</ele>
        <time>2019-09-21T09:17:45Z</time>
      </trkpt>
      <trkpt lat="43.21984" lon="5.62479">
        <ele>133.453125</ele>
        <time>2019-09-21T09:17:46Z</time>
      </trkpt>
      <trkpt lat="43.2198" lon="5.6248">
        <ele>133.34765625</ele>
        <time>2019-09-21T09:17:49Z</time>
      </trkpt>
      <trkpt lat="43.21964" lon="5.62483">
        <ele>132.68359375</ele>
        <time>2019-09-21T09:18:04Z</time>
      </trkpt>
      <trkpt lat="43.21948" lon="5.62491">
        <ele>134.078125</ele>
        <time>2019-09-21T09:18:18Z</time>
      </trkpt>
      <trkpt lat="43.21947" lon="5.62492">
        <ele>134.3203125</ele>
        <time>2019-09-21T09:18:19Z</time>
      </trkpt>
      <trkpt lat="43.21946" lon="5.62493">
        <ele>134.5</ele>
        <time>2019-09-21T09:18:20Z</time>
      </trkpt>
      <trkpt lat="43.21945" lon="5.62494">
        <ele>134.6640625</ele>
        <time>2019-09-21T09:18:21Z</time>
      </trkpt>
      <trkpt lat="43.21943" lon="5.62495">
        <ele>134.75390625</ele>
        <time>2019-09-21T09:18:22Z</time>
      </trkpt>
      <trkpt lat="43.21942" lon="5.62495">
        <ele>134.828125</ele>
        <time>2019-09-21T09:18:23Z</time>
      </trkpt>
      <trkpt lat="43.21941" lon="5.62496">
        <ele>134.91796875</ele>
        <time>2019-09-21T09:18:24Z</time>
      </trkpt>
      <trkpt lat="43.21935" lon="5.62497">
        <ele>134.984375</ele>
        <time>2019-09-21T09:18:31Z</time>
      </trkpt>
      <trkpt lat="43.21919" lon="5.62509">
        <ele>136.58203125</ele>
        <time>2019-09-21T09:18:46Z</time>
      </trkpt>
      <trkpt lat="43.21902" lon="5.62523">
        <ele>137.51953125</ele>
        <time>2019-09-21T09:19:01Z</time>
      </trkpt>
      <trkpt lat="43.21901" lon="5.62524">
        <ele>137.5390625</ele>
        <time>2019-09-21T09:19:02Z</time>
      </trkpt>
      <trkpt lat="43.219" lon="5.62525">
        <ele>137.6171875</ele>
        <time>2019-09-21T09:19:03Z</time>
      </trkpt>
      <trkpt lat="43.21899" lon="5.62526">
        <ele>137.625</ele>
        <time>2019-09-21T09:19:04Z</time>
      </trkpt>
      <trkpt lat="43.21898" lon="5.62527">
        <ele>137.65625</ele>
        <time>2019-09-21T09:19:05Z</time>
      </trkpt>
      <trkpt lat="43.21897" lon="5.62528">
        <ele>137.69921875</ele>
        <time>2019-09-21T09:19:06Z</time>
      </trkpt>
      <trkpt lat="43.21885" lon="5.62551">
        <ele>139.296875</ele>
        <time>2019-09-21T09:19:22Z</time>
      </trkpt>
      <trkpt lat="43.21885" lon="5.62552">
        <ele>139.390625</ele>
        <time>2019-09-21T09:19:23Z</time>
      </trkpt>
      <trkpt lat="43.21885" lon="5.62558">
        <ele>139.875</ele>
        <time>2019-09-21T09:19:26Z</time>
      </trkpt>
      <trkpt lat="43.21886" lon="5.62559">
        <ele>140.0859375</ele>
        <time>2019-09-21T09:19:27Z</time>
      </trkpt>
      <trkpt lat="43.21888" lon="5.6256">
        <ele>140.26953125</ele>
        <time>2019-09-21T09:19:28Z</time>
      </trkpt>
      <trkpt lat="43.21889" lon="5.62561">
        <ele>140.453125</ele>
        <time>2019-09-21T09:19:29Z</time>
      </trkpt>
      <trkpt lat="43.2189" lon="5.62561">
        <ele>140.609375</ele>
        <time>2019-09-21T09:19:30Z</time>
      </trkpt>
      <trkpt lat="43.21892" lon="5.62561">
        <ele>140.74609375</ele>
        <time>2019-09-21T09:19:31Z</time>
      </trkpt>
      <trkpt lat="43.21896" lon="5.62561">
        <ele>141.2109375</ele>
        <time>2019-09-21T09:19:34Z</time>
      </trkpt>
      <trkpt lat="43.21897" lon="5.6256">
        <ele>141.3828125</ele>
        <time>2019-09-21T09:19:35Z</time>
      </trkpt>
      <trkpt lat="43.21899" lon="5.62561">
        <ele>141.63671875</ele>
        <time>2019-09-21T09:19:36Z</time>
      </trkpt>
      <trkpt lat="43.219" lon="5.62562">
        <ele>141.90234375</ele>
        <time>2019-09-21T09:19:37Z</time>
      </trkpt>
      <trkpt lat="43.21903" lon="5.62571">
        <ele>143.09375</ele>
        <time>2019-09-21T09:19:45Z</time>
      </trkpt>
      <trkpt lat="43.21914" lon="5.62568">
        <ele>144.3359375</ele>
        <time>2019-09-21T09:19:53Z</time>
      </trkpt>
      <trkpt lat="43.21927" lon="5.62556">
        <ele>145.125</ele>
        <time>2019-09-21T09:20:02Z</time>
      </trkpt>
      <trkpt lat="43.21941" lon="5.62556">
        <ele>146.35546875</ele>
        <time>2019-09-21T09:20:17Z</time>
      </trkpt>
      <trkpt lat="43.21967" lon="5.62556">
        <ele>148.95703125</ele>
        <time>2019-09-21T09:20:28Z</time>
      </trkpt>
      <trkpt lat="43.21992" lon="5.62559">
        <ele>151.9609375</ele>
        <time>2019-09-21T09:20:35Z</time>
      </trkpt>
      <trkpt lat="43.22019" lon="5.62564">
        <ele>155.35546875</ele>
        <time>2019-09-21T09:20:42Z</time>
      </trkpt>
      <trkpt lat="43.22027" lon="5.62564">
        <ele>156.2578125</ele>
        <time>2019-09-21T09:20:44Z</time>
      </trkpt>
      <trkpt lat="43.2204" lon="5.62562">
        <ele>157.453125</ele>
        <time>2019-09-21T09:20:47Z</time>
      </trkpt>
      <trkpt lat="43.22061" lon="5.62557">
        <ele>159.21484375</ele>
        <time>2019-09-21T09:20:52Z</time>
      </trkpt>
      <trkpt lat="43.22072" lon="5.62553">
        <ele>159.16015625</ele>
        <time>2019-09-21T09:20:55Z</time>
      </trkpt>
      <trkpt lat="43.22076" lon="5.62552">
        <ele>159.22265625</ele>
        <time>2019-09-21T09:20:56Z</time>
      </trkpt>
      <trkpt lat="43.221" lon="5.62558">
        <ele>160.40625</ele>
        <time>2019-09-21T09:21:02Z</time>
      </trkpt>
      <trkpt lat="43.22104" lon="5.6256">
        <ele>160.7421875</ele>
        <time>2019-09-21T09:21:03Z</time>
      </trkpt>
      <trkpt lat="43.22108" lon="5.62562">
        <ele>161.15625</ele>
        <time>2019-09-21T09:21:04Z</time>
      </trkpt>
      <trkpt lat="43.22112" lon="5.62566">
        <ele>161.72265625</ele>
        <time>2019-09-21T09:21:05Z</time>
      </trkpt>
      <trkpt lat="43.22115" lon="5.6257">
        <ele>162.4453125</ele>
        <time>2019-09-21T09:21:06Z</time>
      </trkpt>
      <trkpt lat="43.22118" lon="5.62575">
        <ele>163.0078125</ele>
        <time>2019-09-21T09:21:07Z</time>
      </trkpt>
      <trkpt lat="43.22122" lon="5.62578">
        <ele>163.140625</ele>
        <time>2019-09-21T09:21:08Z</time>
      </trkpt>
      <trkpt lat="43.22126" lon="5.62581">
        <ele>163.265625</ele>
        <time>2019-09-21T09:21:09Z</time>
      </trkpt>
      <trkpt lat="43.22131" lon="5.62584">
        <ele>163.40625</ele>
        <time>2019-09-21T09:21:10Z</time>
      </trkpt>
      <trkpt lat="43.22136" lon="5.62587">
        <ele>163.61328125</ele>
        <time>2019-09-21T09:21:11Z</time>
      </trkpt>
      <trkpt lat="43.22157" lon="5.626">
        <ele>164.375</ele>
        <time>2019-09-21T09:21:15Z</time>
      </trkpt>
      <trkpt lat="43.22172" lon="5.62608">
        <ele>164.39453125</ele>
        <time>2019-09-21T09:21:18Z</time>
      </trkpt>
      <trkpt lat="43.22177" lon="5.62611">
        <ele>163.62890625</ele>
        <time>2019-09-21T09:21:19Z</time>
      </trkpt>
      <trkpt lat="43.22182" lon="5.62615">
        <ele>163.1015625</ele>
        <time>2019-09-21T09:21:20Z</time>
      </trkpt>
      <trkpt lat="43.22205" lon="5.62651">
        <ele>163.8671875</ele>
        <time>2019-09-21T09:21:26Z</time>
      </trkpt>
      <trkpt lat="43.22207" lon="5.62658">
        <ele>164.20703125</ele>
        <time>2019-09-21T09:21:27Z</time>
      </trkpt>
      <trkpt lat="43.2221" lon="5.62665">
        <ele>164.7109375</ele>
        <time>2019-09-21T09:21:28Z</time>
      </trkpt>
      <trkpt lat="43.22211" lon="5.62673">
        <ele>165.48046875</ele>
        <time>2019-09-21T09:21:29Z</time>
      </trkpt>
      <trkpt lat="43.22223" lon="5.62735">
        <ele>171.73046875</ele>
        <time>2019-09-21T09:21:37Z</time>
      </trkpt>
      <trkpt lat="43.22226" lon="5.62741">
        <ele>172.19140625</ele>
        <time>2019-09-21T09:21:38Z</time>
      </trkpt>
      <trkpt lat="43.2223" lon="5.62747">
        <ele>172.2265625</ele>
        <time>2019-09-21T09:21:39Z</time>
      </trkpt>
      <trkpt lat="43.22234" lon="5.62752">
        <ele>172.078125</ele>
        <time>2019-09-21T09:21:40Z</time>
      </trkpt>
      <trkpt lat="43.22246" lon="5.62768">
        <ele>171.95703125</ele>
        <time>2019-09-21T09:21:43Z</time>
      </trkpt>
      <trkpt lat="43.22249" lon="5.62773">
        <ele>172.28515625</ele>
        <time>2019-09-21T09:21:44Z</time>
      </trkpt>
      <trkpt lat="43.22251" lon="5.62779">
        <ele>172.703125</ele>
        <time>2019-09-21T09:21:45Z</time>
      </trkpt>
      <trkpt lat="43.22252" lon="5.62786">
        <ele>173.2421875</ele>
        <time>2019-09-21T09:21:46Z</time>
      </trkpt>
      <trkpt lat="43.22253" lon="5.62793">
        <ele>173.921875</ele>
        <time>2019-09-21T09:21:47Z</time>
      </trkpt>
      <trkpt lat="43.22253" lon="5.628">
        <ele>174.66015625</ele>
        <time>2019-09-21T09:21:48Z</time>
      </trkpt>
      <trkpt lat="43.22252" lon="5.62807">
        <ele>175.40625</ele>
        <time>2019-09-21T09:21:49Z</time>
      </trkpt>
      <trkpt lat="43.22252" lon="5.62814">
        <ele>176.125</ele>
        <time>2019-09-21T09:21:50Z</time>
      </trkpt>
      <trkpt lat="43.22251" lon="5.62828">
        <ele>177.42578125</ele>
        <time>2019-09-21T09:21:52Z</time>
      </trkpt>
      <trkpt lat="43.2225" lon="5.62835">
        <ele>177.91015625</ele>
        <time>2019-09-21T09:21:53Z</time>
      </trkpt>
      <trkpt lat="43.22247" lon="5.62841">
        <ele>178.37109375</ele>
        <time>2019-09-21T09:21:54Z</time>
      </trkpt>
      <trkpt lat="43.22243" lon="5.62848">
        <ele>178.79296875</ele>
        <time>2019-09-21T09:21:55Z</time>
      </trkpt>
      <trkpt lat="43.22241" lon="5.62855">
        <ele>179.12890625</ele>
        <time>2019-09-21T09:21:56Z</time>
      </trkpt>
      <trkpt lat="43.2224" lon="5.62862">
        <ele>179.38671875</ele>
        <time>2019-09-21T09:21:57Z</time>
      </trkpt>
      <trkpt lat="43.22239" lon="5.62869">
        <ele>179.64453125</ele>
        <time>2019-09-21T09:21:58Z</time>
      </trkpt>
      <trkpt lat="43.22237" lon="5.62877">
        <ele>179.90234375</ele>
        <time>2019-09-21T09:21:59Z</time>
      </trkpt>
      <trkpt lat="43.22233" lon="5.62884">
        <ele>180.0703125</ele>
        <time>2019-09-21T09:22:00Z</time>
      </trkpt>
      <trkpt lat="43.22224" lon="5.6291">
        <ele>179.859375</ele>
        <time>2019-09-21T09:22:03Z</time>
      </trkpt>
      <trkpt lat="43.22222" lon="5.62919">
        <ele>179.953125</ele>
        <time>2019-09-21T09:22:04Z</time>
      </trkpt>
      <trkpt lat="43.22217" lon="5.62945">
        <ele>179.35546875</ele>
        <time>2019-09-21T09:22:07Z</time>
      </trkpt>
      <trkpt lat="43.22215" lon="5.6295">
        <ele>178.83203125</ele>
        <time>2019-09-21T09:22:08Z</time>
      </trkpt>
      <trkpt lat="43.22212" lon="5.62952">
        <ele>178.3984375</ele>
        <time>2019-09-21T09:22:09Z</time>
      </trkpt>
      <trkpt lat="43.2221" lon="5.62953">
        <ele>178.0390625</ele>
        <time>2019-09-21T09:22:10Z</time>
      </trkpt>
      <trkpt lat="43.22207" lon="5.62952">
        <ele>177.69921875</ele>
        <time>2019-09-21T09:22:18Z</time>
      </trkpt>
      <trkpt lat="43.22196" lon="5.62961">
        <ele>175.37109375</ele>
        <time>2019-09-21T09:22:25Z</time>
      </trkpt>
      <trkpt lat="43.2219" lon="5.62965">
        <ele>174.06640625</ele>
        <time>2019-09-21T09:22:27Z</time>
      </trkpt>
      <trkpt lat="43.22188" lon="5.62966">
        <ele>173.7734375</ele>
        <time>2019-09-21T09:22:35Z</time>
      </trkpt>
      <trkpt lat="43.22191" lon="5.62963">
        <ele>174.375</ele>
        <time>2019-09-21T09:23:12Z</time>
      </trkpt>
      <trkpt lat="43.22189" lon="5.62965">
        <ele>174.00390625</ele>
        <time>2019-09-21T09:23:56Z</time>
      </trkpt>
      <trkpt lat="43.22191" lon="5.62965">
        <ele>174.26953125</ele>
        <time>2019-09-21T09:24:17Z</time>
      </trkpt>
      <trkpt lat="43.22194" lon="5.62968">
        <ele>174.7734375</ele>
        <time>2019-09-21T09:24:27Z</time>
      </trkpt>
      <trkpt lat="43.22195" lon="5.6297">
        <ele>174.7890625</ele>
        <time>2019-09-21T09:25:02Z</time>
      </trkpt>
      <trkpt lat="43.22198" lon="5.62973">
        <ele>175.234375</ele>
        <time>2019-09-21T09:25:42Z</time>
      </trkpt>
      <trkpt lat="43.22192" lon="5.62973">
        <ele>174.2578125</ele>
        <time>2019-09-21T09:26:23Z</time>
      </trkpt>
      <trkpt lat="43.22193" lon="5.62971">
        <ele>174.48046875</ele>
        <time>2019-09-21T09:26:46Z</time>
      </trkpt>
    </trkseg>
  </trk>
</gpx>